[[{"header":{"parameterUnit":"m.s-1","parameterCategory":1,"la1":31.0,"la2":29.5877,"lo1":-88.7671,"lo2":-86.6584,"dy":0.0162,"dx":0.0185,"nx":115,"ny":88,"refTime":"2024-03-27T06:00:00:Z","depth":0,"parameterNumber":2,"parameterNumberName":"U-component_of_WINDS"},"data":[0.0,0.0,0.0,0.0,0.0,0.0,0.0,0.0,0.0,0.0,0.0,0.0,0.0,0.0,0.0,0.0,0.0,0.0,0.0,0.0,0.0,0.0,0.0,0.0,0.0,0.0,0.0,0.0,0.0,0.0,0.0,0.0,0.0,0.0,0.0,0.0,0.0,0.0,0.0,0.0,0.0,0.0,0.0,0.0,0.0,0.0,0.0,0.0,0.0,0.0,0.0,0.0,0.0,0.0,0.0,0.0,0.0,0.0,0.0,0.0,0.0,0.0,0.0,0.0,0.0,0.0,0.0,0.0,0.0,0.0,0.0,0.0,0.0,0.0,0.0,0.0,0.0,0.0,0.0,0.0,0.0,0.0,0.0,0.0,0.0,0.0,0.0,0.0,0.0,0.0,0.0,0.0,0.0,0.0,0.0,0.0,0.0,0.0,0.0,0.0,0.0,0.0,0.0,0.0,0.0,0.0,0.0,0.0,0.0,0.0,0.0,0.0,0.0,0.0,0.0,0.0,0.0,0.0,0.0,0.0,0.0,0.0,0.0,0.0,0.0,0.0,0.0,0.0,0.0,0.0,0.0,0.0,0.0,0.0,0.0,0.0,0.0,0.0,0.0,0.0,0.0,0.0,0.0,0.0,0.0,0.0,0.0,0.0,0.0,0.0,0.0,0.0,0.0,0.0,0.0,0.0,0.0,0.0,0.0,0.0,0.0,0.0,0.0,0.0,0.0,0.0,0.0,0.0,0.0,0.0,0.0,0.0,0.0,0.0,0.0,0.0,0.0,0.0,0.0,0.0,0.0,0.0,0.0,0.0,0.0,0.0,0.0,0.0,0.0,0.0,0.0,0.0,0.0,0.0,0.0,0.0,0.0,0.0,0.0,0.0,0.0,0.0,0.0,0.0,0.0,0.0,0.0,0.0,0.0,0.0,0.0,0.0,0.0,0.0,0.0,0.0,0.0,0.0,0.0,0.0,0.0,0.0,0.0,0.0,0.0,0.0,0.0,0.0,0.0,0.0,0.0,0.0,0.0,0.0,0.0,0.0,0.0,0.0,0.0,0.0,0.0,0.0,0.0,0.0,0.0,0.0,0.0,0.0,0.0,0.0,0.0,0.0,0.0,0.0,0.0,0.0,0.0,0.0,0.0,0.0,0.0,0.0,0.0,0.0,0.0,0.0,0.0,0.0,0.0,0.0,0.0,0.0,0.0,0.0,0.0,0.0,0.0,0.0,0.0,0.0,0.0,0.0,0.0,0.0,0.0,0.0,0.0,0.0,0.0,0.0,0.0,0.0,0.0,0.0,0.0,0.0,0.0,0.0,0.0,0.0,0.0,0.0,0.0,0.0,0.0,0.0,0.0,0.0,0.0,0.0,0.0,0.0,0.0,0.0,0.0,0.0,0.0,0.0,0.0,0.0,0.0,0.0,0.0,0.0,0.0,0.0,0.0,0.0,0.0,0.0,0.0,0.0,0.0,0.0,0.0,0.0,0.0,0.0,0.0,0.0,0.0,0.0,0.0,0.0,0.0,0.0,0.0,0.0,0.0,0.0,0.0,0.0,0.0,0.0,0.0,0.0,0.0,0.0,0.0,0.0,0.0,0.0,0.0,0.0,0.0,0.0,0.0,0.0,0.0,0.0,0.0,0.0,0.0,0.0,0.0,0.0,0.0,0.0,0.0,0.0,0.0,0.0,0.0,0.0,0.0,0.0,0.0,0.0,0.0,0.0,0.0,0.0,0.0,0.0,0.0,0.0,0.0,0.0,0.0,0.0,0.0,0.0,0.0,0.0,0.0,0.0,0.0,0.0,0.0,0.0,0.0,0.0,0.0,0.0,0.0,0.0,0.0,0.0,0.0,0.0,0.0,0.0,0.0,0.0,0.0,0.0,0.0,0.0,0.0,0.0,0.0,0.0,0.0,0.0,0.0,0.0,0.0,0.0,0.0,0.0,0.0,0.0,0.0,0.0,0.0,0.0,0.0,0.0,0.0,0.0,0.0,0.0,0.0,0.0,0.0,0.0,0.0,0.0,0.0,0.0,0.0,0.0,0.0,0.0,0.0,0.0,0.0,0.0,0.0,0.0,0.0,0.0,0.0,0.0,0.0,0.0,0.0,0.0,0.0,0.0,0.0,0.0,0.0,0.0,0.0,0.0,0.0,0.0,0.0,0.0,0.0,0.0,0.0,0.0,0.0,0.0,0.0,0.0,0.0,0.0,0.0,0.0,0.0,0.0,0.0,0.0,0.0,0.0,0.0,0.0,0.0,0.0,0.0,0.0,0.0,0.0,0.0,0.0,0.0,0.0,0.0,0.0,0.0,0.0,0.0,0.0,0.0,0.0,0.0,0.0,0.0,0.0,0.0,0.0,0.0,0.0,0.0,0.0,0.0,0.0,0.0,0.0,0.0,0.0,0.0,0.0,0.0,0.0,0.0,0.0,0.0,0.0,0.0,0.0,0.0,0.0,0.0,0.0,0.0,0.0,0.0,0.0,0.0,0.0,0.0,0.0,0.0,0.0,0.0,0.0,0.0,0.0,0.0,0.0,0.0,0.0,0.0,0.0,0.0,0.0,0.0,0.0,0.0,0.0,0.0,0.0,0.0,0.0,0.0,0.0,0.0,0.0,0.0,0.0,0.0,0.0,0.0,0.0,0.0,0.0,0.0,0.0,0.0,0.0,0.0,0.0,0.0,0.0,0.0,0.0,0.0,0.0,0.0,0.0,0.0,0.0,0.0,0.0,0.0,0.0,0.0,0.0,0.0,0.0,0.0,0.0,0.0,0.0,0.0,0.0,0.0,0.0,0.0,0.0,0.0,0.0,0.0,0.0,0.0,0.0,0.0,0.0,0.0,0.0,0.0,0.0,0.0,0.0,0.0,0.0,0.0,0.0,0.0,0.0,0.0,0.0,0.0,0.0,0.0,0.0,0.0,0.0,0.0,0.0,0.0,0.0,0.0,0.0,0.0,0.0,0.0,0.0,0.0,0.0,0.0,0.0,0.0,0.0,0.0,0.0,0.0,0.0,0.0,0.0,0.0,0.0,0.0,0.0,0.0,0.0,0.0,0.0,0.0,0.0,0.0,0.0,0.0,0.0,0.0,0.0,0.0,0.0,0.0,0.0,0.0,0.0,0.0,0.0,0.0,0.0,0.0,0.0,0.0,0.0,0.0,0.0,0.0,0.0,0.0,0.0,0.0,0.0,0.0,0.0,0.0,0.0,0.0,0.0,0.0,0.0,0.0,0.0,0.0,0.0,0.0,0.0,0.0,0.0,0.0,0.0,0.0,0.0,0.0,0.0,0.0,0.0,0.0,0.0,0.0,0.0,0.0,0.0,0.0,0.0,0.0,0.0,0.0,0.0,0.0,0.0,0.0,0.0,0.0,0.0,0.0,0.0,0.0,0.0,0.0,0.0,0.0,0.0,0.0,0.0,0.0,0.0,0.0,0.0,0.0,0.0,0.0,0.0,0.0,0.0,0.0,0.0,0.0,0.0,0.0,0.0,0.0,0.0,0.0,0.0,0.0,0.0,0.0,0.0,0.0,0.0,0.0,0.0,0.0,0.0,0.0,0.0,0.0,0.0,0.0,0.0,0.0,0.0,0.0,0.0,0.0,0.0,0.0,0.0,0.0,0.0,0.0,0.0,0.0,0.0,0.0,0.0,0.0,0.0,0.0,0.0,0.0,0.0,0.0,0.0,0.0,0.0,0.0,0.0,0.0,0.0,0.0,0.0,0.0,0.0,0.0,0.0,0.0,0.0,0.0,0.0,0.0,0.0,0.0,0.0,0.0,0.0,0.0,0.0,0.0,0.0,0.0,0.0,0.0,0.0,0.0,0.0,0.0,0.0,0.0,0.0,0.0,0.0,0.0,0.0,0.0,0.0,0.0,0.0,0.0,0.0,0.0,0.0,0.0,0.0,0.0,0.0,0.0,0.0,0.0,0.0,0.0,0.0,0.0,0.0,0.0,0.0,0.0,0.0,0.0,0.0,0.0,0.0,0.0,0.0,0.0,0.0,0.0,0.0,0.0,0.0,0.0,0.0,0.0,0.0,0.0,0.0,0.0,0.0,0.0,0.0,0.0,0.0,0.0,0.0,0.0,0.0,0.0,0.0,0.0,0.0,0.0,0.0,0.0,0.0,0.0,0.0,0.0,0.0,0.0,0.0,0.0,0.0,0.0,0.0,0.0,0.0,0.0,0.0,0.0,0.0,0.0,0.0,0.0,0.0,0.0,0.0,0.0,0.0,0.0,0.0,0.0,0.0,0.0,0.0,0.0,0.0,-3.5912,0.0,0.0,0.0,0.0,0.0,0.0,0.0,0.0,0.0,0.0,0.0,0.0,0.0,0.0,0.0,0.0,0.0,0.0,0.0,0.0,0.0,0.0,0.0,0.0,0.0,0.0,0.0,0.0,0.0,0.0,0.0,0.0,0.0,0.0,0.0,0.0,0.0,0.0,0.0,0.0,0.0,0.0,0.0,0.0,0.0,0.0,0.0,0.0,0.0,0.0,0.0,0.0,0.0,0.0,0.0,0.0,0.0,0.0,0.0,0.0,0.0,0.0,0.0,0.0,0.0,0.0,0.0,0.0,0.0,0.0,0.0,0.0,0.0,0.0,0.0,0.0,0.0,0.0,0.0,0.0,0.0,0.0,0.0,0.0,0.0,0.0,0.0,0.0,0.0,0.0,0.0,0.0,0.0,0.0,0.0,0.0,0.0,0.0,0.0,0.0,0.0,0.0,0.0,0.0,0.0,0.0,0.0,0.0,0.0,0.0,-3.5936,-3.5899,-3.5899,-3.5899,-3.5899,0.0,0.0,0.0,0.0,0.0,0.0,0.0,0.0,0.0,0.0,0.0,0.0,0.0,0.0,0.0,0.0,0.0,0.0,0.0,0.0,0.0,0.0,0.0,0.0,0.0,0.0,0.0,0.0,0.0,0.0,0.0,0.0,0.0,0.0,0.0,0.0,0.0,0.0,0.0,0.0,0.0,0.0,0.0,0.0,0.0,0.0,0.0,0.0,0.0,0.0,0.0,0.0,0.0,0.0,0.0,0.0,0.0,0.0,0.0,0.0,0.0,0.0,0.0,0.0,0.0,0.0,0.0,0.0,0.0,0.0,0.0,0.0,0.0,0.0,0.0,0.0,0.0,0.0,0.0,0.0,0.0,0.0,0.0,0.0,0.0,0.0,0.0,0.0,0.0,0.0,0.0,0.0,0.0,0.0,0.0,0.0,0.0,0.0,0.0,0.0,0.0,0.0,0.0,0.0,0.0,0.0,0.0,0.0,0.0,0.0,0.0,0.0,-3.5889,-3.5889,-3.5892,0.0,0.0,0.0,0.0,0.0,0.0,0.0,0.0,0.0,0.0,0.0,0.0,0.0,0.0,0.0,0.0,0.0,0.0,0.0,0.0,0.0,0.0,0.0,0.0,0.0,0.0,0.0,0.0,0.0,0.0,0.0,0.0,0.0,0.0,0.0,0.0,0.0,0.0,0.0,0.0,0.0,0.0,0.0,0.0,0.0,0.0,0.0,0.0,0.0,0.0,0.0,0.0,0.0,0.0,0.0,0.0,0.0,0.0,0.0,0.0,0.0,0.0,0.0,0.0,0.0,0.0,0.0,0.0,0.0,0.0,0.0,0.0,0.0,0.0,0.0,0.0,0.0,0.0,0.0,0.0,0.0,0.0,0.0,0.0,0.0,0.0,0.0,0.0,0.0,0.0,0.0,0.0,0.0,0.0,0.0,0.0,0.0,0.0,0.0,0.0,0.0,0.0,0.0,0.0,0.0,0.0,0.0,0.0,0.0,0.0,-3.5892,-3.5889,-3.5889,0.0,-3.5889,0.0,0.0,0.0,0.0,0.0,0.0,0.0,0.0,0.0,0.0,0.0,0.0,0.0,0.0,0.0,0.0,0.0,0.0,0.0,0.0,0.0,0.0,0.0,0.0,0.0,0.0,0.0,0.0,0.0,0.0,0.0,0.0,0.0,0.0,0.0,0.0,0.0,0.0,0.0,0.0,0.0,0.0,0.0,0.0,0.0,0.0,0.0,0.0,0.0,0.0,0.0,0.0,0.0,0.0,0.0,0.0,0.0,0.0,0.0,0.0,0.0,0.0,0.0,0.0,0.0,0.0,0.0,0.0,0.0,0.0,0.0,0.0,0.0,0.0,0.0,0.0,0.0,0.0,0.0,0.0,0.0,0.0,0.0,0.0,0.0,0.0,0.0,0.0,0.0,0.0,0.0,0.0,0.0,0.0,0.0,0.0,0.0,0.0,0.0,0.0,0.0,0.0,0.0,0.0,0.0,0.0,0.0,0.0,0.0,0.0,-3.5882,-3.5882,-3.5882,-3.5888,0.0,0.0,0.0,0.0,0.0,0.0,0.0,0.0,0.0,0.0,0.0,0.0,0.0,0.0,0.0,0.0,0.0,0.0,0.0,0.0,0.0,0.0,0.0,0.0,0.0,0.0,0.0,0.0,0.0,0.0,0.0,0.0,0.0,0.0,0.0,0.0,0.0,0.0,0.0,0.0,0.0,0.0,0.0,0.0,0.0,0.0,0.0,0.0,0.0,0.0,0.0,0.0,0.0,0.0,0.0,0.0,0.0,0.0,0.0,0.0,0.0,0.0,0.0,0.0,0.0,0.0,0.0,0.0,0.0,0.0,0.0,0.0,0.0,0.0,0.0,0.0,0.0,0.0,0.0,0.0,0.0,0.0,0.0,0.0,0.0,0.0,0.0,0.0,0.0,0.0,0.0,0.0,0.0,0.0,0.0,0.0,0.0,0.0,0.0,0.0,0.0,0.0,0.0,0.0,0.0,0.0,0.0,0.0,0.0,0.0,-3.5882,-3.5882,-3.5882,-3.5882,-3.5889,-3.5885,0.0,0.0,0.0,0.0,0.0,0.0,0.0,0.0,0.0,0.0,0.0,0.0,0.0,0.0,0.0,0.0,0.0,0.0,0.0,0.0,0.0,0.0,0.0,0.0,0.0,0.0,0.0,0.0,0.0,0.0,0.0,0.0,0.0,0.0,0.0,0.0,0.0,0.0,0.0,0.0,0.0,0.0,0.0,0.0,0.0,0.0,0.0,0.0,0.0,0.0,0.0,0.0,0.0,0.0,0.0,0.0,0.0,0.0,0.0,0.0,0.0,0.0,0.0,0.0,0.0,0.0,0.0,0.0,0.0,0.0,0.0,0.0,0.0,0.0,0.0,0.0,0.0,0.0,0.0,0.0,0.0,0.0,0.0,0.0,0.0,0.0,0.0,0.0,0.0,0.0,0.0,0.0,0.0,0.0,0.0,0.0,0.0,0.0,0.0,0.0,0.0,0.0,0.0,0.0,0.0,0.0,0.0,0.0,-3.5882,-3.5882,-3.5882,-3.5898,-3.5882,-3.5889,0.0,0.0,0.0,0.0,0.0,0.0,0.0,0.0,0.0,0.0,0.0,0.0,0.0,0.0,0.0,0.0,0.0,0.0,0.0,0.0,0.0,0.0,0.0,0.0,0.0,0.0,0.0,0.0,0.0,0.0,0.0,0.0,0.0,0.0,0.0,0.0,0.0,0.0,0.0,0.0,0.0,0.0,0.0,0.0,0.0,0.0,0.0,0.0,0.0,0.0,0.0,0.0,0.0,0.0,0.0,0.0,0.0,0.0,0.0,0.0,0.0,0.0,0.0,0.0,0.0,0.0,0.0,0.0,0.0,0.0,0.0,0.0,0.0,0.0,0.0,0.0,0.0,0.0,0.0,0.0,0.0,0.0,0.0,0.0,0.0,0.0,0.0,0.0,0.0,0.0,0.0,0.0,0.0,0.0,0.0,0.0,0.0,0.0,0.0,0.0,0.0,0.0,0.0,0.0,0.0,0.0,0.0,0.0,0.0,-3.5842,-3.5819,-3.5823,-3.5823,-3.5842,-3.583,0.0,0.0,0.0,0.0,0.0,0.0,0.0,0.0,0.0,0.0,0.0,0.0,0.0,0.0,0.0,0.0,0.0,0.0,0.0,0.0,0.0,0.0,0.0,0.0,0.0,0.0,0.0,0.0,0.0,0.0,0.0,0.0,0.0,0.0,0.0,0.0,0.0,0.0,0.0,0.0,0.0,0.0,0.0,0.0,0.0,0.0,0.0,0.0,0.0,0.0,0.0,0.0,0.0,0.0,0.0,0.0,0.0,0.0,0.0,0.0,0.0,0.0,0.0,0.0,0.0,0.0,0.0,0.0,0.0,0.0,0.0,0.0,0.0,0.0,0.0,0.0,0.0,0.0,0.0,0.0,0.0,0.0,0.0,0.0,0.0,0.0,0.0,0.0,0.0,0.0,0.0,0.0,0.0,0.0,0.0,0.0,0.0,0.0,0.0,0.0,0.0,0.0,0.0,0.0,0.0,0.0,0.0,0.0,0.0,-3.5795,0.0,-3.5806,-3.5795,-3.5795,-3.5803,0.0,0.0,0.0,0.0,0.0,0.0,0.0,0.0,0.0,0.0,0.0,0.0,0.0,0.0,0.0,0.0,0.0,0.0,0.0,0.0,0.0,0.0,0.0,0.0,0.0,0.0,0.0,0.0,0.0,0.0,0.0,0.0,0.0,0.0,0.0,0.0,0.0,0.0,0.0,0.0,0.0,0.0,0.0,0.0,0.0,0.0,0.0,0.0,0.0,0.0,0.0,0.0,0.0,0.0,0.0,0.0,0.0,0.0,0.0,0.0,0.0,0.0,0.0,0.0,0.0,0.0,0.0,0.0,0.0,0.0,0.0,0.0,0.0,0.0,0.0,0.0,0.0,0.0,0.0,0.0,0.0,0.0,0.0,0.0,0.0,0.0,0.0,0.0,0.0,0.0,0.0,0.0,0.0,0.0,0.0,0.0,0.0,0.0,0.0,0.0,0.0,0.0,0.0,0.0,0.0,0.0,0.0,0.0,-3.5795,-3.5795,-3.5793,-3.5793,-3.5791,-3.5795,-3.5803,0.0,0.0,0.0,0.0,0.0,0.0,0.0,0.0,0.0,0.0,0.0,0.0,0.0,0.0,0.0,0.0,0.0,0.0,0.0,0.0,0.0,0.0,0.0,0.0,0.0,0.0,0.0,0.0,0.0,0.0,0.0,0.0,0.0,0.0,0.0,0.0,0.0,0.0,0.0,0.0,0.0,0.0,0.0,0.0,0.0,0.0,0.0,0.0,0.0,0.0,0.0,0.0,0.0,0.0,0.0,0.0,0.0,0.0,0.0,0.0,0.0,0.0,0.0,0.0,0.0,0.0,0.0,0.0,0.0,0.0,0.0,0.0,0.0,0.0,0.0,0.0,0.0,0.0,0.0,0.0,0.0,0.0,0.0,0.0,0.0,0.0,0.0,0.0,0.0,0.0,0.0,0.0,0.0,0.0,0.0,0.0,0.0,0.0,0.0,0.0,0.0,0.0,0.0,0.0,0.0,0.0,0.0,0.0,0.0,-3.5727,-3.5775,-3.5803,-3.5793,-3.5806,-3.5799,0.0,0.0,0.0,0.0,0.0,0.0,0.0,0.0,0.0,0.0,0.0,0.0,0.0,0.0,0.0,0.0,0.0,0.0,0.0,0.0,0.0,0.0,0.0,0.0,0.0,0.0,0.0,0.0,0.0,0.0,0.0,0.0,0.0,0.0,0.0,0.0,0.0,0.0,0.0,0.0,0.0,0.0,0.0,0.0,0.0,0.0,0.0,0.0,0.0,0.0,0.0,0.0,0.0,0.0,0.0,0.0,0.0,0.0,0.0,0.0,0.0,0.0,0.0,0.0,0.0,0.0,0.0,0.0,0.0,0.0,0.0,0.0,0.0,0.0,0.0,0.0,0.0,0.0,0.0,0.0,0.0,0.0,0.0,0.0,0.0,0.0,0.0,0.0,0.0,0.0,0.0,0.0,0.0,0.0,0.0,0.0,0.0,0.0,0.0,0.0,0.0,0.0,0.0,0.0,0.0,0.0,0.0,0.0,0.0,-3.5698,-3.5742,-3.5766,-3.5803,-3.5793,-3.5806,-3.5795,0.0,0.0,0.0,0.0,0.0,0.0,0.0,0.0,0.0,0.0,0.0,0.0,0.0,0.0,0.0,0.0,0.0,0.0,0.0,0.0,0.0,0.0,0.0,0.0,0.0,0.0,0.0,0.0,0.0,0.0,0.0,0.0,0.0,0.0,0.0,0.0,0.0,0.0,0.0,0.0,0.0,0.0,0.0,0.0,0.0,0.0,0.0,0.0,0.0,0.0,0.0,0.0,0.0,0.0,0.0,0.0,0.0,0.0,0.0,0.0,0.0,0.0,0.0,0.0,0.0,0.0,0.0,0.0,0.0,0.0,0.0,0.0,0.0,0.0,0.0,0.0,0.0,0.0,0.0,0.0,0.0,0.0,0.0,0.0,0.0,0.0,0.0,0.0,0.0,0.0,0.0,0.0,0.0,0.0,0.0,0.0,0.0,0.0,0.0,0.0,0.0,0.0,0.0,0.0,0.0,0.0,0.0,0.0,-3.5704,-3.5711,-3.5733,-3.5799,-3.5799,-3.5793,0.0,0.0,0.0,0.0,0.0,0.0,0.0,0.0,0.0,0.0,0.0,0.0,0.0,0.0,0.0,0.0,0.0,0.0,0.0,0.0,0.0,0.0,0.0,0.0,0.0,0.0,0.0,0.0,0.0,0.0,0.0,0.0,0.0,0.0,0.0,0.0,0.0,0.0,0.0,0.0,0.0,0.0,0.0,0.0,0.0,0.0,0.0,0.0,0.0,0.0,0.0,0.0,0.0,0.0,0.0,0.0,0.0,0.0,0.0,0.0,0.0,0.0,0.0,0.0,0.0,0.0,0.0,0.0,0.0,0.0,0.0,0.0,0.0,0.0,0.0,0.0,0.0,0.0,0.0,0.0,0.0,0.0,0.0,0.0,0.0,0.0,0.0,0.0,0.0,0.0,0.0,0.0,0.0,0.0,0.0,0.0,0.0,0.0,0.0,0.0,0.0,0.0,0.0,0.0,0.0,0.0,0.0,0.0,0.0,-3.5704,-3.5709,-3.5702,-3.5713,-3.577,-3.5793,0.0,0.0,0.0,0.0,0.0,0.0,0.0,0.0,0.0,0.0,0.0,0.0,0.0,0.0,0.0,0.0,0.0,0.0,0.0,0.0,0.0,0.0,0.0,0.0,0.0,0.0,0.0,0.0,0.0,0.0,0.0,0.0,0.0,0.0,0.0,0.0,0.0,0.0,0.0,0.0,0.0,0.0,0.0,0.0,0.0,0.0,0.0,0.0,0.0,0.0,0.0,0.0,0.0,0.0,0.0,0.0,0.0,0.0,0.0,0.0,0.0,0.0,0.0,0.0,0.0,0.0,0.0,0.0,0.0,0.0,0.0,0.0,0.0,0.0,0.0,0.0,0.0,0.0,0.0,0.0,0.0,0.0,0.0,0.0,0.0,0.0,0.0,0.0,0.0,0.0,0.0,0.0,0.0,0.0,0.0,0.0,0.0,0.0,0.0,0.0,0.0,0.0,0.0,0.0,0.0,0.0,0.0,0.0,-3.5858,-3.6187,-3.6207,-3.6209,-3.6251,-3.5926,-3.5765,0.0,0.0,0.0,0.0,0.0,0.0,0.0,0.0,0.0,0.0,0.0,0.0,0.0,0.0,0.0,0.0,0.0,0.0,0.0,0.0,0.0,0.0,0.0,0.0,0.0,0.0,0.0,0.0,0.0,0.0,0.0,0.0,0.0,0.0,0.0,0.0,0.0,0.0,0.0,0.0,0.0,0.0,0.0,0.0,0.0,0.0,0.0,0.0,0.0,0.0,0.0,0.0,0.0,0.0,0.0,0.0,0.0,0.0,0.0,0.0,0.0,0.0,0.0,0.0,0.0,0.0,0.0,0.0,0.0,0.0,0.0,0.0,0.0,0.0,0.0,0.0,0.0,0.0,0.0,0.0,0.0,0.0,0.0,0.0,0.0,0.0,0.0,0.0,0.0,0.0,0.0,0.0,0.0,0.0,0.0,0.0,0.0,0.0,0.0,0.0,0.0,0.0,0.0,0.0,0.0,0.0,0.0,0.0,-3.6091,-3.6864,-3.6903,-3.6933,-3.6961,-3.6236,-3.5824,0.0,0.0,0.0,0.0,0.0,0.0,0.0,0.0,0.0,0.0,0.0,0.0,0.0,0.0,0.0,0.0,0.0,0.0,0.0,0.0,0.0,0.0,0.0,0.0,0.0,0.0,0.0,0.0,0.0,0.0,0.0,0.0,0.0,0.0,0.0,0.0,0.0,0.0,0.0,0.0,0.0,0.0,0.0,0.0,0.0,0.0,0.0,0.0,0.0,0.0,0.0,0.0,0.0,0.0,0.0,0.0,0.0,0.0,0.0,0.0,0.0,0.0,0.0,0.0,0.0,0.0,0.0,0.0,0.0,0.0,0.0,0.0,0.0,0.0,0.0,0.0,0.0,0.0,0.0,0.0,0.0,0.0,0.0,0.0,0.0,0.0,0.0,0.0,0.0,0.0,0.0,0.0,0.0,0.0,0.0,0.0,0.0,0.0,0.0,0.0,0.0,0.0,0.0,0.0,0.0,0.0,0.0,0.0,-3.6091,-3.6864,-3.6903,-3.6933,-3.698,-3.6813,-3.6416,0.0,0.0,0.0,0.0,0.0,0.0,0.0,0.0,0.0,0.0,0.0,0.0,0.0,0.0,0.0,0.0,0.0,0.0,0.0,0.0,0.0,0.0,0.0,0.0,0.0,0.0,0.0,0.0,0.0,0.0,0.0,0.0,0.0,0.0,0.0,0.0,0.0,0.0,0.0,0.0,0.0,0.0,0.0,0.0,0.0,0.0,0.0,0.0,-3.0697,0.0,0.0,0.0,0.0,0.0,0.0,0.0,0.0,0.0,0.0,0.0,0.0,0.0,0.0,0.0,0.0,0.0,0.0,0.0,0.0,0.0,0.0,0.0,0.0,0.0,0.0,0.0,0.0,0.0,0.0,0.0,0.0,0.0,0.0,0.0,0.0,0.0,0.0,0.0,0.0,0.0,0.0,0.0,0.0,0.0,0.0,0.0,0.0,0.0,0.0,0.0,0.0,0.0,0.0,0.0,0.0,0.0,0.0,0.0,-3.6236,-3.7422,-3.7455,-3.7492,-3.756,-3.7569,-3.7006,0.0,0.0,0.0,0.0,0.0,0.0,0.0,0.0,0.0,0.0,0.0,0.0,0.0,0.0,0.0,0.0,0.0,0.0,0.0,0.0,0.0,0.0,0.0,0.0,0.0,0.0,0.0,0.0,0.0,0.0,0.0,0.0,0.0,0.0,0.0,0.0,0.0,0.0,0.0,0.0,0.0,0.0,0.0,0.0,0.0,0.0,0.0,0.0,0.0,0.0,0.0,0.0,0.0,0.0,0.0,0.0,0.0,0.0,0.0,0.0,0.0,0.0,0.0,0.0,0.0,0.0,0.0,0.0,0.0,0.0,0.0,0.0,0.0,0.0,0.0,0.0,0.0,0.0,0.0,0.0,0.0,0.0,0.0,0.0,0.0,0.0,0.0,0.0,0.0,0.0,0.0,0.0,0.0,0.0,0.0,0.0,0.0,0.0,0.0,0.0,0.0,0.0,0.0,0.0,0.0,0.0,0.0,-3.5717,-3.6548,-3.8022,-3.8234,-3.8267,-3.8177,-3.8194,-3.7439,-3.58,0.0,0.0,0.0,0.0,0.0,0.0,0.0,0.0,0.0,0.0,0.0,0.0,0.0,0.0,0.0,0.0,0.0,0.0,0.0,0.0,0.0,0.0,0.0,0.0,0.0,0.0,0.0,0.0,0.0,0.0,0.0,0.0,0.0,0.0,0.0,0.0,0.0,0.0,-3.0677,-3.0637,0.0,0.0,0.0,0.0,0.0,0.0,0.0,0.0,-3.0706,0.0,0.0,0.0,0.0,0.0,0.0,0.0,0.0,0.0,0.0,0.0,0.0,0.0,0.0,0.0,0.0,0.0,0.0,0.0,0.0,0.0,0.0,0.0,0.0,0.0,0.0,0.0,0.0,0.0,0.0,0.0,0.0,0.0,0.0,0.0,0.0,0.0,0.0,0.0,0.0,0.0,0.0,0.0,0.0,0.0,0.0,0.0,0.0,0.0,0.0,0.0,0.0,0.0,0.0,0.0,0.0,-3.5601,-3.6321,-3.7115,-3.7994,-3.8793,-3.8819,-3.8085,-3.8131,-3.7392,-3.5687,0.0,0.0,0.0,0.0,0.0,0.0,0.0,0.0,0.0,0.0,0.0,0.0,0.0,0.0,0.0,0.0,0.0,0.0,0.0,0.0,0.0,0.0,0.0,0.0,0.0,0.0,0.0,0.0,0.0,0.0,0.0,0.0,0.0,0.0,0.0,0.0,0.0,0.0,0.0,-3.0606,-3.0602,0.0,0.0,0.0,0.0,0.0,0.0,0.0,0.0,-3.0692,0.0,0.0,0.0,0.0,0.0,0.0,0.0,0.0,0.0,0.0,0.0,0.0,0.0,0.0,0.0,0.0,0.0,0.0,0.0,0.0,0.0,0.0,0.0,0.0,0.0,0.0,0.0,0.0,0.0,0.0,0.0,0.0,0.0,0.0,0.0,0.0,0.0,0.0,0.0,0.0,0.0,0.0,0.0,0.0,0.0,0.0,0.0,0.0,0.0,0.0,0.0,0.0,0.0,0.0,0.0,-3.5602,-3.6389,-3.7171,-3.7942,-3.8808,-3.8827,-3.7981,-3.8033,-3.7308,0.0,0.0,0.0,0.0,0.0,0.0,0.0,0.0,0.0,0.0,0.0,0.0,0.0,0.0,0.0,0.0,0.0,0.0,0.0,0.0,0.0,0.0,0.0,0.0,0.0,0.0,0.0,0.0,0.0,0.0,0.0,0.0,0.0,0.0,0.0,0.0,0.0,0.0,0.0,0.0,-3.061,-3.061,-3.061,0.0,0.0,0.0,0.0,0.0,0.0,-3.0641,-3.0645,0.0,0.0,0.0,0.0,0.0,0.0,0.0,0.0,0.0,0.0,0.0,0.0,0.0,0.0,0.0,0.0,0.0,0.0,0.0,0.0,0.0,0.0,0.0,0.0,0.0,0.0,0.0,0.0,0.0,0.0,0.0,0.0,0.0,0.0,0.0,0.0,0.0,0.0,0.0,0.0,0.0,0.0,0.0,0.0,0.0,0.0,0.0,0.0,0.0,0.0,0.0,0.0,0.0,0.0,0.0,-3.5573,-3.6489,-3.7225,-3.7862,-3.8807,-3.8865,-3.7912,-3.7936,-3.7228,0.0,0.0,0.0,0.0,0.0,0.0,0.0,0.0,0.0,0.0,0.0,0.0,0.0,0.0,0.0,0.0,0.0,0.0,0.0,0.0,0.0,0.0,0.0,0.0,0.0,0.0,0.0,0.0,0.0,0.0,0.0,0.0,0.0,0.0,0.0,0.0,0.0,0.0,0.0,0.0,0.0,-3.0617,-3.0617,-3.0733,0.0,0.0,0.0,0.0,-3.0888,-3.0869,0.0,0.0,0.0,0.0,0.0,0.0,0.0,0.0,0.0,0.0,0.0,0.0,0.0,0.0,0.0,0.0,0.0,0.0,0.0,0.0,0.0,0.0,0.0,0.0,0.0,0.0,0.0,0.0,0.0,0.0,0.0,0.0,0.0,0.0,0.0,0.0,0.0,0.0,0.0,0.0,0.0,0.0,0.0,0.0,0.0,0.0,0.0,0.0,0.0,0.0,0.0,0.0,0.0,0.0,0.0,0.0,-3.5552,-3.7002,-3.775,-3.7797,-3.9269,-3.9326,-3.7778,-3.7838,-3.7156,0.0,0.0,0.0,0.0,0.0,0.0,0.0,0.0,0.0,0.0,0.0,0.0,0.0,0.0,0.0,0.0,0.0,0.0,0.0,0.0,0.0,0.0,0.0,0.0,0.0,0.0,0.0,0.0,0.0,0.0,0.0,0.0,0.0,0.0,0.0,0.0,0.0,0.0,0.0,0.0,0.0,-3.0617,-3.0617,-3.1217,-3.1661,0.0,0.0,-3.2561,-3.1873,-3.1742,0.0,0.0,0.0,0.0,0.0,0.0,0.0,0.0,0.0,0.0,0.0,0.0,0.0,0.0,0.0,0.0,0.0,0.0,0.0,0.0,0.0,0.0,0.0,0.0,0.0,0.0,0.0,0.0,0.0,0.0,0.0,0.0,0.0,0.0,0.0,0.0,0.0,0.0,0.0,0.0,0.0,0.0,0.0,0.0,0.0,0.0,0.0,0.0,0.0,0.0,0.0,0.0,0.0,0.0,0.0,-3.5528,-3.5538,-3.7003,-3.7755,-3.7733,-3.929,-3.9338,-3.768,-3.7729,-3.7028,0.0,0.0,0.0,0.0,0.0,0.0,0.0,0.0,0.0,0.0,0.0,0.0,0.0,0.0,0.0,0.0,0.0,0.0,0.0,0.0,0.0,0.0,0.0,0.0,0.0,0.0,0.0,0.0,0.0,0.0,0.0,0.0,0.0,0.0,0.0,0.0,0.0,0.0,0.0,0.0,0.0,0.0,-3.1217,-3.1579,0.0,0.0,0.0,-3.2996,-3.2638,0.0,0.0,0.0,0.0,0.0,0.0,0.0,0.0,0.0,0.0,0.0,0.0,0.0,0.0,0.0,0.0,0.0,0.0,0.0,0.0,0.0,0.0,0.0,0.0,0.0,0.0,0.0,0.0,0.0,0.0,0.0,0.0,0.0,0.0,0.0,0.0,0.0,0.0,0.0,0.0,0.0,0.0,0.0,0.0,0.0,0.0,0.0,0.0,0.0,0.0,0.0,0.0,0.0,0.0,0.0,0.0,0.0,-3.5463,-3.6897,-3.7622,-3.768,-3.9182,-3.9218,-3.7594,-3.7614,0.0,0.0,0.0,0.0,0.0,0.0,0.0,0.0,0.0,0.0,0.0,0.0,0.0,0.0,0.0,0.0,0.0,0.0,0.0,0.0,0.0,0.0,0.0,0.0,0.0,0.0,0.0,-3.0703,0.0,0.0,0.0,0.0,0.0,0.0,0.0,0.0,0.0,0.0,0.0,0.0,0.0,0.0,-3.0907,-3.1695,-3.1985,-3.243,0.0,0.0,-3.3668,-3.3474,-3.2875,-3.23,0.0,0.0,0.0,0.0,0.0,0.0,0.0,0.0,0.0,0.0,0.0,0.0,0.0,0.0,0.0,0.0,0.0,0.0,0.0,0.0,0.0,0.0,0.0,0.0,0.0,0.0,0.0,0.0,0.0,0.0,0.0,0.0,0.0,0.0,0.0,0.0,0.0,0.0,0.0,0.0,0.0,0.0,0.0,0.0,0.0,0.0,0.0,0.0,0.0,0.0,0.0,0.0,0.0,0.0,-3.541,-3.5283,-3.6728,-3.749,-3.7476,-3.8931,-3.8954,-3.7394,-3.743,-3.6758,0.0,0.0,0.0,0.0,0.0,0.0,0.0,0.0,0.0,0.0,0.0,0.0,0.0,0.0,0.0,0.0,0.0,0.0,0.0,0.0,0.0,0.0,0.0,0.0,0.0,0.0,0.0,0.0,0.0,0.0,0.0,0.0,0.0,0.0,0.0,0.0,0.0,0.0,0.0,0.0,0.0,-3.0907,-3.1695,-3.2488,-3.332,0.0,-3.4988,-3.5245,-3.4427,-3.4258,-3.3673,-3.2063,0.0,0.0,0.0,0.0,0.0,0.0,0.0,0.0,0.0,0.0,0.0,0.0,0.0,0.0,0.0,0.0,0.0,0.0,0.0,0.0,0.0,0.0,0.0,0.0,0.0,0.0,0.0,0.0,0.0,0.0,0.0,0.0,0.0,0.0,0.0,0.0,0.0,0.0,0.0,0.0,0.0,0.0,0.0,0.0,0.0,0.0,0.0,0.0,0.0,0.0,0.0,0.0,0.0,-3.5269,-3.5164,-3.6673,-3.7409,-3.7394,-3.8886,-3.9165,-3.8066,-3.7652,-3.6919,0.0,0.0,0.0,0.0,0.0,0.0,0.0,0.0,0.0,0.0,0.0,0.0,0.0,0.0,0.0,0.0,0.0,0.0,0.0,0.0,0.0,0.0,0.0,0.0,0.0,0.0,0.0,0.0,-3.0613,-3.0604,-3.0606,0.0,0.0,0.0,0.0,0.0,0.0,0.0,0.0,0.0,0.0,-3.1043,-3.2406,-3.2894,0.0,0.0,-3.5491,-3.5593,-3.5264,-3.4292,-3.3383,-3.2701,-3.1753,0.0,0.0,0.0,0.0,0.0,0.0,0.0,0.0,0.0,0.0,0.0,0.0,0.0,0.0,0.0,0.0,0.0,0.0,0.0,0.0,0.0,0.0,0.0,0.0,0.0,0.0,0.0,0.0,0.0,0.0,0.0,0.0,0.0,0.0,0.0,0.0,0.0,0.0,0.0,0.0,0.0,0.0,0.0,0.0,0.0,0.0,0.0,0.0,0.0,0.0,0.0,0.0,-3.5126,-3.5029,-3.6527,-3.7265,-3.723,-3.8802,-3.923,-3.8425,-3.7931,-3.7205,0.0,0.0,0.0,0.0,0.0,0.0,0.0,0.0,0.0,0.0,0.0,0.0,0.0,0.0,0.0,0.0,0.0,0.0,0.0,0.0,0.0,0.0,0.0,0.0,0.0,0.0,0.0,0.0,-3.0615,-3.0621,-3.0602,0.0,0.0,0.0,0.0,0.0,0.0,0.0,0.0,0.0,0.0,-3.1128,-3.281,-3.3067,-3.3685,-3.5411,-3.5668,-3.5673,-3.5673,-3.4654,-3.3784,-3.3538,0.0,0.0,0.0,0.0,0.0,0.0,0.0,0.0,0.0,0.0,0.0,0.0,0.0,0.0,0.0,0.0,0.0,0.0,0.0,0.0,0.0,0.0,0.0,0.0,0.0,0.0,0.0,-3.5814,0.0,0.0,-3.5818,0.0,0.0,0.0,0.0,0.0,0.0,0.0,0.0,0.0,0.0,0.0,0.0,0.0,0.0,0.0,0.0,0.0,0.0,0.0,0.0,0.0,0.0,-3.5048,-3.4927,-3.6362,-3.7107,-3.7162,-3.8627,-3.9032,-3.8271,-3.8257,-3.7593,-3.6153,0.0,0.0,0.0,0.0,0.0,0.0,0.0,0.0,0.0,0.0,0.0,0.0,0.0,0.0,0.0,0.0,0.0,0.0,0.0,0.0,0.0,0.0,0.0,0.0,0.0,0.0,-3.0602,-3.0617,-3.0617,0.0,0.0,0.0,0.0,0.0,0.0,0.0,0.0,0.0,0.0,-3.0485,-3.1121,-3.2761,-3.2993,-3.3649,-3.5353,-3.5608,-3.5606,-3.5626,-3.559,-3.5361,0.0,0.0,0.0,0.0,0.0,0.0,0.0,0.0,0.0,0.0,0.0,0.0,0.0,0.0,0.0,0.0,0.0,0.0,0.0,0.0,0.0,0.0,0.0,0.0,0.0,0.0,0.0,-3.7392,-3.7411,0.0,0.0,0.0,0.0,0.0,0.0,0.0,0.0,0.0,0.0,0.0,-3.8073,-3.8575,0.0,0.0,0.0,0.0,0.0,0.0,0.0,0.0,0.0,0.0,0.0,0.0,-3.5135,-3.5528,-3.6562,-3.7326,-3.776,-3.8838,-3.9268,-3.9001,-3.854,-3.76,-3.6153,0.0,0.0,0.0,0.0,0.0,0.0,0.0,0.0,0.0,0.0,0.0,0.0,0.0,0.0,0.0,0.0,0.0,0.0,0.0,0.0,0.0,0.0,0.0,0.0,0.0,-3.0607,0.0,0.0,0.0,0.0,0.0,0.0,0.0,0.0,0.0,0.0,0.0,-3.0383,-3.0433,-3.0877,-3.1672,-3.2837,-3.3453,-3.4211,0.0,0.0,0.0,0.0,0.0,0.0,0.0,0.0,0.0,0.0,0.0,0.0,0.0,0.0,-3.3944,-3.2802,-3.2787,-3.2897,-3.2766,0.0,0.0,0.0,0.0,0.0,0.0,0.0,0.0,0.0,0.0,0.0,0.0,0.0,0.0,-3.817,0.0,-3.815,0.0,0.0,0.0,0.0,0.0,0.0,0.0,0.0,-3.9273,-3.9315,-3.8792,-3.9301,-3.905,0.0,-3.729,-3.6487,0.0,0.0,0.0,0.0,0.0,0.0,0.0,0.0,-3.5116,-3.5769,-3.6585,-3.7337,-3.8083,-3.8891,-3.9301,-3.9296,-3.8384,-3.7445,-3.6473,-3.5485,-3.501,0.0,0.0,0.0,0.0,0.0,0.0,0.0,0.0,0.0,0.0,0.0,0.0,0.0,0.0,0.0,0.0,0.0,0.0,0.0,0.0,0.0,0.0,0.0,-3.0583,0.0,0.0,0.0,0.0,0.0,0.0,0.0,0.0,0.0,-3.0322,-3.0286,-3.0395,-3.0714,-3.1213,-3.1987,-3.3186,0.0,0.0,0.0,0.0,0.0,0.0,0.0,-3.4756,-3.4756,-3.4499,-3.4441,-3.4731,-3.4769,-3.4962,-3.5521,0.0,0.0,-3.4539,-3.4461,-3.4568,-3.4418,-3.4704,-3.4917,-3.4807,-3.5133,-3.5379,0.0,0.0,0.0,0.0,0.0,0.0,0.0,0.0,-3.8195,-3.8234,0.0,-3.8234,0.0,0.0,0.0,0.0,-3.8039,-3.8775,0.0,0.0,-3.9896,-4.0252,-4.0167,-4.0177,-3.9719,-3.8832,-3.8004,-3.7167,-3.6281,-3.5503,0.0,0.0,0.0,0.0,0.0,0.0,-3.4963,-3.5745,-3.6441,-3.7199,-3.8024,-3.8733,-3.911,-3.9117,-3.781,-3.7075,-3.6993,-3.5649,-3.4898,-3.4973,-3.5168,0.0,0.0,0.0,0.0,0.0,0.0,0.0,0.0,0.0,0.0,0.0,0.0,0.0,0.0,0.0,0.0,0.0,0.0,0.0,0.0,-3.0491,0.0,0.0,0.0,0.0,0.0,0.0,0.0,0.0,0.0,0.0,-3.0341,-3.0294,-3.0529,-3.1343,0.0,0.0,0.0,0.0,-3.4452,-3.5271,-3.5475,-3.5541,-3.5547,-3.5631,-3.5688,-3.5688,0.0,0.0,-3.7912,-3.8047,-3.8028,-3.8144,-3.8097,-3.7851,-3.7082,-3.731,-3.7587,-3.7459,-3.7251,-3.7238,-3.7164,-3.685,-3.6825,-3.9517,0.0,0.0,0.0,0.0,-3.8796,-3.9149,-3.9753,-3.9753,-3.9733,-3.9733,-3.9753,0.0,0.0,0.0,0.0,0.0,0.0,-3.9842,-3.9786,-4.0043,-4.0118,-4.0058,-3.9998,-3.9792,-3.9418,-3.8634,-3.8048,-3.7653,-3.6284,-3.5366,-3.4878,0.0,0.0,0.0,0.0,-3.5184,-3.6404,-3.669,-3.7452,-3.8775,-3.8985,-3.885,-3.8359,-3.7399,-3.6639,-3.6126,-3.5187,-3.471,-3.478,-3.4983,0.0,0.0,0.0,0.0,0.0,0.0,0.0,0.0,0.0,0.0,0.0,0.0,0.0,0.0,0.0,0.0,0.0,0.0,0.0,-3.0495,-3.0455,-3.0449,0.0,0.0,0.0,0.0,0.0,0.0,0.0,0.0,0.0,-3.1817,-3.1363,-3.1291,0.0,0.0,-3.3398,-3.3945,-3.4546,-3.5059,-3.536,-3.5945,0.0,-3.636,-3.6894,-3.7312,-3.7312,-3.7497,-3.7747,-3.7978,-3.8036,-3.8421,-3.9564,-3.978,-4.0038,-4.0831,-3.9257,-3.7891,-3.7566,-3.739,-3.7252,-3.7099,-3.698,-3.6932,-3.9774,-3.9442,-3.9496,-3.9531,-3.955,-3.9593,-3.9908,-4.0407,-4.037,-4.0362,-4.0362,-4.0325,-4.0029,-3.9561,-4.0014,0.0,0.0,0.0,-4.003,-3.9939,-3.9946,-3.99,-3.9804,-3.977,-3.9682,-3.9549,-3.8724,-3.8288,-3.8159,-3.6458,-3.5423,-3.5012,0.0,0.0,-3.434,-3.434,-3.4963,-3.6166,-3.6525,-3.731,-3.8553,-3.8604,-3.8422,-3.796,-3.6888,-3.6124,-3.5676,-3.4986,-3.4623,-3.4636,-3.4518,-3.3854,0.0,0.0,0.0,0.0,0.0,0.0,0.0,0.0,0.0,0.0,0.0,-3.0465,-3.0465,0.0,0.0,0.0,-3.0425,-3.0419,-3.0466,-3.0389,0.0,0.0,0.0,0.0,0.0,0.0,0.0,-3.1973,-3.195,-3.2198,-3.2975,-3.2646,-3.248,-3.2959,-3.3494,-3.4001,-3.4369,0.0,-3.5814,-3.5875,-3.6627,-3.7187,-3.7204,-3.7661,-3.8123,-3.8469,-3.8796,-3.9142,-3.9469,-3.9777,-4.0373,-4.1227,-4.1535,-4.183,-4.2743,-4.1129,-3.9709,-3.9505,-3.9348,-3.918,-3.8971,-3.8901,-3.8811,-3.9878,-3.99,-4.008,-4.0158,-4.0196,-4.0326,-4.0381,-4.0362,-4.0326,-4.0289,-4.028,-4.0205,-4.0177,-4.0148,-4.0089,0.0,-3.9878,-3.9848,-3.9811,-3.9663,-3.967,-3.9611,-3.9458,-3.9477,-3.9439,-3.9344,-3.8557,-3.8137,-3.7997,-3.6408,-3.5551,-3.5467,-3.4797,-3.4344,-3.4111,-3.4086,-3.4487,-3.5285,-3.6029,-3.6828,-3.7669,-3.7774,-3.7764,-3.7703,-3.6323,-3.5559,-3.5466,-3.4828,-3.4478,-3.4459,-3.3834,-3.3147,-3.2414,0.0,0.0,0.0,0.0,0.0,0.0,0.0,0.0,0.0,0.0,0.0,0.0,0.0,0.0,0.0,-3.0331,0.0,-3.038,-3.0388,0.0,0.0,0.0,-3.0908,-3.1692,-3.1738,-3.2006,-3.2797,0.0,0.0,-3.398,-3.4033,-3.3992,-3.4007,-3.4002,-3.4302,-3.5082,-3.6003,-3.6637,-3.6696,-3.7437,-3.8032,-3.8096,-3.8219,-3.8642,-3.945,-4.0131,-4.0843,-4.1635,-4.2374,-4.2989,-4.3124,-4.3181,-4.3214,-4.3107,-4.2967,-4.2858,-4.2631,-4.2297,-4.2027,-4.1708,-4.1562,-4.1442,-3.958,-3.9611,-3.9762,-3.9905,-4.0039,-4.0138,-4.0186,-4.0167,-4.0157,-4.0109,-4.0078,-4.0039,-3.9967,-3.9799,-3.9815,-3.9717,-3.9599,-3.9599,-3.9526,-3.9383,-3.9401,-3.9305,-3.9192,-3.9192,-3.9151,-3.9087,-3.8892,-3.8757,-3.8645,-3.7655,-3.7119,-3.6989,-3.5684,-3.4676,-3.406,-3.4023,-3.4448,-3.5299,-3.5489,-3.5996,-3.6853,-3.6904,-3.6634,-3.6105,-3.5727,-3.5219,-3.4556,-3.3832,-3.3459,-3.3441,-3.2825,-3.2108,-3.1402,-3.1228,0.0,0.0,0.0,0.0,0.0,0.0,0.0,0.0,0.0,-3.033,-3.0324,0.0,-3.024,0.0,-3.0178,-3.0183,-3.0252,-3.0744,0.0,0.0,-3.1793,-3.2248,-3.2492,-3.253,-3.2809,-3.3635,-3.3685,-3.4211,-3.5639,-3.5747,-3.5958,-3.6623,-3.6184,-3.5878,-3.6158,-3.6916,-3.7518,-3.7655,-3.8331,-3.8912,-3.9038,-3.9515,-4.0181,-4.1085,-4.1373,-4.1797,-4.2643,-4.2951,-4.3278,-4.3874,-4.4008,-4.4205,-4.4681,-4.4777,-4.4637,-4.4353,-4.3225,-4.2128,-4.1884,-4.1833,-4.1777,-3.9324,-3.9337,-3.9477,-3.9587,-3.9724,-3.9941,-4.0015,-3.9996,-3.9994,-3.9933,-3.984,-3.9785,-3.9682,-3.9526,-3.9526,-3.9452,-3.9324,-3.9324,-3.9272,-3.9151,-3.917,-3.9115,-3.9021,-3.9003,-3.8993,-3.895,-3.8921,-3.8877,-3.8811,-3.8011,-3.7429,-3.7,-3.5754,-3.4701,-3.3944,-3.3908,-3.4147,-3.4639,-3.5053,-3.5665,-3.6463,-3.6234,-3.5866,-3.5459,-3.5126,-3.4525,-3.3677,-3.3301,-3.2926,-3.2583,-3.1877,-3.1295,-3.0931,-3.064,-3.0333,0.0,0.0,0.0,0.0,0.0,0.0,0.0,0.0,0.0,0.0,0.0,-3.0064,-3.0064,-3.0345,-3.0576,-3.0647,-3.1331,-3.1833,-3.1932,-3.2394,-3.2851,-3.3283,-3.3377,-3.3825,-3.5009,-3.5147,-3.5629,-3.6886,-3.7033,-3.7196,-3.7747,-3.7681,-3.747,-3.722,-3.7808,-3.8394,-3.8504,-3.9223,-3.9949,-4.0327,-4.0796,-4.1373,-4.22,-4.2681,-4.3085,-4.3547,-4.3951,-4.4382,-4.4759,-4.4883,-4.4963,-4.5352,-4.5419,-4.5317,-4.4954,-4.4139,-4.3353,-4.3057,-4.2946,-4.2874,-3.9027,-3.9059,-3.9192,-3.9245,-3.9285,-3.9654,-3.9823,-3.9837,-3.9792,-3.9735,-3.9628,-3.9526,-3.937,-3.9259,-3.9259,-3.9197,-3.9073,-3.9073,-3.905,-3.8964,-3.8964,-3.8935,-3.8862,-3.8881,-3.8881,-3.8881,-3.8822,-3.8777,-3.8773,-3.8018,-3.7239,-3.6431,-3.5587,-3.4766,-3.399,-3.3844,-3.3807,-3.3807,-3.4623,-3.5349,-3.6049,-3.5502,-3.5216,-3.5204,-3.455,-3.3826,-3.3039,-3.2955,-3.256,-3.1759,-3.0963,-3.0548,-3.0599,-3.0039,-2.9701,0.0,-2.9844,0.0,0.0,0.0,0.0,0.0,0.0,0.0,0.0,-3.0035,-3.0026,-3.0026,-3.0758,-3.124,-3.1312,-3.204,-3.2569,-3.2613,-3.2855,-3.3279,-3.402,-3.4271,-3.4955,-3.6404,-3.6688,-3.7079,-3.7904,-3.8046,-3.8065,-3.8334,-3.8851,-3.8958,-3.8405,-3.8824,-3.9317,-3.9365,-3.9999,-4.0688,-4.1442,-4.1739,-4.2085,-4.3047,-4.372,-4.4335,-4.4432,-4.5037,-4.5556,-4.5575,-4.5537,-4.5521,-4.5429,-4.5409,-4.5309,-4.5061,-4.4831,-4.46,-4.4406,-4.4237,-4.427,-3.871,-3.8725,-3.8888,-3.8979,-3.8993,-3.9165,-3.9376,-3.9575,-3.9563,-3.9502,-3.9376,-3.9285,-3.9183,-3.9064,-3.9064,-3.8989,-3.8935,-3.8935,-3.8892,-3.8851,-3.8833,-3.8792,-3.8735,-3.8735,-3.8753,-3.8735,-3.8738,-3.8704,-3.8704,-3.8542,-3.8065,-3.7272,-3.645,-3.5642,-3.4784,0.0,0.0,0.0,-3.3981,-3.4173,-3.4373,-3.4252,-3.4225,-3.434,-3.4185,0.0,-3.3027,-3.24,-3.1675,-3.0886,-3.0091,0.0,0.0,0.0,0.0,0.0,0.0,0.0,0.0,0.0,0.0,0.0,-3.033,-3.0443,-2.9918,-3.0367,-3.0706,-3.0744,-3.1371,-3.1849,-3.1928,-3.2718,-3.3248,-3.3346,-3.4008,-3.4584,-3.481,-3.5541,-3.6173,-3.6387,-3.7141,-3.7964,-3.8733,-3.8884,-3.9147,-3.9775,-4.0129,-4.0183,-3.9977,-4.0068,-4.0222,-4.0281,-4.0385,-4.0827,-4.1662,-4.1816,-4.2316,-4.3643,-4.4162,-4.4528,-4.5094,-4.5364,-4.5575,-4.5537,-4.5594,-4.554,-4.541,-4.5419,-4.5341,-4.5117,-4.4967,-4.4796,-4.457,-4.4401,-4.427,-3.886,-3.8525,-3.8667,-3.8713,0.0,-3.8811,-3.8923,-3.9059,-3.9245,-3.9264,-3.9142,-3.9073,-3.8993,-3.8892,-3.8892,-3.8866,-3.881,-3.8792,-3.878,-3.875,-3.875,-3.8735,-3.8707,-3.8707,-3.8707,-3.8707,-3.8707,-3.8707,-3.8707,-3.8707,-3.8285,-3.7511,-3.7107,-3.6468,-3.5628,-3.4802,-3.4211,-3.3807,-3.3807,-3.3802,-3.3842,-3.3881,-3.3947,-3.403,-3.4086,0.0,0.0,0.0,0.0,0.0,0.0,0.0,0.0,-2.9423,0.0,-2.952,-2.9904,-3.0158,-3.0206,-3.0551,-3.0803,-3.0774,-3.1065,-3.115,-3.0902,-3.1199,-3.1402,-3.147,-3.2118,-3.2555,-3.2647,-3.343,-3.3961,-3.4043,-3.4864,-3.5474,-3.5619,-3.6397,-3.7174,-3.7658,-3.8138,-3.8791,-3.9695,-3.978,-3.9948,-4.0399,-4.0495,-4.0503,-4.0489,-4.0492,-4.0492,-4.0496,-4.0496,-4.0804,-4.1596,-4.1816,-4.2192,-4.3374,-4.3701,-4.3874,-4.4278,-4.4355,-4.4355,-4.4393,-4.469,-4.4934,-4.4919,-4.5132,-4.5351,-4.5224,-4.5068,-4.4902,-4.4685,-4.4454,-4.427,-3.9172,-3.8569,-3.8485,-3.8462,-3.8478,-3.8541,-3.8554,-3.8585,-3.8917,0.0,0.0,-3.8877,-3.8837,-3.8743,-3.8777,-3.8765,-3.8707,-3.8707,-3.8707,-3.8707,-3.8707,-3.8707,-3.8707,-3.8707,-3.8707,-3.8707,-3.8707,-3.8707,-3.8707,-3.8707,-3.8303,-3.7566,-3.7511,-3.7088,-3.6303,-3.5591,-3.4821,-3.4045,-3.3862,-3.3807,-3.3807,-3.3842,-3.3908,-3.4004,-3.4036,-3.3414,-3.2027,-3.1982,-3.1296,-2.9885,-2.9774,-2.9792,-2.9792,-2.9787,-2.9808,-2.9826,-3.0464,-3.0849,-3.0868,-3.1466,-3.1898,-3.2058,-3.1955,-3.1911,-3.1938,-3.2006,-3.208,-3.2124,-3.2824,-3.3259,-3.3336,-3.4143,-3.4674,-3.4693,-3.5581,-3.6209,-3.6321,-3.7135,-3.8013,-3.8803,-3.9078,-3.9521,-4.0296,-4.0455,-4.0499,-4.05,-4.0489,-4.0496,-4.0496,-4.0489,-4.0489,-4.0496,-4.0496,-4.0804,-4.1566,-4.1816,-4.2154,-4.297,-4.3143,-4.3085,-4.3085,-4.3085,-4.3085,-4.3239,-4.3758,-4.4261,-4.4371,-4.4929,-4.5362,-4.5328,-4.5148,-4.4967,-4.4827,-4.4551,-4.4281,-3.9366,-3.9221,-3.8598,-3.834,-3.8338,-3.8401,-3.843,-3.8446,-3.8728,-3.8743,-3.8588,-3.8743,-3.8713,-3.8556,-3.8655,-3.8689,-3.8707,-3.8707,-3.8707,-3.8707,-3.8707,-3.8707,-3.8707,-3.8707,-3.8707,-3.8707,-3.8707,-3.8707,-3.8707,-3.8707,-3.8285,-3.7603,-3.7511,-3.7107,-3.6358,-3.6174,-3.5697,-3.4857,-3.4142,-3.3807,-3.3807,-3.382,-3.3842,-3.3908,-3.3921,-3.3554,-3.2693,-3.2656,-3.2231,-3.1344,-3.1288,-3.1307,-3.1288,-3.1251,-3.1288,-3.1288,-3.1422,-3.1459,-3.1478,-3.1577,-3.1947,-3.2594,-3.2656,-3.2379,-3.1737,-3.228,-3.2668,-3.2717,-3.3401,-3.387,-3.395,-3.4779,-3.5318,-3.5411,-3.6266,-3.6864,-3.6983,-3.7837,-3.8555,-3.8868,-3.9548,-4.008,-4.0341,-4.0458,-4.0499,-4.05,-4.0496,-4.0496,-4.0496,-4.0496,-4.0496,-4.0496,-4.0496,-4.0881,-4.1489,-4.1797,-4.2066,-4.2951,-4.297,-4.2893,-4.2874,-4.2874,-4.2874,-4.3028,-4.3643,-4.4165,-4.4255,-4.4957,-4.5333,-4.5319,-4.5192,-4.5033,-4.4833,-4.456,-4.4306,-4.0166,-3.9404,-3.9058,-3.864,-3.8259,-3.829,-3.8289,-3.8305,-3.8467,-3.8496,-3.8462,-3.8541,-3.8525,-3.8446,-3.853,-3.8562,-3.859,-3.8575,-3.8643,-3.8707,-3.8707,-3.8707,-3.8707,-3.8707,-3.8707,-3.8707,-3.8707,-3.8707,-3.8707,-3.8707,-3.8524,-3.8172,-3.8138,-3.7749,-3.7,-3.696,-3.6541,-3.5716,-3.4857,-3.4234,-3.3825,-3.3807,-3.3847,-3.3895,-3.3895,-3.3552,-3.2835,-3.2798,-3.2428,-3.1634,-3.1597,-3.1597,-3.1597,-3.1597,-3.1597,-3.1616,-3.201,-3.2244,-3.2262,-3.2613,-3.2999,-3.3292,-3.3329,-3.32,-3.2832,-3.3165,-3.3425,-3.3462,-3.3769,-3.4181,-3.4631,-3.5173,-3.5614,-3.6059,-3.6962,-3.7586,-3.779,-3.8541,-3.9211,-3.9402,-3.9811,-4.0196,-4.0325,-4.0396,-4.0474,-4.0492,-4.0496,-4.0496,-4.0496,-4.0496,-4.0496,-4.0496,-4.0496,-4.065,-4.1046,-4.1085,-4.1277,-4.1643,-4.1681,-4.1708,-4.1708,-4.17,-4.1728,-4.1785,-4.2728,-4.3538,-4.3686,-4.4669,-4.5256,-4.537,-4.5205,-4.5038,-4.4858,-4.4527,-4.4185,-4.1035,-3.993,-3.9731,-3.9188,-3.8462,-3.8281,-3.8209,-3.8209,-3.8257,-3.8305,-3.8352,-3.8382,-3.8382,-3.8385,-3.8382,-3.8449,-3.8478,-3.8478,-3.851,-3.8627,-3.8643,-3.8643,-3.8624,-3.8643,-3.8658,-3.8643,-3.8643,-3.8658,-3.8658,-3.8673,-3.8707,-3.8707,-3.8707,-3.8377,-3.7786,-3.7768,-3.7382,-3.6578,-3.5903,-3.5078,-3.4119,-3.4082,-3.4017,-3.3887,-3.3881,-3.3618,-3.3061,-3.3025,-3.273,-3.2158,-3.2103,-3.2103,-3.2103,-3.2103,-3.209,-3.2158,-3.2674,-3.3025,-3.3061,-3.3545,-3.3873,-3.382,-3.3807,-3.3807,-3.3807,-3.3842,-3.3913,-3.3952,-3.3908,-3.4244,-3.504,-3.5515,-3.5975,-3.6776,-3.7708,-3.8313,-3.8515,-3.9157,-3.967,-3.9867,-4.0026,-4.0157,-4.0299,-4.037,-4.043,-4.0492,-4.0496,-4.0496,-4.0496,-4.0496,-4.0496,-4.0496,-4.0496,-4.0516,-4.0496,-4.0535,-4.0554,-4.0496,-4.0554,-4.0669,-4.065,-4.0573,-4.0535,-4.0804,-4.1989,-4.2981,-4.3242,-4.4362,-4.5247,-4.539,-4.5267,-4.508,-4.4833,-4.4472,-4.4079,-4.1614,-4.1379,-4.0691,-3.9967,-3.9206,-3.8517,-3.8245,-3.8209,-3.8225,-3.8225,-3.8224,-3.8336,-3.8352,-3.8322,-3.8368,-3.8417,-3.8399,-3.8399,-3.8415,-3.843,-3.8494,-3.8478,-3.8449,-3.8494,-3.8478,-3.8465,-3.8478,-3.8525,-3.8544,-3.8643,-3.8707,-3.8707,-3.8707,-3.8652,-3.856,-3.856,-3.8175,-3.7419,-3.7309,-3.6486,-3.5004,-3.4894,-3.4546,-3.3839,-3.382,-3.3784,-3.3668,-3.3723,-3.3673,-3.36,-3.3558,-3.3576,-3.3576,-3.3595,-3.3582,-3.3558,-3.3668,-3.371,-3.3705,-3.3765,-3.382,-3.3807,-3.3807,-3.3807,-3.3807,-3.382,-3.382,-3.387,-3.3839,-3.4243,-3.4959,-3.5851,-3.6722,-3.753,-3.8437,-3.9144,-3.9244,-3.9471,-3.967,-3.9878,-4.0026,-4.0186,-4.0335,-4.0388,-4.043,-4.05,-4.0496,-4.0496,-4.0496,-4.0496,-4.0496,-4.0496,-4.0496,-4.0496,-4.0496,-4.0496,-4.0496,-4.0496,-4.0496,-4.0496,-4.0496,-4.0496,-4.0496,-4.0669,-4.192,-4.2981,-4.337,-4.4295,-4.54,-4.539,-4.5256,-4.5061,-4.4719,-4.4402,-4.4155,-4.214,-4.1669,-4.1343,-4.0492,-3.9423,-3.9043,-3.8644,-3.8227,-3.8209,-3.8209,-3.8209,-3.8256,-3.8256,-3.8241,-3.8274,-3.8305,-3.832,-3.832,-3.8368,-3.8399,-3.843,-3.843,-3.8417,-3.843,-3.8415,-3.838,-3.843,-3.8465,-3.8446,-3.8544,-3.8575,-3.8609,-3.8658,-3.8707,-3.8707,-3.8707,-3.8524,-3.823,-3.8212,-3.7643,-3.6597,-3.6009,-3.5371,-3.4601,-3.4509,-3.4284,-3.3862,-3.3807,-3.3807,-3.3807,-3.3807,-3.3807,-3.3807,-3.3807,-3.3807,-3.3807,-3.3807,-3.3807,-3.3807,-3.3807,-3.3807,-3.3807,-3.3807,-3.3807,-3.3807,-3.3807,-3.3972,-3.4449,-3.4491,-3.4853,-3.5754,-3.6676,-3.7567,-3.8373,-3.8943,-3.9264,-3.9433,-3.9545,-3.9677,-3.9878,-4.0026,-4.0157,-4.0298,-4.0402,-4.0468,-4.0489,-4.0496,-4.0496,-4.0496,-4.0496,-4.0496,-4.0496,-4.0496,-4.0496,-4.0496,-4.0496,-4.0496,-4.0496,-4.0496,-4.0496,-4.0496,-4.0496,-4.0496,-4.0516,-4.1989,-4.2972,-4.3007,-4.4277,-4.5429,-4.536,-4.5203,-4.4979,-4.4706,-4.4505,-4.4306,-4.2556,-4.2031,-4.1795,-4.1053,-4.0003,-3.9568,-3.9078,-3.8535,-3.8317,-3.8209,-3.8209,-3.8209,-3.8209,-3.8209,-3.8209,-3.8224,-3.8274,-3.8274,-3.8289,-3.8352,-3.8368,-3.8368,-3.8352,-3.8368,-3.8387,-3.8352,-3.8368,-3.8366,-3.8399,-3.8446,-3.8476,-3.8491,-3.859,-3.8658,-3.8707,-3.8707,-3.8707,-3.8689,-3.8707,-3.8395,-3.7823,-3.7257,-3.6435,-3.5481,-3.5353,-3.4949,-3.416,-3.4119,-3.4027,-3.3807,-3.3807,-3.3807,-3.3807,-3.3807,-3.3807,-3.3807,-3.3807,-3.3807,-3.3807,-3.3807,-3.3807,-3.3807,-3.3972,-3.4137,-3.4174,-3.4339,-3.4743,-3.5243,-3.5564,-3.6052,-3.6642,-3.7331,-3.809,-3.8939,-3.921,-3.9337,-3.9471,-3.9599,-3.9747,-3.9911,-4.0048,-4.0196,-4.0344,-4.0444,-4.0489,-4.0496,-4.0496,-4.0496,-4.0496,-4.0496,-4.0496,-4.0496,-4.0496,-4.0496,-4.0496,-4.0496,-4.0496,-4.0496,-4.0496,-4.0496,-4.0496,-4.0496,-4.0758,-4.1066,-4.2297,-4.3156,-4.3518,-4.4575,-4.539,-4.5309,-4.517,-4.4986,-4.4815,-4.4646,-4.4454,-4.2864,-4.2719,-4.2013,-4.165,-4.1469,-4.0075,-3.9405,-3.9278,-3.8571,-3.8227,-3.8263,-3.8209,-3.8209,-3.8209,-3.8209,-3.8209,-3.8209,-3.8209,-3.8207,-3.8224,-3.829,-3.8274,-3.8225,-3.8274,-3.8274,-3.8242,-3.829,-3.8338,-3.8382,-3.8399,-3.843,-3.8476,-3.851,-3.8593,-3.8658,-3.8692,-3.8707,-3.8673,-3.8707,-3.867,-3.8615,-3.856,-3.7771,-3.6468,-3.6248,-3.5826,-3.5023,-3.4931,-3.4582,-3.3844,-3.3807,-3.3807,-3.3807,-3.3807,-3.3807,-3.3807,-3.3807,-3.3807,-3.3807,-3.3862,-3.388,-3.3935,-3.4564,-3.4949,-3.5004,-3.5569,-3.6028,-3.6248,-3.6871,-3.7356,-3.7565,-3.7789,-3.8234,-3.9012,-3.935,-3.9477,-3.9514,-3.9747,-3.99,-4.0007,-4.0138,-4.029,-4.0449,-4.0484,-4.0489,-4.0496,-4.0496,-4.0496,-4.0496,-4.0496,-4.0496,-4.0496,-4.0496,-4.0496,-4.0496,-4.0496,-4.0496,-4.0496,-4.0496,-4.0496,-4.0496,-4.0593,-4.0989,-4.1538,-4.2442,-4.3274,-4.4018,-4.4624,-4.5139,-4.5277,-4.5192,-4.5045,-4.487,-4.4725,-4.4532,-4.2843,-4.2883,-4.2592,-4.2194,-4.165,-4.1089,-4.0582,-4.0057,-3.9297,-3.8952,-3.8879,-3.8444,-3.8209,-3.8209,-3.8209,-3.8209,-3.8209,-3.8209,-3.8209,-3.8209,-3.8225,-3.8225,-3.8209,-3.8207,-3.8224,-3.8209,-3.8224,-3.8241,-3.8256,-3.8305,-3.8354,-3.8368,-3.8417,-3.8446,-3.8515,-3.8544,-3.8575,-3.8575,-3.8658,-3.8707,-3.8692,-3.8707,-3.8395,-3.7863,-3.7331,-3.6413,-3.5041,-3.5004,-3.4619,-3.3844,-3.3807,-3.3807,-3.3807,-3.3807,-3.3807,-3.3807,-3.3807,-3.3807,-3.3862,-3.4284,-3.4564,-3.4619,-3.5367,-3.583,-3.5881,-3.6138,-3.6534,-3.7055,-3.736,-3.7819,-3.8442,-3.8619,-3.8821,-3.9262,-3.9477,-3.9611,-3.9747,-3.9889,-4.0007,-4.0138,-4.028,-4.0424,-4.0474,-4.0503,-4.0496,-4.0496,-4.0496,-4.0496,-4.0496,-4.0496,-4.0496,-4.0496,-4.0496,-4.0496,-4.0496,-4.0496,-4.0496,-4.0496,-4.0496,-4.0496,-4.0496,-4.0593,-4.0931,-4.1788,-4.2626,-4.3449,-4.4221,-4.4776,-4.5213,-4.5256,-4.517,-4.5091,-4.4919,-4.4783,-4.4632,-4.2842,-4.2882,-4.2919,-4.2574,-4.2067,-4.1813,-4.1397,-4.08,-4.0093,-3.9623,-3.9315,-3.8808,-3.8445,-3.8245,-3.8209,-3.8209,-3.8209,-3.8209,-3.8209,-3.8209,-3.8209,-3.8209,-3.8209,-3.8209,-3.8209,-3.8209,-3.8209,-3.8209,-3.8209,-3.8259,-3.8256,-3.8307,-3.8354,-3.8385,-3.8399,-3.8446,-3.8444,-3.8478,-3.8562,-3.8593,-3.8611,-3.8624,-3.8624,-3.8566,-3.8157,-3.7239,-3.5866,-3.5826,-3.5279,-3.4362,-3.4192,-3.4064,-3.3844,-3.3807,-3.3807,-3.3825,-3.4064,-3.4179,-3.4302,-3.4949,-3.5426,-3.5463,-3.6174,-3.6703,-3.6707,-3.6927,-3.7393,-3.7838,-3.804,-3.8413,-3.8934,-3.9192,-3.9311,-3.9489,-3.963,-3.9747,-3.9889,-3.9996,-4.0138,-4.0252,-4.0388,-4.0474,-4.0507,-4.0492,-4.0489,-4.0496,-4.0496,-4.0496,-4.0496,-4.0496,-4.0496,-4.0496,-4.0496,-4.0496,-4.0496,-4.0496,-4.0496,-4.0496,-4.0496,-4.0496,-4.0593,-4.0689,-4.1181,-4.2038,-4.2889,-4.3663,-4.4346,-4.4938,-4.5144,-4.5216,-4.5192,-4.5117,-4.4991,-4.487,-4.4693,-4.2842,-4.29,-4.2919,-4.2883,-4.2701,-4.2085,-4.1741,-4.1578,-4.0854,-4.0202,-3.9731,-3.9387,-3.8933,-3.839,-3.8263,-3.8209,-3.8209,-3.8209,-3.8209,-3.8209,-3.8209,-3.8209,-3.8209,-3.8209,-3.8209,-3.8209,-3.8209,-3.8209,-3.8209,-3.8209,-3.8242,-3.829,-3.8307,-3.8322,-3.8382,-3.8382,-3.8417,-3.8399,-3.8433,-3.8415,-3.8399,-3.8478,-3.8544,-3.8525,-3.8569,-3.823,-3.7456,-3.7382,-3.6578,-3.5243,-3.5023,-3.4637,-3.4137,-3.4027,-3.3917,-3.4137,-3.4619,-3.4986,-3.5114,-3.5807,-3.6303,-3.6395,-3.7052,-3.7511,-3.7603,-3.8098,-3.8533,-3.8641,-3.881,-3.9027,-3.9178,-3.9376,-3.9502,-3.952,-3.9735,-3.9889,-3.9943,-4.0068,-4.0234,-4.0353,-4.0438,-4.0487,-4.05,-4.0489,-4.0496,-4.0496,-4.0496,-4.0496,-4.0496,-4.0496,-4.0496,-4.0496,-4.0496,-4.0496,-4.0496,-4.0496,-4.0496,-4.0496,-4.0496,-4.0516,-4.07,-4.0873,-4.17,-4.2577,-4.3641,-4.4431,-4.4729,-4.5213,-4.5222,-4.5256,-4.5213,-4.5162,-4.5049,-4.4919,-4.4719,-4.2803,-4.286,-4.2881,-4.2919,-4.2901,-4.2629,-4.2538,-4.2429,-4.1687,-4.1198,-4.0836,-3.9858,-3.9242,-3.8934,-3.8499,-3.8209,-3.8209,-3.8209,-3.8209,-3.8209,-3.8209,-3.8209,-3.8209,-3.8209,-3.8209,-3.8209,-3.8209,-3.8209,-3.8209,-3.8209,-3.8225,-3.8224,-3.8242,-3.8241,-3.8274,-3.8323,-3.8322,-3.8338,-3.8366,-3.8399,-3.8399,-3.8462,-3.851,-3.851,-3.8624,-3.856,-3.8322,-3.7804,-3.7,-3.5954,-3.5899,-3.5771,-3.555,-3.5514,-3.5514,-3.555,-3.5734,-3.5899,-3.5991,-3.6633,-3.7125,-3.7254,-3.7863,-3.8267,-3.8337,-3.8584,-3.881,-3.8881,-3.8993,-3.9142,-3.9324,-3.9526,-3.9647,-3.9705,-3.9859,-4.0007,-4.0098,-4.0234,-4.0354,-4.0388,-4.0463,-4.0492,-4.0489,-4.0496,-4.0496,-4.0496,-4.0496,-4.0496,-4.0496,-4.0496,-4.0496,-4.0496,-4.0496,-4.0496,-4.0496,-4.0496,-4.0496,-4.0496,-4.0496,-4.0496,-4.07,-4.1412,-4.2239,-4.3233,-4.4295,-4.4882,-4.5197,-4.5298,-4.5288,-4.5277,-4.5256,-4.5192,-4.5114,-4.4943,-4.4776,-4.2743,-4.2803,-4.2842,-4.2881,-4.29,-4.2919,-4.2919,-4.2847,-4.2375,-4.1976,-4.1506,-4.0709,-3.9912,-3.9387,-3.8861,-3.848,-3.8245,-3.8209,-3.8209,-3.8209,-3.8209,-3.8209,-3.8209,-3.8209,-3.8209,-3.8209,-3.8209,-3.8209,-3.8209,-3.8209,-3.8209,-3.8209,-3.8209,-3.8209,-3.8209,-3.8242,-3.8257,-3.8274,-3.8305,-3.8338,-3.8336,-3.8385,-3.843,-3.8478,-3.8578,-3.8658,-3.8637,-3.8193,-3.7569,-3.6853,-3.6486,-3.6303,-3.6285,-3.6266,-3.6285,-3.634,-3.6574,-3.674,-3.6831,-3.7477,-3.7951,-3.8062,-3.8414,-3.867,-3.8704,-3.8747,-3.8837,-3.8935,-3.9106,-3.9264,-3.9408,-3.9635,-3.9792,-3.9859,-3.9996,-4.0118,-4.0225,-4.0326,-4.0415,-4.0422,-4.0468,-4.0481,-4.0496,-4.0496,-4.0496,-4.0496,-4.0496,-4.0496,-4.0496,-4.0496,-4.0496,-4.0496,-4.0496,-4.0496,-4.0496,-4.0496,-4.0496,-4.0496,-4.0496,-4.0496,-4.0593,-4.1777,-4.2769,-4.391,-4.4988,-4.5074,-4.5329,-4.5298,-4.5277,-4.5277,-4.5277,-4.5213,-4.5125,-4.501,-4.4827,-4.2606,-4.2764,-4.2783,-4.286,-4.2881,-4.2919,-4.2919,-4.2919,-4.2846,-4.2448,-4.1886,-4.1578,-4.0854,-3.9786,-3.9423,-3.8952,-3.839,-3.8209,-3.8209,-3.8209,-3.8209,-3.8209,-3.8209,-3.8209,-3.8209,-3.8209,-3.8209,-3.8209,-3.8209,-3.8209,-3.8209,-3.8209,-3.8209,-3.8209,-3.8209,-3.8209,-3.8209,-3.8209,-3.8209,-3.8207,-3.8207,-3.8272,-3.8354,-3.8417,-3.8512,-3.8593,-3.8655,-3.8597,-3.8285,-3.7584,-3.6964,-3.667,-3.6523,-3.6431,-3.6597,-3.6688,-3.7217,-3.7492,-3.7731,-3.8138,-3.8579,-3.8579,-3.8631,-3.8707,-3.8719,-3.8807,-3.8892,-3.8989,-3.9178,-3.9376,-3.9539,-3.9747,-3.9922,-4.0017,-4.0128,-4.0234,-4.0289,-4.0362,-4.0424,-4.0474,-4.0503,-4.0496,-4.0496,-4.0496,-4.0496,-4.0496,-4.0496,-4.0496,-4.0496,-4.0496,-4.0496,-4.0496,-4.0496,-4.0496,-4.0496,-4.0496,-4.0496,-4.0496,-4.0516,-4.0535,-4.0766,-4.197,-4.334,-4.4497,-4.5218,-4.5313,-4.5329,-4.5298,-4.5277,-4.5277,-4.5256,-4.5213,-4.5125,-4.4979,-4.4815,-4.2524,-4.2604,-4.2743,-4.2822,-4.2841,-4.2863,-4.2919,-4.2919,-4.2919,-4.2774,-4.2484,-4.1958,-4.1506,-4.0981,-3.9894,-3.926,-3.8989,-3.8464,-3.8209,-3.8209,-3.8209,-3.8209,-3.8209,-3.8209,-3.8209,-3.8209,-3.8209,-3.8209,-3.8209,-3.8209,-3.8209,-3.8209,-3.8209,-3.8209,-3.8209,-3.8209,-3.8209,-3.8209,-3.8209,-3.8209,-3.8225,-3.8322,-3.8366,-3.8417,-3.8562,-3.8658,-3.8707,-3.8707,-3.8652,-3.8414,-3.8212,-3.8065,-3.7973,-3.7973,-3.7918,-3.7991,-3.8175,-3.8358,-3.8395,-3.856,-3.8689,-3.8689,-3.875,-3.8795,-3.8777,-3.8921,-3.9017,-3.9115,-3.9298,-3.9514,-3.9647,-3.9848,-4.0038,-4.0177,-4.0263,-4.0281,-4.0307,-4.0362,-4.0424,-4.0474,-4.0484,-4.0489,-4.0496,-4.0496,-4.0496,-4.0496,-4.0496,-4.0496,-4.0496,-4.0496,-4.0496,-4.0496,-4.0496,-4.0496,-4.0496,-4.0496,-4.0496,-4.0496,-4.0516,-4.0573,-4.1085,-4.2047,-4.3534,-4.493,-4.5228,-4.537,-4.5329,-4.5277,-4.5277,-4.5277,-4.5246,-4.5192,-4.5084,-4.4955,-4.4776,-4.2445,-4.2503,-4.2647,-4.2745,-4.2803,-4.2881,-4.2919,-4.2919,-4.2919,-4.2919,-4.2792,-4.2429,-4.2012,-4.1596,-4.0782,-4.0166,-3.9786,-3.9043,-3.8735,-3.8627,-3.8372,-3.8227,-3.8209,-3.8209,-3.8209,-3.8209,-3.8209,-3.8209,-3.8209,-3.8209,-3.8209,-3.8209,-3.8209,-3.8209,-3.8209,-3.8209,-3.8209,-3.8209,-3.8209,-3.8225,-3.8241,-3.8322,-3.8385,-3.843,-3.8559,-3.8624,-3.8673,-3.8707,-3.8707,-3.8689,-3.8689,-3.8707,-3.8707,-3.8707,-3.8707,-3.8707,-3.8707,-3.8689,-3.8735,-3.875,-3.875,-3.8762,-3.8822,-3.8851,-3.8892,-3.9017,-3.9096,-3.9251,-3.9427,-3.9599,-3.9792,-3.9967,-4.0129,-4.0271,-4.0336,-4.0364,-4.0379,-4.0432,-4.0466,-4.0487,-4.0492,-4.0496,-4.0496,-4.0496,-4.0496,-4.0496,-4.0496,-4.0496,-4.0496,-4.0496,-4.0496,-4.0496,-4.0496,-4.0496,-4.0496,-4.0496,-4.0496,-4.0496,-4.0708,-4.0708,-4.1566,-4.2404,-4.3574,-4.4815,-4.517,-4.54,-4.5329,-4.5277,-4.5277,-4.5267,-4.5224,-4.5151,-4.5061,-4.4907,-4.4706,-4.2348,-4.2483,-4.255,-4.2667,-4.2783,-4.2843,-4.29,-4.2919,-4.2919,-4.2919,-4.2901,-4.2901,-4.2466,-4.1813,-4.1578,-4.1252,-4.0583,-3.9858,-3.9586,-3.9278,-3.8844,-3.8444,-3.8444,-3.8246,-3.8227,-3.8209,-3.8209,-3.8209,-3.8209,-3.8209,-3.8209,-3.8225,-3.8225,-3.8225,-3.8259,-3.8242,-3.8224,-3.8241,-3.8241,-3.8274,-3.8305,-3.8354,-3.8401,-3.8478,-3.8544,-3.8609,-3.8673,-3.8707,-3.8707,-3.8707,-3.8707,-3.8707,-3.8707,-3.8689,-3.8723,-3.8719,-3.8719,-3.8765,-3.8825,-3.8822,-3.8851,-3.8896,-3.8925,-3.8964,-3.9031,-3.9124,-3.9245,-3.9389,-3.9539,-3.9728,-3.9905,-4.0109,-4.0243,-4.0344,-4.0398,-4.0432,-4.0493,-4.0502,-4.0499,-4.0508,-4.0496,-4.0496,-4.0496,-4.0496,-4.0496,-4.0496,-4.0496,-4.0496,-4.0496,-4.0496,-4.0496,-4.0496,-4.0496,-4.0496,-4.0496,-4.0496,-4.0496,-4.0535,-4.0854,-4.1181,-4.2212,-4.3071,-4.3873,-4.4652,-4.517,-4.537,-4.5309,-4.5277,-4.5277,-4.5275,-4.5213,-4.5159,-4.508,-4.4858,-4.4672,-4.2325,-4.2366,-4.2486,-4.2568,-4.2667,-4.2783,-4.2861,-4.2919,-4.2919,-4.2919,-4.2919,-4.2919,-4.2792,-4.2556,-4.2031,-4.1578,-4.1361,-4.0655,-4.0257,-4.0184,-3.9478,-3.917,-3.8988,-3.8589,-3.8245,-3.8227,-3.8209,-3.8209,-3.8209,-3.8209,-3.8224,-3.8274,-3.8274,-3.8323,-3.8336,-3.8336,-3.8352,-3.8352,-3.8352,-3.8352,-3.8385,-3.8433,-3.8481,-3.851,-3.8609,-3.8658,-3.8692,-3.8707,-3.8707,-3.8707,-3.8707,-3.8689,-3.8704,-3.8732,-3.8762,-3.8792,-3.8822,-3.8866,-3.8896,-3.8939,-3.895,-3.8993,-3.9087,-3.917,-3.9232,-3.935,-3.9452,-3.9575,-3.9724,-3.9884,-4.007,-4.0215,-4.0325,-4.0424,-4.0458,-4.0482,-4.0495,-4.0507,-4.0495,-4.05,-4.0496,-4.0496,-4.0496,-4.0496,-4.0496,-4.0496,-4.0496,-4.0496,-4.0496,-4.0496,-4.0496,-4.0496,-4.0496,-4.0496,-4.0496,-4.0496,-4.0496,-4.065,-4.0989,-4.1566,-4.2615,-4.338,-4.4047,-4.4691,-4.5304,-4.5369,-4.5307,-4.5277,-4.5277,-4.5265,-4.5222,-4.5125,-4.4991,-4.4796,-4.46,-4.2308,-4.2325,-4.2463,-4.2546,-4.2627,-4.2727,-4.2842,-4.29,-4.2919,-4.2919,-4.2919,-4.2919,-4.2919,-4.2883,-4.2484,-4.2285,-4.2085,-4.1433,-4.0818,-4.0528,-4.0057,-3.993,-3.9749,-3.9134,-3.8608,-3.8317,-3.8209,-3.8209,-3.8209,-3.8224,-3.8274,-3.8307,-3.8338,-3.837,-3.8382,-3.8399,-3.8382,-3.8382,-3.8399,-3.8415,-3.8462,-3.846,-3.8559,-3.8575,-3.8658,-3.8707,-3.8707,-3.8707,-3.8707,-3.8689,-3.8719,-3.875,-3.875,-3.8795,-3.8818,-3.8877,-3.8906,-3.8993,-3.9036,-3.9101,-3.9175,-3.9183,-3.929,-3.9382,-3.9439,-3.9539,-3.9635,-3.9747,-3.9878,-4.0008,-4.0187,-4.0325,-4.0413,-4.0466,-4.0507,-4.0503,-4.05,-4.0492,-4.0503,-4.0489,-4.0496,-4.0496,-4.0496,-4.0496,-4.0496,-4.0496,-4.0496,-4.0496,-4.0496,-4.0496,-4.0496,-4.0496,-4.0496,-4.0496,-4.0496,-4.0496,-4.0496,-4.0758,-4.1181,-4.1893,-4.2835,-4.3468,-4.4048,-4.4739,-4.539,-4.5359,-4.5307,-4.5307,-4.5286,-4.5243,-4.5159,-4.508,-4.4931,-4.4745,-4.4527,-4.2308,-4.2308,-4.2407,-4.2526,-4.2609,-4.2707,-4.2823,-4.29,-4.2919,-4.2919,-4.2919,-4.2919,-4.2919,-4.2901,-4.2883,-4.2901,-4.2683,-4.2285,-4.1596,-4.1162,-4.0836,-4.0709,-4.0492,-3.993,-3.9297,-3.8589,-3.8299,-3.8227,-3.8225,-3.8276,-3.8307,-3.8322,-3.8385,-3.8449,-3.8449,-3.8449,-3.8483,-3.8481,-3.8481,-3.8496,-3.8544,-3.8541,-3.8609,-3.8658,-3.8673,-3.8707,-3.8707,-3.8707,-3.8707,-3.8689,-3.8762,-3.8807,-3.8837,-3.8833,-3.8877,-3.9026,-3.9031,-3.9147,-3.9224,-3.9298,-3.9376,-3.9439,-3.9514,-3.9587,-3.9647,-3.9717,-3.9804,-3.9911,-4.0007,-4.009,-4.0243,-4.0379,-4.0474,-4.0499,-4.0492,-4.0489,-4.0496,-4.0496,-4.0496,-4.0496,-4.0496,-4.0496,-4.0496,-4.0496,-4.0496,-4.0496,-4.0496,-4.0496,-4.0496,-4.0496,-4.0496,-4.0496,-4.0496,-4.0496,-4.0496,-4.0593,-4.0573,-4.1123,-4.1527,-4.2374,-4.3239,-4.3995,-4.4652,-4.4959,-4.538,-4.5338,-4.5307,-4.5297,-4.5275,-4.5222,-4.5125,-4.5033,-4.487,-4.4706,-4.4472,-4.2308,-4.2308,-4.2308,-4.243,-4.2589,-4.2629,-4.2746,-4.29,-4.2919,-4.2919,-4.2919,-4.2919,-4.2919,-4.2919,-4.2919,-4.2919,-4.2828,-4.2611,-4.2502,-4.2194,-4.1814,-4.1506,-4.1343,-4.0691,-4.022,-3.9804,-3.9043,-3.8408,-3.8316,-3.8276,-3.8338,-3.8385,-3.8446,-3.8528,-3.8593,-3.8643,-3.8627,-3.8611,-3.8627,-3.8643,-3.8643,-3.8658,-3.8658,-3.8707,-3.8707,-3.8707,-3.8707,-3.8707,-3.8707,-3.8707,-3.8747,-3.8866,-3.895,-3.9003,-3.9059,-3.9129,-3.9219,-3.933,-3.9389,-3.9496,-3.9575,-3.9647,-3.9724,-3.9804,-3.9881,-3.9943,-3.9986,-4.0048,-4.0138,-4.0252,-4.0432,-4.0474,-4.0499,-4.0511,-4.0596,-4.065,-4.065,-4.0708,-4.0766,-4.0881,-4.0727,-4.0496,-4.0496,-4.0496,-4.0496,-4.0496,-4.0496,-4.0496,-4.0496,-4.0496,-4.0496,-4.0496,-4.0496,-4.0496,-4.0496,-4.0631,-4.0785,-4.1585,-4.22,-4.3047,-4.3904,-4.4753,-4.5303,-4.5371,-4.538,-4.5338,-4.5307,-4.5307,-4.5254,-4.5211,-4.5091,-4.4986,-4.4796,-4.46,-4.4374,-4.2308,-4.2308,-4.2308,-4.2409,-4.2571,-4.2609,-4.2709,-4.29,-4.2919,-4.2919,-4.2919,-4.2919,-4.2919,-4.2919,-4.2919,-4.2919,-4.2919,-4.2919,-4.2919,-4.2774,-4.2502,-4.2321,-4.2212,-4.1488,-4.1198,-4.0818,-3.9967,-3.915,-3.8839,-3.8503,-3.8458,-3.8481,-3.8544,-3.8624,-3.8673,-3.8692,-3.8707,-3.8707,-3.8707,-3.8707,-3.8707,-3.8707,-3.8707,-3.8707,-3.8707,-3.8707,-3.8707,-3.8707,-3.8723,-3.8765,-3.8807,-3.8906,-3.9031,-3.9151,-3.9259,-3.9311,-3.9401,-3.9502,-3.9606,-3.9712,-3.9781,-3.9848,-3.9922,-3.9994,-4.0046,-4.0087,-4.0118,-4.0196,-4.0299,-4.0388,-4.0493,-4.0526,-4.0704,-4.1077,-4.1181,-4.1393,-4.1681,-4.1766,-4.1708,-4.1527,-4.1073,-4.0766,-4.0496,-4.0496,-4.0496,-4.0496,-4.0554,-4.0612,-4.0689,-4.0746,-4.0862,-4.0823,-4.0881,-4.0881,-4.0969,-4.1162,-4.1381,-4.2104,-4.2816,-4.3662,-4.4308,-4.5051,-4.535,-4.5438,-4.54,-4.5359,-4.5317,-4.5307,-4.5243,-4.5189,-4.5068,-4.4931,-4.47,-4.4486,-4.4258,-4.2308,-4.2308,-4.2308,-4.243,-4.2589,-4.2609,-4.2709,-4.2881,-4.2919,-4.2919,-4.2919,-4.2919,-4.2919,-4.2919,-4.2919,-4.2919,-4.2919,-4.2919,-4.2919,-4.2901,-4.2865,-4.2883,-4.2683,-4.2375,-4.194,-4.1814,-4.1125,-4.0418,-3.9689,-3.9062,-3.8759,-3.8784,-3.8826,-3.8707,-3.8707,-3.8707,-3.8707,-3.8707,-3.8707,-3.8707,-3.8707,-3.8707,-3.8707,-3.8707,-3.8707,-3.8707,-3.8707,-3.8707,-3.8735,-3.8792,-3.8866,-3.8964,-3.9115,-3.9304,-3.9439,-3.952,-3.9575,-3.967,-3.9792,-3.99,-3.9954,-4.0017,-4.0087,-4.0127,-4.0157,-4.0186,-4.0244,-4.0344,-4.0424,-4.0655,-4.0825,-4.0819,-4.1231,-4.1816,-4.2104,-4.2258,-4.2662,-4.2797,-4.272,-4.2297,-4.1546,-4.1362,-4.1439,-4.1431,-4.1623,-4.1623,-4.1681,-4.1631,-4.167,-4.1527,-4.1527,-4.1393,-4.1354,-4.1381,-4.1546,-4.1931,-4.2258,-4.2835,-4.3451,-4.4162,-4.4673,-4.5175,-4.5349,-4.5495,-4.5477,-4.5429,-4.5369,-4.5326,-4.5265,-4.517,-4.5049,-4.4883,-4.4667,-4.4416,-4.417,-4.2308,-4.2308,-4.2308,-4.243,-4.2589,-4.2609,-4.2709,-4.29,-4.2919,-4.2919,-4.2919,-4.2919,-4.2919,-4.2919,-4.2919,-4.2919,-4.2919,-4.2919,-4.2919,-4.2919,-4.2919,-4.2919,-4.2919,-4.2828,-4.2629,-4.2521,-4.1996,-4.1324,-4.065,-3.9899,-3.9544,-3.9552,-3.9082,-3.8744,-3.8872,-3.8762,-3.8707,-3.8707,-3.8707,-3.8707,-3.8707,-3.8707,-3.8707,-3.8707,-3.8707,-3.8707,-3.8707,-3.8707,-3.8735,-3.8807,-3.8848,-3.8993,-3.9188,-3.933,-3.9545,-3.9701,-3.9834,-3.9889,-3.9975,-4.0036,-4.0106,-4.0138,-4.0186,-4.0215,-4.0244,-4.0291,-4.0354,-4.0477,-4.054,-4.096,-4.1484,-4.1635,-4.2124,-4.2585,-4.2951,-4.3008,-4.3278,-4.3797,-4.372,-4.3566,-4.297,-4.2893,-4.2893,-4.2854,-4.2835,-4.2816,-4.2758,-4.2681,-4.2547,-4.2316,-4.2239,-4.2124,-4.2066,-4.2066,-4.222,-4.2585,-4.3008,-4.3566,-4.4124,-4.4652,-4.5009,-4.5365,-4.5425,-4.5532,-4.5495,-4.5467,-4.5429,-4.5359,-4.5297,-4.517,-4.5026,-4.4846,-4.4646,-4.4378,-4.4079,-4.2308,-4.2308,-4.2308,-4.243,-4.2571,-4.2609,-4.2709,-4.2881,-4.2919,-4.2919,-4.2919,-4.2919,-4.2919,-4.2919,-4.2919,-4.2919,-4.2919,-4.2919,-4.2919,-4.2919,-4.2919,-4.2919,-4.2919,-4.2901,-4.2919,-4.2847,-4.2722,-4.2559,-4.1812,-4.1024,-4.0451,-4.0388,-3.9795,-3.9405,-3.9313,-3.8927,-3.8762,-3.8707,-3.8707,-3.8707,-3.8707,-3.8707,-3.8707,-3.8707,-3.8707,-3.8707,-3.8707,-3.8707,-3.875,-3.8837,-3.8877,-3.9021,-3.9275,-3.9439,-3.9575,-3.9834,-3.9973,-4.0046,-4.0098,-4.0166,-4.0224,-4.0263,-4.0282,-4.0263,-4.0309,-4.0431,-4.0713,-4.1154,-4.1218,-4.1657,-4.2308,-4.2527,-4.3028,-4.347,-4.3778,-4.4085,-4.4239,-4.447,-4.4682,-4.4566,-4.4432,-4.4259,-4.397,-4.3605,-4.3412,-4.3316,-4.3258,-4.3162,-4.3028,-4.2835,-4.2816,-4.2874,-4.2854,-4.2874,-4.3047,-4.3316,-4.3662,-4.4162,-4.4729,-4.5171,-4.5364,-4.5566,-4.5568,-4.5568,-4.5559,-4.5514,-4.5458,-4.539,-4.5309,-4.517,-4.4991,-4.4796,-4.4605,-4.4277,-4.3971,-4.2308,-4.2308,-4.2308,-4.2409,-4.2589,-4.2609,-4.2727,-4.29,-4.2919,-4.2919,-4.2919,-4.2919,-4.2919,-4.2919,-4.2919,-4.2919,-4.2919,-4.2919,-4.2919,-4.2919,-4.2919,-4.2919,-4.2919,-4.2919,-4.2919,-4.2938,-4.3014,-4.3014,-4.283,-4.2278,-4.1632,-4.137,-4.0579,-4.0249,-4.0047,-3.9753,-3.9441,-3.9093,-3.8836,-3.8707,-3.8707,-3.8707,-3.8707,-3.8707,-3.8707,-3.8707,-3.8707,-3.8707,-3.8765,-3.8866,-3.8906,-3.9082,-3.9346,-3.9471,-3.9842,-4.02,-4.0471,-4.0746,-4.0834,-4.0864,-4.0607,-4.0635,-4.0883,-4.117,-4.1129,-4.1031,-4.1208,-4.2036,-4.208,-4.2577,-4.3162,-4.3393,-4.3855,-4.4278,-4.4643,-4.5094,-4.5364,-4.5248,-4.521,-4.5133,-4.5094,-4.5267,-4.4883,-4.4286,-4.397,-4.3835,-4.3739,-4.3682,-4.3643,-4.3605,-4.3758,-4.3951,-4.3989,-4.4008,-4.4105,-4.4297,-4.4547,-4.469,-4.5248,-4.5518,-4.5575,-4.5594,-4.5586,-4.5586,-4.5594,-4.5541,-4.5467,-4.5409,-4.5339,-4.5192,-4.5003,-4.4783,-4.4532,-4.4203,-4.3894,-4.2308,-4.2308,-4.2308,-4.2412,-4.2609,-4.2609,-4.2709,-4.29,-4.2919,-4.2919,-4.2919,-4.2919,-4.2919,-4.2919,-4.2919,-4.2919,-4.2919,-4.2919,-4.2919,-4.2919,-4.2919,-4.2919,-4.2919,-4.2919,-4.2975,-4.3068,-4.3142,-4.3233,-4.3322,-4.319,-4.2691,-4.2213,-4.1405,-4.113,-4.0928,-4.0673,-4.0267,-3.9827,-3.935,-3.9001,-3.8964,-3.8946,-3.8946,-3.8872,-3.8799,-3.8726,-3.8726,-3.8891,-3.8967,-3.9099,-3.9283,-3.9477,-3.9816,-3.994,-4.0398,-4.0942,-4.1225,-4.1596,-4.1914,-4.1705,-4.1457,-4.1628,-4.1944,-4.2298,-4.2257,-4.2563,-4.2818,-4.2906,-4.2981,-4.3412,-4.3932,-4.4316,-4.4652,-4.494,-4.5171,-4.5306,-4.5518,-4.5518,-4.5498,-4.5556,-4.5594,-4.5594,-4.5594,-4.494,-4.4767,-4.4643,-4.4682,-4.4652,-4.4825,-4.4844,-4.5017,-4.5171,-4.5229,-4.5267,-4.5306,-4.5344,-4.5152,-4.5114,-4.5421,-4.5556,-4.5594,-4.5594,-4.5594,-4.5594,-4.5586,-4.5513,-4.5467,-4.5419,-4.5341,-4.5213,-4.5033,-4.477,-4.4449,-4.4101,-4.3832,-4.2308,-4.2308,-4.2387,-4.2488,-4.2609,-4.2686,-4.2785,-4.29,-4.2919,-4.2919,-4.2919,-4.2919,-4.2919,-4.2919,-4.2919,-4.2919,-4.2919,-4.2919,-4.2919,-4.2919,-4.2919,-4.2919,-4.2919,-4.2919,-4.2975,-4.3086,-4.3178,-4.3269,-4.3394,-4.3463,-4.3387,-4.2837,-4.2194,-4.1956,-4.1772,-4.1407,-4.093,-4.0726,-4.0359,-4.0159,-4.0194,-4.0175,-4.0178,-4.0178,-4.0175,-3.9863,-3.9625,-3.9974,-3.9884,-3.9877,-4.0185,-4.0481,-4.0721,-4.0904,-4.134,-4.1897,-4.2083,-4.2425,-4.2755,-4.2545,-4.2316,-4.2335,-4.2613,-4.29,-4.309,-4.2974,-4.3307,-4.3551,-4.3855,-4.422,-4.4902,-4.5094,-4.5267,-4.5498,-4.5594,-4.5594,-4.5594,-4.5594,-4.5594,-4.5594,-4.5594,-4.5594,-4.5594,-4.5537,-4.5498,-4.5498,-4.5556,-4.5594,-4.5594,-4.5594,-4.5594,-4.5594,-4.5594,-4.5594,-4.5594,-4.5594,-4.5594,-4.5594,-4.5594,-4.5594,-4.5594,-4.5594,-4.5594,-4.5594,-4.5586,-4.5531,-4.5485,-4.5429,-4.5331,-4.5203,-4.4967,-4.47,-4.4378,-4.4011,-4.3767,-4.2328,-4.2366,-4.2486,-4.2548,-4.2609,-4.2745,-4.2842,-4.29,-4.2919,-4.2919,-4.2919,-4.2919,-4.2919,-4.2919,-4.2919,-4.2919,-4.2919,-4.2919,-4.2919,-4.2919,-4.2919,-4.2919,-4.2919,-4.2957,-4.3031,-4.3123,-4.3233,-4.334,-4.3446,-4.348,-4.3442,-4.3259,-4.2983,-4.2727,-4.247,-4.1919,-4.1444,-4.1442,-4.1187,-4.1132,-4.104,-4.1022,-4.1003,-4.0985,-4.093,-4.0747,-4.0469,-4.0634,-4.0733,-4.076,-4.1022,-4.1533,-4.1814,-4.2083,-4.2384,-4.2731,-4.2987,-4.313,-4.3394,-4.3252,-4.331,-4.3596,-4.3634,-4.3713,-4.3627,-4.3646,-4.4181,-4.4558,-4.4729,-4.494,-4.5594,-4.5498,-4.5479,-4.5594,-4.5594,-4.5594,-4.5594,-4.5594,-4.5594,-4.5594,-4.5594,-4.5594,-4.5594,-4.5594,-4.5594,-4.5594,-4.5594,-4.5594,-4.5594,-4.5594,-4.5594,-4.5594,-4.5594,-4.5594,-4.5594,-4.5594,-4.5594,-4.5594,-4.5594,-4.5594,-4.5594,-4.5594,-4.5594,-4.5594,-4.5577,-4.554,-4.5485,-4.5419,-4.53,-4.5181,-4.4907,-4.46,-4.4273,-4.3947,-4.3751,-4.2384,-4.2503,-4.2568,-4.2589,-4.2629,-4.2745,-4.2842,-4.29,-4.2919,-4.2919,-4.2919,-4.2919,-4.2919,-4.2919,-4.2919,-4.2919,-4.2919,-4.2919,-4.2919,-4.2919,-4.2919,-4.2919,-4.2957,-4.3012,-4.3123,-4.3214,-4.3304,-4.3393,-4.348,-4.3497,-4.3479,-4.3479,-4.3332,-4.3296,-4.3332,-4.2671,-4.2304,-4.2194,-4.1572,-4.1425,-4.1425,-4.1462,-4.1499,-4.1517,-4.1535,-4.146,-4.1224,-4.1422,-4.1503,-4.1459,-4.1757,-4.2116,-4.2323,-4.2479,-4.2943,-4.3692,-4.3835,-4.4274,-4.498,-4.4369,-4.438,-4.4772,-4.4676,-4.4833,-4.5132,-4.5227,-4.5102,-4.5231,-4.5364,-4.5441,-4.5594,-4.5594,-4.5594,-4.5594,-4.5594,-4.5594,-4.5594,-4.5594,-4.5594,-4.5594,-4.5594,-4.5594,-4.5594,-4.5594,-4.5594,-4.5594,-4.5594,-4.5594,-4.5594,-4.5594,-4.5594,-4.5594,-4.5594,-4.5594,-4.5594,-4.5594,-4.5594,-4.5594,-4.5594,-4.5594,-4.5594,-4.5594,-4.5594,-4.5594,-4.5577,-4.554,-4.5467,-4.538,-4.5216,-4.5014,-4.4751,-4.444,-4.4131,-4.3881,-4.3718,-4.2366,-4.2503,-4.255,-4.2649,-4.2745,-4.2805,-4.2881,-4.2919,-4.2919,-4.2919,-4.2919,-4.2919,-4.2919,-4.2919,-4.2919,-4.2919,-4.2919,-4.2919,-4.2919,-4.2919,-4.2919,-4.2957,-4.3012,-4.3086,-4.3196,-4.3305,-4.3394,-4.3428,-4.3479,-4.3479,-4.3479,-4.3479,-4.3479,-4.3479,-4.346,-4.3184,-4.3111,-4.3075,-4.2837,-4.2708,-4.2671,-4.2635,-4.2616,-4.2598,-4.2561,-4.2358,-4.1991,-4.2299,-4.2417,-4.2319,-4.2637,-4.3177,-4.3427,-4.3641,-4.4063,-4.457,-4.4717,-4.4897,-4.5229,-4.4972,-4.4991,-4.5231,-4.5338,-4.536,-4.5419,-4.5457,-4.5513,-4.5568,-4.5594,-4.5594,-4.5594,-4.5594,-4.5594,-4.5594,-4.5594,-4.5594,-4.5594,-4.5594,-4.5594,-4.5594,-4.5594,-4.5594,-4.5594,-4.5594,-4.5594,-4.5594,-4.5594,-4.5594,-4.5594,-4.5594,-4.5594,-4.5594,-4.5594,-4.5594,-4.5594,-4.5594,-4.5594,-4.5594,-4.5594,-4.5594,-4.5594,-4.5594,-4.5594,-4.5594,-4.5586,-4.5559,-4.5419,-4.5269,-4.5042,-4.4833,-4.4578,-4.4325,-4.4039,-4.3849,-4.3736,-4.2407,-4.2528,-4.257,-4.2688,-4.2823,-4.2881,-4.2919,-4.2919,-4.2919,-4.2919,-4.2919,-4.2919,-4.2919,-4.2919,-4.2919,-4.2919,-4.2919,-4.2919,-4.2919,-4.2919,-4.2957,-4.3012,-4.3068,-4.3178,-4.3287,-4.3394,-4.3429,-4.3481,-4.3479,-4.3479,-4.3479,-4.3479,-4.3479,-4.3479,-4.3478,-4.346,-4.3441,-4.3387,-4.3277,-4.3314,-4.3332,-4.3386,-4.344,-4.3439,-4.3384,-4.3272,-4.3122,-4.3227,-4.3513,-4.3378,-4.3676,-4.4277,-4.4524,-4.4725,-4.4926,-4.5068,-4.5181,-4.5235,-4.5277,-4.5277,-4.522,-4.5277,-4.5357,-4.5389,-4.539,-4.5429,-4.5523,-4.5568,-4.5586,-4.5594,-4.5594,-4.5594,-4.5594,-4.5594,-4.5594,-4.5594,-4.5594,-4.5594,-4.5594,-4.5594,-4.5594,-4.5594,-4.5594,-4.5594,-4.5594,-4.5594,-4.5594,-4.5594,-4.5594,-4.5594,-4.5594,-4.5594,-4.5594,-4.5594,-4.5594,-4.5594,-4.5594,-4.5594,-4.5594,-4.5594,-4.5594,-4.5594,-4.5594,-4.5586,-4.5559,-4.5485,-4.533,-4.5143,-4.4943,-4.4687,-4.443,-4.4188,-4.3945,-4.38,-4.3703,-4.243,-4.2589,-4.2609,-4.2709,-4.29,-4.2919,-4.2919,-4.2919,-4.2919,-4.2919,-4.2919,-4.2919,-4.2919,-4.2919,-4.2919,-4.2919,-4.2919,-4.2919,-4.2919,-4.2956,-4.303,-4.3086,-4.3178,-4.3287,-4.3358,-4.3411,-4.3464,-4.348,-4.3479,-4.3479,-4.3479,-4.3479,-4.3479,-4.3479,-4.3479,-4.3479,-4.3479,-4.3479,-4.3479,-4.3496,-4.3513,-4.3513,-4.3566,-4.36,-4.3597,-4.3647,-4.3588,-4.3728,-4.3825,-4.3912,-4.4136,-4.436,-4.4573,-4.4783,-4.4943,-4.5103,-4.5235,-4.5267,-4.5277,-4.5277,-4.5277,-4.5277,-4.5307,-4.533,-4.5371,-4.5429,-4.5504,-4.5568,-4.5594,-4.5594,-4.5594,-4.5594,-4.5594,-4.5594,-4.5594,-4.5594,-4.5594,-4.5594,-4.5594,-4.5594,-4.5594,-4.5594,-4.5594,-4.5594,-4.5594,-4.5594,-4.5594,-4.5594,-4.5594,-4.5594,-4.5594,-4.5594,-4.5594,-4.5594,-4.5594,-4.5594,-4.5594,-4.5594,-4.5594,-4.5594,-4.5594,-4.5594,-4.5594,-4.5577,-4.5541,-4.5419,-4.5248,-4.5049,-4.4808,-4.456,-4.4306,-4.4097,-4.3865,-4.3734,-4.3617,-4.2506,-4.2609,-4.2706,-4.2804,-4.2882,-4.2919,-4.2919,-4.2919,-4.2919,-4.2919,-4.2919,-4.2919,-4.2919,-4.2919,-4.2919,-4.2919,-4.2919,-4.2919,-4.2975,-4.303,-4.3104,-4.3196,-4.3287,-4.3358,-4.3429,-4.3445,-4.3497,-4.3479,-4.3479,-4.3479,-4.3479,-4.3479,-4.3479,-4.3479,-4.3479,-4.3479,-4.3479,-4.3496,-4.3496,-4.3513,-4.3548,-4.3565,-4.3651,-4.3719,-4.3753,-4.3802,-4.3865,-4.3929,-4.402,-4.4155,-4.4321,-4.451,-4.4672,-4.4858,-4.5045,-4.5233,-4.5286,-4.5277,-4.5277,-4.5277,-4.5277,-4.5277,-4.5277,-4.533,-4.5381,-4.5438,-4.5504,-4.5568,-4.5594,-4.5594,-4.5594,-4.5594,-4.5594,-4.5594,-4.5594,-4.5594,-4.5594,-4.5594,-4.5594,-4.5594,-4.5594,-4.5594,-4.5594,-4.5594,-4.5594,-4.5594,-4.5594,-4.5594,-4.5594,-4.5594,-4.5594,-4.5594,-4.5594,-4.5594,-4.5594,-4.5594,-4.5594,-4.5594,-4.5594,-4.5594,-4.5594,-4.5594,-4.5594,-4.555,-4.5467,-4.5339,-4.517,-4.495,-4.4712,-4.4468,-4.4207,-4.4008,-4.3835,-4.3684,-4.3583,-4.2566,-4.2686,-4.2764,-4.2842,-4.29,-4.2919,-4.2919,-4.2919,-4.2919,-4.2919,-4.2919,-4.2919,-4.2919,-4.2919,-4.2919,-4.2919,-4.2919,-4.2975,-4.303,-4.3068,-4.3178,-4.3287,-4.3376,-4.3429,-4.3464,-4.3497,-4.3479,-4.3479,-4.3479,-4.3479,-4.3479,-4.3479,-4.3479,-4.3479,-4.3479,-4.3479,-4.3479,-4.3496,-4.3532,-4.3566,-4.3617,-4.3649,-4.3769,-4.3849,-4.3883,-4.3945,-4.4039,-4.4113,-4.4199,-4.4317,-4.4496,-4.4619,-4.4764,-4.4919,-4.5103,-4.5265,-4.5297,-4.5277,-4.5277,-4.5277,-4.5277,-4.5277,-4.5288,-4.533,-4.5371,-4.5429,-4.5504,-4.5568,-4.5586,-4.5594,-4.5594,-4.5594,-4.5594,-4.5594,-4.5594,-4.5594,-4.5594,-4.5594,-4.5594,-4.5594,-4.5594,-4.5594,-4.5594,-4.5594,-4.5594,-4.5594,-4.5594,-4.5594,-4.5594,-4.5594,-4.5594,-4.5594,-4.5594,-4.5594,-4.5594,-4.5594,-4.5594,-4.5594,-4.5594,-4.5594,-4.5586,-4.5559,-4.5532,-4.5458,-4.537,-4.5213,-4.5033,-4.484,-4.4605,-4.434,-4.4101,-4.3913,-4.3751,-4.3634,-4.3531,-4.2625,-4.2802,-4.2803,-4.2842,-4.29,-4.2919,-4.2919,-4.2919,-4.2919,-4.2919,-4.2919,-4.2919,-4.2919,-4.2919,-4.2919,-4.2938,-4.2975,-4.303,-4.3105,-4.3123,-4.3287,-4.3394,-4.3429,-4.3463,-4.348,-4.3479,-4.3479,-4.3479,-4.3479,-4.3479,-4.3479,-4.3479,-4.3479,-4.3479,-4.3479,-4.3479,-4.3479,-4.3515,-4.3583,-4.3651,-4.3667,-4.3753,-4.3883,-4.3989,-4.4051,-4.4131,-4.43,-4.4387,-4.4454,-4.4537,-4.4646,-4.4764,-4.4883,-4.4991,-4.517,-4.5254,-4.5297,-4.5277,-4.5277,-4.5277,-4.5277,-4.5277,-4.5288,-4.535,-4.539,-4.541,-4.5485,-4.5568,-4.5594,-4.5594,-4.5594,-4.5594,-4.5594,-4.5594,-4.5594,-4.5594,-4.5594,-4.5594,-4.5594,-4.5594,-4.5594,-4.5594,-4.5594,-4.5594,-4.5594,-4.5594,-4.5594,-4.5594,-4.5594,-4.5594,-4.5594,-4.5594,-4.5594,-4.5594,-4.5594,-4.5594,-4.5594,-4.5594,-4.5586,-4.5577,-4.5568,-4.5514,-4.5448,-4.536,-4.5246,-4.5057,-4.4865,-4.464,-4.4421,-4.4203,-4.3974,-4.3814,-4.3666,-4.3565,-4.3513,-4.2763,-4.2803,-4.2861,-4.2882,-4.2919,-4.2919,-4.2919,-4.2919,-4.2919,-4.2919,-4.2919,-4.2919,-4.2919,-4.2919,-4.2919,-4.2975,-4.3067,-4.3123,-4.3196,-4.3269,-4.3394,-4.3429,-4.3481,-4.3462,-4.3479,-4.3479,-4.3479,-4.3479,-4.3479,-4.3479,-4.3479,-4.3479,-4.3479,-4.3479,-4.3479,-4.3479,-4.3496,-4.3515,-4.3652,-4.3736,-4.3753,-4.3897,-4.4039,-4.4177,-4.4266,-4.4364,-4.4482,-4.4551,-4.4632,-4.4725,-4.4796,-4.4931,-4.5103,-4.5148,-4.5233,-4.5286,-4.5277,-4.5277,-4.5277,-4.5277,-4.5277,-4.5288,-4.5298,-4.536,-4.539,-4.541,-4.5467,-4.555,-4.5594,-4.5594,-4.5594,-4.5594,-4.5594,-4.5594,-4.5594,-4.5594,-4.5594,-4.5594,-4.5594,-4.5594,-4.5594,-4.5594,-4.5594,-4.5594,-4.5594,-4.5594,-4.5594,-4.5594,-4.5594,-4.5594,-4.5594,-4.5594,-4.5594,-4.5594,-4.5594,-4.5586,-4.5586,-4.5577,-4.5559,-4.555,-4.5513,-4.5438,-4.5339,-4.5224,-4.5103,-4.487,-4.464,-4.4388,-4.4185,-4.4002,-4.386,-4.3699,-4.3632,-4.3566,-4.3513,-4.2822,-4.2842,-4.2881,-4.2919,-4.2919,-4.2919,-4.2919,-4.2919,-4.2919,-4.2919,-4.2919,-4.2919,-4.2919,-4.2919,-4.2975,-4.3012,-4.3123,-4.3196,-4.3287,-4.3376,-4.3429,-4.3481,-4.3497,-4.3479,-4.3479,-4.3479,-4.3479,-4.3479,-4.3479,-4.3479,-4.3479,-4.3479,-4.3479,-4.3479,-4.3479,-4.3479,-4.3479,-4.3496,-4.3703,-4.3786,-4.3851,-4.4042,-4.4207,-4.4373,-4.4482,-4.4592,-4.4667,-4.4719,-4.4808,-4.4883,-4.4943,-4.5026,-4.5148,-4.5181,-4.5243,-4.5286,-4.5277,-4.5277,-4.5277,-4.5277,-4.5297,-4.5288,-4.5319,-4.538,-4.539,-4.5419,-4.5495,-4.5577,-4.5594,-4.5594,-4.5594,-4.5594,-4.5594,-4.5594,-4.5594,-4.5594,-4.5594,-4.5594,-4.5594,-4.5594,-4.5594,-4.5594,-4.5594,-4.5594,-4.5594,-4.5594,-4.5594,-4.5594,-4.5594,-4.5594,-4.5594,-4.5594,-4.5594,-4.5594,-4.5594,-4.5586,-4.5558,-4.554,-4.5513,-4.5457,-4.54,-4.5319,-4.5203,-4.5049,-4.487,-4.4648,-4.4402,-4.4185,-4.3986,-4.3795,-4.3697,-4.3599,-4.3548,-4.3549,-4.3496,-4.2842,-4.29,-4.2919,-4.2919,-4.2919,-4.2919,-4.2919,-4.2919,-4.2919,-4.2919,-4.2919,-4.2938,-4.2938,-4.2975,-4.303,-4.3086,-4.3178,-4.3305,-4.3376,-4.3429,-4.3463,-4.3497,-4.3497,-4.3479,-4.3479,-4.3479,-4.3479,-4.3479,-4.3479,-4.3479,-4.3479,-4.3479,-4.3479,-4.3479,-4.3479,-4.3515,-4.3515,-4.3566,-4.3684,-4.3816,-4.3976,-4.418,-4.4358,-4.4515,-4.4646,-4.4764,-4.4833,-4.4919,-4.4991,-4.5026,-4.5061,-4.5148,-4.5192,-4.5224,-4.5265,-4.5297,-4.5277,-4.5277,-4.5277,-4.5277,-4.5307,-4.5328,-4.5369,-4.539,-4.541,-4.5457,-4.5541,-4.5568,-4.5586,-4.5594,-4.5594,-4.5594,-4.5594,-4.5594,-4.5594,-4.5594,-4.5594,-4.5594,-4.5594,-4.5594,-4.5594,-4.5594,-4.5594,-4.5594,-4.5594,-4.5594,-4.5594,-4.5594,-4.5594,-4.5594,-4.5594,-4.5594,-4.5594,-4.5594,-4.5594,-4.5577,-4.554,-4.5504,-4.5467,-4.538,-4.5269,-4.5117,-4.4967,-4.4821,-4.464,-4.4416,-4.4229,-4.4017,-4.383,-4.3666,-4.3599,-4.3548,-4.3531,-4.3496,-4.3496,-4.29,-4.2919,-4.2919,-4.2919,-4.2919,-4.2919,-4.2919,-4.2919,-4.2919,-4.2919,-4.2938,-4.303,-4.3067,-4.3049,-4.3086,-4.316,-4.3305,-4.3394,-4.3446,-4.348,-4.3497,-4.3479,-4.3479,-4.3479,-4.3479,-4.3479,-4.3479,-4.3479,-4.3479,-4.3479,-4.3479,-4.3479,-4.3479,-4.3479,-4.3479,-4.3496,-4.3513,-4.3582,-4.3701,-4.3867,-4.4067,-4.4248,-4.444,-4.4605,-4.4776,-4.487,-4.4955,-4.5026,-4.508,-4.5103,-4.5148,-4.5222,-4.5254,-4.5275,-4.5286,-4.5297,-4.5277,-4.5277,-4.5277,-4.5307,-4.5328,-4.5378,-4.5399,-4.5419,-4.5448,-4.5475,-4.5531,-4.5586,-4.5594,-4.5594,-4.5594,-4.5594,-4.5594,-4.5594,-4.5594,-4.5594,-4.5594,-4.5594,-4.5594,-4.5594,-4.5594,-4.5594,-4.5594,-4.5594,-4.5594,-4.5594,-4.5594,-4.5594,-4.5594,-4.5594,-4.5594,-4.5594,-4.5586,-4.5594,-4.5594,-4.555,-4.5504,-4.5467,-4.538,-4.5227,-4.5061,-4.4883,-4.4732,-4.4587,-4.4388,-4.417,-4.3986,-4.3846,-4.3749,-4.3599,-4.3548,-4.3496,-4.3496,-4.3479,-4.3479]},{"header":{"parameterUnit":"m.s-1","parameterCategory":1,"la1":31.0,"la2":29.5877,"lo1":-88.7671,"lo2":-86.6584,"dy":0.0162,"dx":0.0185,"nx":115,"ny":88,"refTime":"2024-03-27T06:00:00:Z","depth":0,"parameterNumber":3,"parameterNumberName":"V-component_of_WINDS"},"data":[0.0,0.0,0.0,0.0,0.0,0.0,0.0,0.0,0.0,0.0,0.0,0.0,0.0,0.0,0.0,0.0,0.0,0.0,0.0,0.0,0.0,0.0,0.0,0.0,0.0,0.0,0.0,0.0,0.0,0.0,0.0,0.0,0.0,0.0,0.0,0.0,0.0,0.0,0.0,0.0,0.0,0.0,0.0,0.0,0.0,0.0,0.0,0.0,0.0,0.0,0.0,0.0,0.0,0.0,0.0,0.0,0.0,0.0,0.0,0.0,0.0,0.0,0.0,0.0,0.0,0.0,0.0,0.0,0.0,0.0,0.0,0.0,0.0,0.0,0.0,0.0,0.0,0.0,0.0,0.0,0.0,0.0,0.0,0.0,0.0,0.0,0.0,0.0,0.0,0.0,0.0,0.0,0.0,0.0,0.0,0.0,0.0,0.0,0.0,0.0,0.0,0.0,0.0,0.0,0.0,0.0,0.0,0.0,0.0,0.0,0.0,0.0,0.0,0.0,0.0,0.0,0.0,0.0,0.0,0.0,0.0,0.0,0.0,0.0,0.0,0.0,0.0,0.0,0.0,0.0,0.0,0.0,0.0,0.0,0.0,0.0,0.0,0.0,0.0,0.0,0.0,0.0,0.0,0.0,0.0,0.0,0.0,0.0,0.0,0.0,0.0,0.0,0.0,0.0,0.0,0.0,0.0,0.0,0.0,0.0,0.0,0.0,0.0,0.0,0.0,0.0,0.0,0.0,0.0,0.0,0.0,0.0,0.0,0.0,0.0,0.0,0.0,0.0,0.0,0.0,0.0,0.0,0.0,0.0,0.0,0.0,0.0,0.0,0.0,0.0,0.0,0.0,0.0,0.0,0.0,0.0,0.0,0.0,0.0,0.0,0.0,0.0,0.0,0.0,0.0,0.0,0.0,0.0,0.0,0.0,0.0,0.0,0.0,0.0,0.0,0.0,0.0,0.0,0.0,0.0,0.0,0.0,0.0,0.0,0.0,0.0,0.0,0.0,0.0,0.0,0.0,0.0,0.0,0.0,0.0,0.0,0.0,0.0,0.0,0.0,0.0,0.0,0.0,0.0,0.0,0.0,0.0,0.0,0.0,0.0,0.0,0.0,0.0,0.0,0.0,0.0,0.0,0.0,0.0,0.0,0.0,0.0,0.0,0.0,0.0,0.0,0.0,0.0,0.0,0.0,0.0,0.0,0.0,0.0,0.0,0.0,0.0,0.0,0.0,0.0,0.0,0.0,0.0,0.0,0.0,0.0,0.0,0.0,0.0,0.0,0.0,0.0,0.0,0.0,0.0,0.0,0.0,0.0,0.0,0.0,0.0,0.0,0.0,0.0,0.0,0.0,0.0,0.0,0.0,0.0,0.0,0.0,0.0,0.0,0.0,0.0,0.0,0.0,0.0,0.0,0.0,0.0,0.0,0.0,0.0,0.0,0.0,0.0,0.0,0.0,0.0,0.0,0.0,0.0,0.0,0.0,0.0,0.0,0.0,0.0,0.0,0.0,0.0,0.0,0.0,0.0,0.0,0.0,0.0,0.0,0.0,0.0,0.0,0.0,0.0,0.0,0.0,0.0,0.0,0.0,0.0,0.0,0.0,0.0,0.0,0.0,0.0,0.0,0.0,0.0,0.0,0.0,0.0,0.0,0.0,0.0,0.0,0.0,0.0,0.0,0.0,0.0,0.0,0.0,0.0,0.0,0.0,0.0,0.0,0.0,0.0,0.0,0.0,0.0,0.0,0.0,0.0,0.0,0.0,0.0,0.0,0.0,0.0,0.0,0.0,0.0,0.0,0.0,0.0,0.0,0.0,0.0,0.0,0.0,0.0,0.0,0.0,0.0,0.0,0.0,0.0,0.0,0.0,0.0,0.0,0.0,0.0,0.0,0.0,0.0,0.0,0.0,0.0,0.0,0.0,0.0,0.0,0.0,0.0,0.0,0.0,0.0,0.0,0.0,0.0,0.0,0.0,0.0,0.0,0.0,0.0,0.0,0.0,0.0,0.0,0.0,0.0,0.0,0.0,0.0,0.0,0.0,0.0,0.0,0.0,0.0,0.0,0.0,0.0,0.0,0.0,0.0,0.0,0.0,0.0,0.0,0.0,0.0,0.0,0.0,0.0,0.0,0.0,0.0,0.0,0.0,0.0,0.0,0.0,0.0,0.0,0.0,0.0,0.0,0.0,0.0,0.0,0.0,0.0,0.0,0.0,0.0,0.0,0.0,0.0,0.0,0.0,0.0,0.0,0.0,0.0,0.0,0.0,0.0,0.0,0.0,0.0,0.0,0.0,0.0,0.0,0.0,0.0,0.0,0.0,0.0,0.0,0.0,0.0,0.0,0.0,0.0,0.0,0.0,0.0,0.0,0.0,0.0,0.0,0.0,0.0,0.0,0.0,0.0,0.0,0.0,0.0,0.0,0.0,0.0,0.0,0.0,0.0,0.0,0.0,0.0,0.0,0.0,0.0,0.0,0.0,0.0,0.0,0.0,0.0,0.0,0.0,0.0,0.0,0.0,0.0,0.0,0.0,0.0,0.0,0.0,0.0,0.0,0.0,0.0,0.0,0.0,0.0,0.0,0.0,0.0,0.0,0.0,0.0,0.0,0.0,0.0,0.0,0.0,0.0,0.0,0.0,0.0,0.0,0.0,0.0,0.0,0.0,0.0,0.0,0.0,0.0,0.0,0.0,0.0,0.0,0.0,0.0,0.0,0.0,0.0,0.0,0.0,0.0,0.0,0.0,0.0,0.0,0.0,0.0,0.0,0.0,0.0,0.0,0.0,0.0,0.0,0.0,0.0,0.0,0.0,0.0,0.0,0.0,0.0,0.0,0.0,0.0,0.0,0.0,0.0,0.0,0.0,0.0,0.0,0.0,0.0,0.0,0.0,0.0,0.0,0.0,0.0,0.0,0.0,0.0,0.0,0.0,0.0,0.0,0.0,0.0,0.0,0.0,0.0,0.0,0.0,0.0,0.0,0.0,0.0,0.0,0.0,0.0,0.0,0.0,0.0,0.0,0.0,0.0,0.0,0.0,0.0,0.0,0.0,0.0,0.0,0.0,0.0,0.0,0.0,0.0,0.0,0.0,0.0,0.0,0.0,0.0,0.0,0.0,0.0,0.0,0.0,0.0,0.0,0.0,0.0,0.0,0.0,0.0,0.0,0.0,0.0,0.0,0.0,0.0,0.0,0.0,0.0,0.0,0.0,0.0,0.0,0.0,0.0,0.0,0.0,0.0,0.0,0.0,0.0,0.0,0.0,0.0,0.0,0.0,0.0,0.0,0.0,0.0,0.0,0.0,0.0,0.0,0.0,0.0,0.0,0.0,0.0,0.0,0.0,0.0,0.0,0.0,0.0,0.0,0.0,0.0,0.0,0.0,0.0,0.0,0.0,0.0,0.0,0.0,0.0,0.0,0.0,0.0,0.0,0.0,0.0,0.0,0.0,0.0,0.0,0.0,0.0,0.0,0.0,0.0,0.0,0.0,0.0,0.0,0.0,0.0,0.0,0.0,0.0,0.0,0.0,0.0,0.0,0.0,0.0,0.0,0.0,0.0,0.0,0.0,0.0,0.0,0.0,0.0,0.0,0.0,0.0,0.0,0.0,0.0,0.0,0.0,0.0,0.0,0.0,0.0,0.0,0.0,0.0,0.0,0.0,0.0,0.0,0.0,0.0,0.0,0.0,0.0,0.0,0.0,0.0,0.0,0.0,0.0,0.0,0.0,0.0,0.0,0.0,0.0,0.0,0.0,0.0,0.0,0.0,0.0,0.0,0.0,0.0,0.0,0.0,0.0,0.0,0.0,0.0,0.0,0.0,0.0,0.0,0.0,0.0,0.0,0.0,0.0,0.0,0.0,0.0,0.0,0.0,0.0,0.0,0.0,0.0,0.0,0.0,0.0,0.0,0.0,0.0,0.0,0.0,0.0,0.0,0.0,0.0,0.0,0.0,0.0,0.0,0.0,0.0,0.0,0.0,0.0,0.0,0.0,0.0,0.0,0.0,0.0,0.0,0.0,0.0,0.0,0.0,0.0,0.0,0.0,0.0,0.0,0.0,0.0,0.0,0.0,0.0,0.0,0.0,0.0,0.0,0.0,0.0,0.0,0.0,0.0,0.0,0.0,0.0,0.0,0.0,0.0,0.0,0.0,0.0,0.0,0.0,0.0,0.0,0.0,0.0,0.0,0.0,0.0,0.0,0.0,0.0,0.0,0.0,0.0,0.0,0.0,0.0,0.0,0.0,0.0,0.0,0.0,0.0,0.0,0.0,0.2157,0.0,0.0,0.0,0.0,0.0,0.0,0.0,0.0,0.0,0.0,0.0,0.0,0.0,0.0,0.0,0.0,0.0,0.0,0.0,0.0,0.0,0.0,0.0,0.0,0.0,0.0,0.0,0.0,0.0,0.0,0.0,0.0,0.0,0.0,0.0,0.0,0.0,0.0,0.0,0.0,0.0,0.0,0.0,0.0,0.0,0.0,0.0,0.0,0.0,0.0,0.0,0.0,0.0,0.0,0.0,0.0,0.0,0.0,0.0,0.0,0.0,0.0,0.0,0.0,0.0,0.0,0.0,0.0,0.0,0.0,0.0,0.0,0.0,0.0,0.0,0.0,0.0,0.0,0.0,0.0,0.0,0.0,0.0,0.0,0.0,0.0,0.0,0.0,0.0,0.0,0.0,0.0,0.0,0.0,0.0,0.0,0.0,0.0,0.0,0.0,0.0,0.0,0.0,0.0,0.0,0.0,0.0,0.0,0.0,0.0,0.208,0.2353,0.2353,0.2353,0.2353,0.0,0.0,0.0,0.0,0.0,0.0,0.0,0.0,0.0,0.0,0.0,0.0,0.0,0.0,0.0,0.0,0.0,0.0,0.0,0.0,0.0,0.0,0.0,0.0,0.0,0.0,0.0,0.0,0.0,0.0,0.0,0.0,0.0,0.0,0.0,0.0,0.0,0.0,0.0,0.0,0.0,0.0,0.0,0.0,0.0,0.0,0.0,0.0,0.0,0.0,0.0,0.0,0.0,0.0,0.0,0.0,0.0,0.0,0.0,0.0,0.0,0.0,0.0,0.0,0.0,0.0,0.0,0.0,0.0,0.0,0.0,0.0,0.0,0.0,0.0,0.0,0.0,0.0,0.0,0.0,0.0,0.0,0.0,0.0,0.0,0.0,0.0,0.0,0.0,0.0,0.0,0.0,0.0,0.0,0.0,0.0,0.0,0.0,0.0,0.0,0.0,0.0,0.0,0.0,0.0,0.0,0.0,0.0,0.0,0.0,0.0,0.0,0.251,0.251,0.247,0.0,0.0,0.0,0.0,0.0,0.0,0.0,0.0,0.0,0.0,0.0,0.0,0.0,0.0,0.0,0.0,0.0,0.0,0.0,0.0,0.0,0.0,0.0,0.0,0.0,0.0,0.0,0.0,0.0,0.0,0.0,0.0,0.0,0.0,0.0,0.0,0.0,0.0,0.0,0.0,0.0,0.0,0.0,0.0,0.0,0.0,0.0,0.0,0.0,0.0,0.0,0.0,0.0,0.0,0.0,0.0,0.0,0.0,0.0,0.0,0.0,0.0,0.0,0.0,0.0,0.0,0.0,0.0,0.0,0.0,0.0,0.0,0.0,0.0,0.0,0.0,0.0,0.0,0.0,0.0,0.0,0.0,0.0,0.0,0.0,0.0,0.0,0.0,0.0,0.0,0.0,0.0,0.0,0.0,0.0,0.0,0.0,0.0,0.0,0.0,0.0,0.0,0.0,0.0,0.0,0.0,0.0,0.0,0.0,0.0,0.247,0.251,0.251,0.0,0.251,0.0,0.0,0.0,0.0,0.0,0.0,0.0,0.0,0.0,0.0,0.0,0.0,0.0,0.0,0.0,0.0,0.0,0.0,0.0,0.0,0.0,0.0,0.0,0.0,0.0,0.0,0.0,0.0,0.0,0.0,0.0,0.0,0.0,0.0,0.0,0.0,0.0,0.0,0.0,0.0,0.0,0.0,0.0,0.0,0.0,0.0,0.0,0.0,0.0,0.0,0.0,0.0,0.0,0.0,0.0,0.0,0.0,0.0,0.0,0.0,0.0,0.0,0.0,0.0,0.0,0.0,0.0,0.0,0.0,0.0,0.0,0.0,0.0,0.0,0.0,0.0,0.0,0.0,0.0,0.0,0.0,0.0,0.0,0.0,0.0,0.0,0.0,0.0,0.0,0.0,0.0,0.0,0.0,0.0,0.0,0.0,0.0,0.0,0.0,0.0,0.0,0.0,0.0,0.0,0.0,0.0,0.0,0.0,0.0,0.0,0.2863,0.2863,0.2863,0.2785,0.0,0.0,0.0,0.0,0.0,0.0,0.0,0.0,0.0,0.0,0.0,0.0,0.0,0.0,0.0,0.0,0.0,0.0,0.0,0.0,0.0,0.0,0.0,0.0,0.0,0.0,0.0,0.0,0.0,0.0,0.0,0.0,0.0,0.0,0.0,0.0,0.0,0.0,0.0,0.0,0.0,0.0,0.0,0.0,0.0,0.0,0.0,0.0,0.0,0.0,0.0,0.0,0.0,0.0,0.0,0.0,0.0,0.0,0.0,0.0,0.0,0.0,0.0,0.0,0.0,0.0,0.0,0.0,0.0,0.0,0.0,0.0,0.0,0.0,0.0,0.0,0.0,0.0,0.0,0.0,0.0,0.0,0.0,0.0,0.0,0.0,0.0,0.0,0.0,0.0,0.0,0.0,0.0,0.0,0.0,0.0,0.0,0.0,0.0,0.0,0.0,0.0,0.0,0.0,0.0,0.0,0.0,0.0,0.0,0.0,0.31,0.31,0.31,0.31,0.3022,0.2824,0.0,0.0,0.0,0.0,0.0,0.0,0.0,0.0,0.0,0.0,0.0,0.0,0.0,0.0,0.0,0.0,0.0,0.0,0.0,0.0,0.0,0.0,0.0,0.0,0.0,0.0,0.0,0.0,0.0,0.0,0.0,0.0,0.0,0.0,0.0,0.0,0.0,0.0,0.0,0.0,0.0,0.0,0.0,0.0,0.0,0.0,0.0,0.0,0.0,0.0,0.0,0.0,0.0,0.0,0.0,0.0,0.0,0.0,0.0,0.0,0.0,0.0,0.0,0.0,0.0,0.0,0.0,0.0,0.0,0.0,0.0,0.0,0.0,0.0,0.0,0.0,0.0,0.0,0.0,0.0,0.0,0.0,0.0,0.0,0.0,0.0,0.0,0.0,0.0,0.0,0.0,0.0,0.0,0.0,0.0,0.0,0.0,0.0,0.0,0.0,0.0,0.0,0.0,0.0,0.0,0.0,0.0,0.0,0.31,0.31,0.31,0.3141,0.31,0.3022,0.0,0.0,0.0,0.0,0.0,0.0,0.0,0.0,0.0,0.0,0.0,0.0,0.0,0.0,0.0,0.0,0.0,0.0,0.0,0.0,0.0,0.0,0.0,0.0,0.0,0.0,0.0,0.0,0.0,0.0,0.0,0.0,0.0,0.0,0.0,0.0,0.0,0.0,0.0,0.0,0.0,0.0,0.0,0.0,0.0,0.0,0.0,0.0,0.0,0.0,0.0,0.0,0.0,0.0,0.0,0.0,0.0,0.0,0.0,0.0,0.0,0.0,0.0,0.0,0.0,0.0,0.0,0.0,0.0,0.0,0.0,0.0,0.0,0.0,0.0,0.0,0.0,0.0,0.0,0.0,0.0,0.0,0.0,0.0,0.0,0.0,0.0,0.0,0.0,0.0,0.0,0.0,0.0,0.0,0.0,0.0,0.0,0.0,0.0,0.0,0.0,0.0,0.0,0.0,0.0,0.0,0.0,0.0,0.0,0.353,0.3567,0.3528,0.3528,0.353,0.345,0.0,0.0,0.0,0.0,0.0,0.0,0.0,0.0,0.0,0.0,0.0,0.0,0.0,0.0,0.0,0.0,0.0,0.0,0.0,0.0,0.0,0.0,0.0,0.0,0.0,0.0,0.0,0.0,0.0,0.0,0.0,0.0,0.0,0.0,0.0,0.0,0.0,0.0,0.0,0.0,0.0,0.0,0.0,0.0,0.0,0.0,0.0,0.0,0.0,0.0,0.0,0.0,0.0,0.0,0.0,0.0,0.0,0.0,0.0,0.0,0.0,0.0,0.0,0.0,0.0,0.0,0.0,0.0,0.0,0.0,0.0,0.0,0.0,0.0,0.0,0.0,0.0,0.0,0.0,0.0,0.0,0.0,0.0,0.0,0.0,0.0,0.0,0.0,0.0,0.0,0.0,0.0,0.0,0.0,0.0,0.0,0.0,0.0,0.0,0.0,0.0,0.0,0.0,0.0,0.0,0.0,0.0,0.0,0.0,0.3802,0.0,0.3882,0.3802,0.3802,0.3724,0.0,0.0,0.0,0.0,0.0,0.0,0.0,0.0,0.0,0.0,0.0,0.0,0.0,0.0,0.0,0.0,0.0,0.0,0.0,0.0,0.0,0.0,0.0,0.0,0.0,0.0,0.0,0.0,0.0,0.0,0.0,0.0,0.0,0.0,0.0,0.0,0.0,0.0,0.0,0.0,0.0,0.0,0.0,0.0,0.0,0.0,0.0,0.0,0.0,0.0,0.0,0.0,0.0,0.0,0.0,0.0,0.0,0.0,0.0,0.0,0.0,0.0,0.0,0.0,0.0,0.0,0.0,0.0,0.0,0.0,0.0,0.0,0.0,0.0,0.0,0.0,0.0,0.0,0.0,0.0,0.0,0.0,0.0,0.0,0.0,0.0,0.0,0.0,0.0,0.0,0.0,0.0,0.0,0.0,0.0,0.0,0.0,0.0,0.0,0.0,0.0,0.0,0.0,0.0,0.0,0.0,0.0,0.0,0.3802,0.3802,0.3999,0.3999,0.3841,0.3802,0.3724,0.0,0.0,0.0,0.0,0.0,0.0,0.0,0.0,0.0,0.0,0.0,0.0,0.0,0.0,0.0,0.0,0.0,0.0,0.0,0.0,0.0,0.0,0.0,0.0,0.0,0.0,0.0,0.0,0.0,0.0,0.0,0.0,0.0,0.0,0.0,0.0,0.0,0.0,0.0,0.0,0.0,0.0,0.0,0.0,0.0,0.0,0.0,0.0,0.0,0.0,0.0,0.0,0.0,0.0,0.0,0.0,0.0,0.0,0.0,0.0,0.0,0.0,0.0,0.0,0.0,0.0,0.0,0.0,0.0,0.0,0.0,0.0,0.0,0.0,0.0,0.0,0.0,0.0,0.0,0.0,0.0,0.0,0.0,0.0,0.0,0.0,0.0,0.0,0.0,0.0,0.0,0.0,0.0,0.0,0.0,0.0,0.0,0.0,0.0,0.0,0.0,0.0,0.0,0.0,0.0,0.0,0.0,0.0,0.0,0.4229,0.4155,0.4079,0.3999,0.3882,0.3763,0.0,0.0,0.0,0.0,0.0,0.0,0.0,0.0,0.0,0.0,0.0,0.0,0.0,0.0,0.0,0.0,0.0,0.0,0.0,0.0,0.0,0.0,0.0,0.0,0.0,0.0,0.0,0.0,0.0,0.0,0.0,0.0,0.0,0.0,0.0,0.0,0.0,0.0,0.0,0.0,0.0,0.0,0.0,0.0,0.0,0.0,0.0,0.0,0.0,0.0,0.0,0.0,0.0,0.0,0.0,0.0,0.0,0.0,0.0,0.0,0.0,0.0,0.0,0.0,0.0,0.0,0.0,0.0,0.0,0.0,0.0,0.0,0.0,0.0,0.0,0.0,0.0,0.0,0.0,0.0,0.0,0.0,0.0,0.0,0.0,0.0,0.0,0.0,0.0,0.0,0.0,0.0,0.0,0.0,0.0,0.0,0.0,0.0,0.0,0.0,0.0,0.0,0.0,0.0,0.0,0.0,0.0,0.0,0.0,0.4621,0.4428,0.4233,0.4079,0.3999,0.3882,0.3802,0.0,0.0,0.0,0.0,0.0,0.0,0.0,0.0,0.0,0.0,0.0,0.0,0.0,0.0,0.0,0.0,0.0,0.0,0.0,0.0,0.0,0.0,0.0,0.0,0.0,0.0,0.0,0.0,0.0,0.0,0.0,0.0,0.0,0.0,0.0,0.0,0.0,0.0,0.0,0.0,0.0,0.0,0.0,0.0,0.0,0.0,0.0,0.0,0.0,0.0,0.0,0.0,0.0,0.0,0.0,0.0,0.0,0.0,0.0,0.0,0.0,0.0,0.0,0.0,0.0,0.0,0.0,0.0,0.0,0.0,0.0,0.0,0.0,0.0,0.0,0.0,0.0,0.0,0.0,0.0,0.0,0.0,0.0,0.0,0.0,0.0,0.0,0.0,0.0,0.0,0.0,0.0,0.0,0.0,0.0,0.0,0.0,0.0,0.0,0.0,0.0,0.0,0.0,0.0,0.0,0.0,0.0,0.0,0.5018,0.482,0.4506,0.4118,0.4118,0.3999,0.0,0.0,0.0,0.0,0.0,0.0,0.0,0.0,0.0,0.0,0.0,0.0,0.0,0.0,0.0,0.0,0.0,0.0,0.0,0.0,0.0,0.0,0.0,0.0,0.0,0.0,0.0,0.0,0.0,0.0,0.0,0.0,0.0,0.0,0.0,0.0,0.0,0.0,0.0,0.0,0.0,0.0,0.0,0.0,0.0,0.0,0.0,0.0,0.0,0.0,0.0,0.0,0.0,0.0,0.0,0.0,0.0,0.0,0.0,0.0,0.0,0.0,0.0,0.0,0.0,0.0,0.0,0.0,0.0,0.0,0.0,0.0,0.0,0.0,0.0,0.0,0.0,0.0,0.0,0.0,0.0,0.0,0.0,0.0,0.0,0.0,0.0,0.0,0.0,0.0,0.0,0.0,0.0,0.0,0.0,0.0,0.0,0.0,0.0,0.0,0.0,0.0,0.0,0.0,0.0,0.0,0.0,0.0,0.0,0.5018,0.4979,0.474,0.4345,0.4194,0.3999,0.0,0.0,0.0,0.0,0.0,0.0,0.0,0.0,0.0,0.0,0.0,0.0,0.0,0.0,0.0,0.0,0.0,0.0,0.0,0.0,0.0,0.0,0.0,0.0,0.0,0.0,0.0,0.0,0.0,0.0,0.0,0.0,0.0,0.0,0.0,0.0,0.0,0.0,0.0,0.0,0.0,0.0,0.0,0.0,0.0,0.0,0.0,0.0,0.0,0.0,0.0,0.0,0.0,0.0,0.0,0.0,0.0,0.0,0.0,0.0,0.0,0.0,0.0,0.0,0.0,0.0,0.0,0.0,0.0,0.0,0.0,0.0,0.0,0.0,0.0,0.0,0.0,0.0,0.0,0.0,0.0,0.0,0.0,0.0,0.0,0.0,0.0,0.0,0.0,0.0,0.0,0.0,0.0,0.0,0.0,0.0,0.0,0.0,0.0,0.0,0.0,0.0,0.0,0.0,0.0,0.0,0.0,0.0,0.504,0.5086,0.5089,0.4928,0.4612,0.4371,0.4075,0.0,0.0,0.0,0.0,0.0,0.0,0.0,0.0,0.0,0.0,0.0,0.0,0.0,0.0,0.0,0.0,0.0,0.0,0.0,0.0,0.0,0.0,0.0,0.0,0.0,0.0,0.0,0.0,0.0,0.0,0.0,0.0,0.0,0.0,0.0,0.0,0.0,0.0,0.0,0.0,0.0,0.0,0.0,0.0,0.0,0.0,0.0,0.0,0.0,0.0,0.0,0.0,0.0,0.0,0.0,0.0,0.0,0.0,0.0,0.0,0.0,0.0,0.0,0.0,0.0,0.0,0.0,0.0,0.0,0.0,0.0,0.0,0.0,0.0,0.0,0.0,0.0,0.0,0.0,0.0,0.0,0.0,0.0,0.0,0.0,0.0,0.0,0.0,0.0,0.0,0.0,0.0,0.0,0.0,0.0,0.0,0.0,0.0,0.0,0.0,0.0,0.0,0.0,0.0,0.0,0.0,0.0,0.0,0.5072,0.5181,0.5186,0.5109,0.4907,0.457,0.424,0.0,0.0,0.0,0.0,0.0,0.0,0.0,0.0,0.0,0.0,0.0,0.0,0.0,0.0,0.0,0.0,0.0,0.0,0.0,0.0,0.0,0.0,0.0,0.0,0.0,0.0,0.0,0.0,0.0,0.0,0.0,0.0,0.0,0.0,0.0,0.0,0.0,0.0,0.0,0.0,0.0,0.0,0.0,0.0,0.0,0.0,0.0,0.0,0.0,0.0,0.0,0.0,0.0,0.0,0.0,0.0,0.0,0.0,0.0,0.0,0.0,0.0,0.0,0.0,0.0,0.0,0.0,0.0,0.0,0.0,0.0,0.0,0.0,0.0,0.0,0.0,0.0,0.0,0.0,0.0,0.0,0.0,0.0,0.0,0.0,0.0,0.0,0.0,0.0,0.0,0.0,0.0,0.0,0.0,0.0,0.0,0.0,0.0,0.0,0.0,0.0,0.0,0.0,0.0,0.0,0.0,0.0,0.0,0.5072,0.5181,0.5186,0.5109,0.491,0.4683,0.4391,0.0,0.0,0.0,0.0,0.0,0.0,0.0,0.0,0.0,0.0,0.0,0.0,0.0,0.0,0.0,0.0,0.0,0.0,0.0,0.0,0.0,0.0,0.0,0.0,0.0,0.0,0.0,0.0,0.0,0.0,0.0,0.0,0.0,0.0,0.0,0.0,0.0,0.0,0.0,0.0,0.0,0.0,0.0,0.0,0.0,0.0,0.0,0.0,0.3159,0.0,0.0,0.0,0.0,0.0,0.0,0.0,0.0,0.0,0.0,0.0,0.0,0.0,0.0,0.0,0.0,0.0,0.0,0.0,0.0,0.0,0.0,0.0,0.0,0.0,0.0,0.0,0.0,0.0,0.0,0.0,0.0,0.0,0.0,0.0,0.0,0.0,0.0,0.0,0.0,0.0,0.0,0.0,0.0,0.0,0.0,0.0,0.0,0.0,0.0,0.0,0.0,0.0,0.0,0.0,0.0,0.0,0.0,0.0,0.5294,0.5551,0.5598,0.5478,0.5279,0.5071,0.4708,0.0,0.0,0.0,0.0,0.0,0.0,0.0,0.0,0.0,0.0,0.0,0.0,0.0,0.0,0.0,0.0,0.0,0.0,0.0,0.0,0.0,0.0,0.0,0.0,0.0,0.0,0.0,0.0,0.0,0.0,0.0,0.0,0.0,0.0,0.0,0.0,0.0,0.0,0.0,0.0,0.0,0.0,0.0,0.0,0.0,0.0,0.0,0.0,0.0,0.0,0.0,0.0,0.0,0.0,0.0,0.0,0.0,0.0,0.0,0.0,0.0,0.0,0.0,0.0,0.0,0.0,0.0,0.0,0.0,0.0,0.0,0.0,0.0,0.0,0.0,0.0,0.0,0.0,0.0,0.0,0.0,0.0,0.0,0.0,0.0,0.0,0.0,0.0,0.0,0.0,0.0,0.0,0.0,0.0,0.0,0.0,0.0,0.0,0.0,0.0,0.0,0.0,0.0,0.0,0.0,0.0,0.0,0.5338,0.5585,0.6022,0.6056,0.5975,0.5791,0.5538,0.5012,0.4277,0.0,0.0,0.0,0.0,0.0,0.0,0.0,0.0,0.0,0.0,0.0,0.0,0.0,0.0,0.0,0.0,0.0,0.0,0.0,0.0,0.0,0.0,0.0,0.0,0.0,0.0,0.0,0.0,0.0,0.0,0.0,0.0,0.0,0.0,0.0,0.0,0.0,0.0,0.3529,0.3694,0.0,0.0,0.0,0.0,0.0,0.0,0.0,0.0,0.3261,0.0,0.0,0.0,0.0,0.0,0.0,0.0,0.0,0.0,0.0,0.0,0.0,0.0,0.0,0.0,0.0,0.0,0.0,0.0,0.0,0.0,0.0,0.0,0.0,0.0,0.0,0.0,0.0,0.0,0.0,0.0,0.0,0.0,0.0,0.0,0.0,0.0,0.0,0.0,0.0,0.0,0.0,0.0,0.0,0.0,0.0,0.0,0.0,0.0,0.0,0.0,0.0,0.0,0.0,0.0,0.0,0.5321,0.5388,0.5754,0.6315,0.6274,0.6235,0.6245,0.5699,0.5214,0.4857,0.0,0.0,0.0,0.0,0.0,0.0,0.0,0.0,0.0,0.0,0.0,0.0,0.0,0.0,0.0,0.0,0.0,0.0,0.0,0.0,0.0,0.0,0.0,0.0,0.0,0.0,0.0,0.0,0.0,0.0,0.0,0.0,0.0,0.0,0.0,0.0,0.0,0.0,0.0,0.3792,0.3825,0.0,0.0,0.0,0.0,0.0,0.0,0.0,0.0,0.3395,0.0,0.0,0.0,0.0,0.0,0.0,0.0,0.0,0.0,0.0,0.0,0.0,0.0,0.0,0.0,0.0,0.0,0.0,0.0,0.0,0.0,0.0,0.0,0.0,0.0,0.0,0.0,0.0,0.0,0.0,0.0,0.0,0.0,0.0,0.0,0.0,0.0,0.0,0.0,0.0,0.0,0.0,0.0,0.0,0.0,0.0,0.0,0.0,0.0,0.0,0.0,0.0,0.0,0.0,0.0,0.544,0.5845,0.6262,0.6733,0.6887,0.689,0.674,0.6322,0.5784,0.0,0.0,0.0,0.0,0.0,0.0,0.0,0.0,0.0,0.0,0.0,0.0,0.0,0.0,0.0,0.0,0.0,0.0,0.0,0.0,0.0,0.0,0.0,0.0,0.0,0.0,0.0,0.0,0.0,0.0,0.0,0.0,0.0,0.0,0.0,0.0,0.0,0.0,0.0,0.0,0.4064,0.4064,0.4064,0.0,0.0,0.0,0.0,0.0,0.0,0.3661,0.3627,0.0,0.0,0.0,0.0,0.0,0.0,0.0,0.0,0.0,0.0,0.0,0.0,0.0,0.0,0.0,0.0,0.0,0.0,0.0,0.0,0.0,0.0,0.0,0.0,0.0,0.0,0.0,0.0,0.0,0.0,0.0,0.0,0.0,0.0,0.0,0.0,0.0,0.0,0.0,0.0,0.0,0.0,0.0,0.0,0.0,0.0,0.0,0.0,0.0,0.0,0.0,0.0,0.0,0.0,0.0,0.5754,0.6311,0.6857,0.7274,0.7631,0.7643,0.7326,0.6988,0.6397,0.0,0.0,0.0,0.0,0.0,0.0,0.0,0.0,0.0,0.0,0.0,0.0,0.0,0.0,0.0,0.0,0.0,0.0,0.0,0.0,0.0,0.0,0.0,0.0,0.0,0.0,0.0,0.0,0.0,0.0,0.0,0.0,0.0,0.0,0.0,0.0,0.0,0.0,0.0,0.0,0.0,0.4303,0.4303,0.4319,0.0,0.0,0.0,0.0,0.3895,0.3893,0.0,0.0,0.0,0.0,0.0,0.0,0.0,0.0,0.0,0.0,0.0,0.0,0.0,0.0,0.0,0.0,0.0,0.0,0.0,0.0,0.0,0.0,0.0,0.0,0.0,0.0,0.0,0.0,0.0,0.0,0.0,0.0,0.0,0.0,0.0,0.0,0.0,0.0,0.0,0.0,0.0,0.0,0.0,0.0,0.0,0.0,0.0,0.0,0.0,0.0,0.0,0.0,0.0,0.0,0.0,0.0,0.6229,0.6774,0.7338,0.7991,0.8302,0.8314,0.7987,0.7398,0.6803,0.0,0.0,0.0,0.0,0.0,0.0,0.0,0.0,0.0,0.0,0.0,0.0,0.0,0.0,0.0,0.0,0.0,0.0,0.0,0.0,0.0,0.0,0.0,0.0,0.0,0.0,0.0,0.0,0.0,0.0,0.0,0.0,0.0,0.0,0.0,0.0,0.0,0.0,0.0,0.0,0.0,0.4303,0.4303,0.4387,0.445,0.0,0.0,0.4504,0.4196,0.4144,0.0,0.0,0.0,0.0,0.0,0.0,0.0,0.0,0.0,0.0,0.0,0.0,0.0,0.0,0.0,0.0,0.0,0.0,0.0,0.0,0.0,0.0,0.0,0.0,0.0,0.0,0.0,0.0,0.0,0.0,0.0,0.0,0.0,0.0,0.0,0.0,0.0,0.0,0.0,0.0,0.0,0.0,0.0,0.0,0.0,0.0,0.0,0.0,0.0,0.0,0.0,0.0,0.0,0.0,0.0,0.6025,0.6306,0.7193,0.781,0.8106,0.8665,0.8811,0.844,0.7934,0.7365,0.0,0.0,0.0,0.0,0.0,0.0,0.0,0.0,0.0,0.0,0.0,0.0,0.0,0.0,0.0,0.0,0.0,0.0,0.0,0.0,0.0,0.0,0.0,0.0,0.0,0.0,0.0,0.0,0.0,0.0,0.0,0.0,0.0,0.0,0.0,0.0,0.0,0.0,0.0,0.0,0.0,0.0,0.4387,0.4473,0.0,0.0,0.0,0.4637,0.4514,0.0,0.0,0.0,0.0,0.0,0.0,0.0,0.0,0.0,0.0,0.0,0.0,0.0,0.0,0.0,0.0,0.0,0.0,0.0,0.0,0.0,0.0,0.0,0.0,0.0,0.0,0.0,0.0,0.0,0.0,0.0,0.0,0.0,0.0,0.0,0.0,0.0,0.0,0.0,0.0,0.0,0.0,0.0,0.0,0.0,0.0,0.0,0.0,0.0,0.0,0.0,0.0,0.0,0.0,0.0,0.0,0.0,0.6613,0.7717,0.8341,0.844,0.9226,0.9415,0.8982,0.8554,0.0,0.0,0.0,0.0,0.0,0.0,0.0,0.0,0.0,0.0,0.0,0.0,0.0,0.0,0.0,0.0,0.0,0.0,0.0,0.0,0.0,0.0,0.0,0.0,0.0,0.0,0.0,0.3295,0.0,0.0,0.0,0.0,0.0,0.0,0.0,0.0,0.0,0.0,0.0,0.0,0.0,0.0,0.4344,0.449,0.4531,0.4594,0.0,0.0,0.4769,0.4742,0.4657,0.4539,0.0,0.0,0.0,0.0,0.0,0.0,0.0,0.0,0.0,0.0,0.0,0.0,0.0,0.0,0.0,0.0,0.0,0.0,0.0,0.0,0.0,0.0,0.0,0.0,0.0,0.0,0.0,0.0,0.0,0.0,0.0,0.0,0.0,0.0,0.0,0.0,0.0,0.0,0.0,0.0,0.0,0.0,0.0,0.0,0.0,0.0,0.0,0.0,0.0,0.0,0.0,0.0,0.0,0.0,0.6683,0.7419,0.8311,0.8914,0.9301,1.0159,1.0301,0.9627,0.9246,0.8613,0.0,0.0,0.0,0.0,0.0,0.0,0.0,0.0,0.0,0.0,0.0,0.0,0.0,0.0,0.0,0.0,0.0,0.0,0.0,0.0,0.0,0.0,0.0,0.0,0.0,0.0,0.0,0.0,0.0,0.0,0.0,0.0,0.0,0.0,0.0,0.0,0.0,0.0,0.0,0.0,0.0,0.4344,0.449,0.4602,0.472,0.0,0.4917,0.4914,0.4838,0.4777,0.4732,0.4542,0.0,0.0,0.0,0.0,0.0,0.0,0.0,0.0,0.0,0.0,0.0,0.0,0.0,0.0,0.0,0.0,0.0,0.0,0.0,0.0,0.0,0.0,0.0,0.0,0.0,0.0,0.0,0.0,0.0,0.0,0.0,0.0,0.0,0.0,0.0,0.0,0.0,0.0,0.0,0.0,0.0,0.0,0.0,0.0,0.0,0.0,0.0,0.0,0.0,0.0,0.0,0.0,0.0,0.7296,0.7876,0.872,0.9327,0.9627,1.0329,1.0494,1.0066,0.9562,0.9034,0.0,0.0,0.0,0.0,0.0,0.0,0.0,0.0,0.0,0.0,0.0,0.0,0.0,0.0,0.0,0.0,0.0,0.0,0.0,0.0,0.0,0.0,0.0,0.0,0.0,0.0,0.0,0.0,0.3894,0.3961,0.4097,0.0,0.0,0.0,0.0,0.0,0.0,0.0,0.0,0.0,0.0,0.4501,0.4626,0.466,0.0,0.0,0.4988,0.4963,0.4917,0.4819,0.4692,0.4632,0.4498,0.0,0.0,0.0,0.0,0.0,0.0,0.0,0.0,0.0,0.0,0.0,0.0,0.0,0.0,0.0,0.0,0.0,0.0,0.0,0.0,0.0,0.0,0.0,0.0,0.0,0.0,0.0,0.0,0.0,0.0,0.0,0.0,0.0,0.0,0.0,0.0,0.0,0.0,0.0,0.0,0.0,0.0,0.0,0.0,0.0,0.0,0.0,0.0,0.0,0.0,0.0,0.0,0.7868,0.8289,0.9234,0.9811,1.0019,1.0715,1.0925,1.0611,1.0119,0.9578,0.0,0.0,0.0,0.0,0.0,0.0,0.0,0.0,0.0,0.0,0.0,0.0,0.0,0.0,0.0,0.0,0.0,0.0,0.0,0.0,0.0,0.0,0.0,0.0,0.0,0.0,0.0,0.0,0.403,0.4133,0.4267,0.0,0.0,0.0,0.0,0.0,0.0,0.0,0.0,0.0,0.0,0.4722,0.483,0.4831,0.4922,0.5134,0.5132,0.5093,0.5093,0.4909,0.4786,0.4713,0.0,0.0,0.0,0.0,0.0,0.0,0.0,0.0,0.0,0.0,0.0,0.0,0.0,0.0,0.0,0.0,0.0,0.0,0.0,0.0,0.0,0.0,0.0,0.0,0.0,0.0,0.0,0.3804,0.0,0.0,0.3765,0.0,0.0,0.0,0.0,0.0,0.0,0.0,0.0,0.0,0.0,0.0,0.0,0.0,0.0,0.0,0.0,0.0,0.0,0.0,0.0,0.0,0.0,0.8293,0.8708,0.9786,1.0465,1.07,1.1534,1.1747,1.1291,1.1061,1.047,0.9434,0.0,0.0,0.0,0.0,0.0,0.0,0.0,0.0,0.0,0.0,0.0,0.0,0.0,0.0,0.0,0.0,0.0,0.0,0.0,0.0,0.0,0.0,0.0,0.0,0.0,0.0,0.4267,0.4303,0.4303,0.0,0.0,0.0,0.0,0.0,0.0,0.0,0.0,0.0,0.0,0.4794,0.4894,0.5152,0.5189,0.5292,0.552,0.5401,0.5282,0.5285,0.5121,0.493,0.0,0.0,0.0,0.0,0.0,0.0,0.0,0.0,0.0,0.0,0.0,0.0,0.0,0.0,0.0,0.0,0.0,0.0,0.0,0.0,0.0,0.0,0.0,0.0,0.0,0.0,0.0,0.4923,0.4925,0.0,0.0,0.0,0.0,0.0,0.0,0.0,0.0,0.0,0.0,0.0,0.6201,0.6628,0.0,0.0,0.0,0.0,0.0,0.0,0.0,0.0,0.0,0.0,0.0,0.0,0.8923,0.9728,1.0312,1.0835,1.1365,1.1781,1.1912,1.1784,1.1279,1.0516,0.9434,0.0,0.0,0.0,0.0,0.0,0.0,0.0,0.0,0.0,0.0,0.0,0.0,0.0,0.0,0.0,0.0,0.0,0.0,0.0,0.0,0.0,0.0,0.0,0.0,0.0,0.4233,0.0,0.0,0.0,0.0,0.0,0.0,0.0,0.0,0.0,0.0,0.0,0.5289,0.5229,0.541,0.5513,0.5421,0.5523,0.561,0.0,0.0,0.0,0.0,0.0,0.0,0.0,0.0,0.0,0.0,0.0,0.0,0.0,0.0,0.53,0.5269,0.5597,0.6097,0.6666,0.0,0.0,0.0,0.0,0.0,0.0,0.0,0.0,0.0,0.0,0.0,0.0,0.0,0.0,0.5705,0.0,0.5702,0.0,0.0,0.0,0.0,0.0,0.0,0.0,0.0,0.7058,0.7154,0.719,0.755,0.7812,0.0,0.7841,0.7672,0.0,0.0,0.0,0.0,0.0,0.0,0.0,0.0,0.9533,1.0384,1.0794,1.1281,1.178,1.2076,1.2203,1.2155,1.1324,1.0561,0.9901,0.8971,0.8284,0.0,0.0,0.0,0.0,0.0,0.0,0.0,0.0,0.0,0.0,0.0,0.0,0.0,0.0,0.0,0.0,0.0,0.0,0.0,0.0,0.0,0.0,0.0,0.44,0.0,0.0,0.0,0.0,0.0,0.0,0.0,0.0,0.0,0.5517,0.5716,0.5874,0.5866,0.5961,0.6073,0.6038,0.0,0.0,0.0,0.0,0.0,0.0,0.0,0.5544,0.5544,0.5541,0.5532,0.5578,0.5585,0.5616,0.5705,0.0,0.0,0.5896,0.6231,0.6719,0.7355,0.8132,0.8827,0.9327,0.9909,1.0396,0.0,0.0,0.0,0.0,0.0,0.0,0.0,0.0,0.6178,0.6184,0.0,0.6184,0.0,0.0,0.0,0.0,0.7179,0.7493,0.0,0.0,0.8162,0.8372,0.8584,0.8632,0.8806,0.901,0.8774,0.8837,0.9088,0.8319,0.0,0.0,0.0,0.0,0.0,0.0,1.0149,1.0673,1.1272,1.1729,1.2034,1.2445,1.2613,1.2334,1.1335,1.0719,1.0651,0.9427,0.8661,0.8437,0.7676,0.0,0.0,0.0,0.0,0.0,0.0,0.0,0.0,0.0,0.0,0.0,0.0,0.0,0.0,0.0,0.0,0.0,0.0,0.0,0.0,0.4625,0.0,0.0,0.0,0.0,0.0,0.0,0.0,0.0,0.0,0.0,0.6242,0.637,0.6489,0.6698,0.0,0.0,0.0,0.0,0.6385,0.6577,0.6215,0.5948,0.5909,0.5763,0.5652,0.5652,0.0,0.0,0.609,0.6111,0.6108,0.6127,0.629,0.6461,0.6664,0.7041,0.7562,0.8262,0.9072,0.9761,1.0263,1.0654,1.1083,0.8355,0.0,0.0,0.0,0.0,0.7278,0.73,0.7368,0.7368,0.7364,0.7364,0.7368,0.0,0.0,0.0,0.0,0.0,0.0,0.8423,0.8684,0.8877,0.9078,0.934,0.951,0.9783,1.0148,0.9902,1.0061,1.0398,0.985,0.9352,0.898,0.0,0.0,0.0,0.0,1.0505,1.126,1.1524,1.1899,1.2505,1.262,1.2529,1.2141,1.1613,1.1158,1.083,1.0007,0.9463,0.9279,0.8479,0.0,0.0,0.0,0.0,0.0,0.0,0.0,0.0,0.0,0.0,0.0,0.0,0.0,0.0,0.0,0.0,0.0,0.0,0.0,0.4728,0.4858,0.4891,0.0,0.0,0.0,0.0,0.0,0.0,0.0,0.0,0.0,0.709,0.7061,0.7116,0.0,0.0,0.7175,0.7138,0.7028,0.6854,0.6633,0.6581,0.0,0.637,0.6381,0.6369,0.6369,0.6443,0.6486,0.6526,0.6536,0.6602,0.6754,0.688,0.7105,0.766,0.7675,0.7924,0.8673,0.9322,0.9938,1.0638,1.1042,1.1335,0.9183,0.8519,0.817,0.7998,0.8002,0.7786,0.7803,0.79,0.7984,0.8028,0.8028,0.8113,0.8098,0.8049,0.846,0.0,0.0,0.0,0.9288,0.9589,0.9728,0.9994,1.0294,1.0424,1.0679,1.1015,1.0921,1.1024,1.1394,1.1016,1.0661,1.0329,0.0,0.0,1.0663,1.0663,1.1024,1.1751,1.1912,1.2213,1.262,1.259,1.2392,1.2106,1.1675,1.1303,1.1035,1.028,0.9846,0.9728,0.8967,0.8245,0.0,0.0,0.0,0.0,0.0,0.0,0.0,0.0,0.0,0.0,0.0,0.4791,0.4791,0.0,0.0,0.0,0.516,0.5193,0.503,0.5256,0.0,0.0,0.0,0.0,0.0,0.0,0.0,0.6251,0.6755,0.7175,0.7461,0.7499,0.7611,0.7875,0.7733,0.7616,0.758,0.0,0.7164,0.6852,0.6871,0.685,0.6644,0.6641,0.6722,0.6783,0.6841,0.6902,0.6959,0.7014,0.7119,0.7223,0.7277,0.7517,0.8163,0.8274,0.8486,0.9302,0.9947,1.059,1.1405,1.1708,1.2005,1.0081,0.9994,0.9161,0.8719,0.8636,0.8204,0.8032,0.8028,0.8204,0.8288,0.8332,0.8592,0.8723,0.8763,0.9209,0.0,1.0081,1.012,1.0342,1.0674,1.0722,1.0939,1.1408,1.1413,1.1542,1.1794,1.1834,1.1933,1.2117,1.183,1.1809,1.1996,1.1097,1.0911,1.1372,1.1446,1.1665,1.2107,1.2406,1.2546,1.2558,1.2365,1.227,1.2205,1.1583,1.1212,1.1182,1.0399,0.9927,0.9922,0.9185,0.8495,0.7969,0.0,0.0,0.0,0.0,0.0,0.0,0.0,0.0,0.0,0.0,0.0,0.0,0.0,0.0,0.0,0.5793,0.0,0.5528,0.5804,0.0,0.0,0.0,0.5346,0.5624,0.5811,0.6077,0.6412,0.0,0.0,0.7533,0.774,0.8004,0.8361,0.8046,0.788,0.8059,0.7694,0.7329,0.7133,0.7108,0.7006,0.676,0.6739,0.6814,0.6956,0.7031,0.7156,0.7388,0.7472,0.758,0.7604,0.7614,0.7766,0.8233,0.8742,0.9354,1.0087,1.0791,1.1507,1.2206,1.2558,1.2818,1.0977,1.0939,1.0376,0.9811,0.9336,0.9082,0.8955,0.8951,0.8995,0.9122,0.9253,0.9336,0.9641,1.0154,1.025,1.0549,1.0982,1.0982,1.1241,1.1666,1.1671,1.1923,1.2357,1.2357,1.2485,1.2747,1.2778,1.2874,1.3024,1.2782,1.2781,1.2917,1.233,1.1898,1.1645,1.1632,1.1778,1.2068,1.2176,1.2263,1.2286,1.2258,1.208,1.1688,1.1522,1.1316,1.1145,1.0586,1.0269,1.0264,0.9529,0.8904,0.8451,0.804,0.0,0.0,0.0,0.0,0.0,0.0,0.0,0.0,0.0,0.569,0.5723,0.0,0.6152,0.0,0.6449,0.6519,0.6189,0.6605,0.0,0.0,0.6252,0.6268,0.6242,0.625,0.6452,0.6805,0.7045,0.7389,0.7901,0.813,0.826,0.8329,0.8146,0.7995,0.7809,0.7721,0.7505,0.7107,0.7104,0.708,0.6927,0.6923,0.7085,0.7244,0.7295,0.737,0.7519,0.7573,0.7631,0.7736,0.776,0.7994,0.8533,0.8957,0.9539,1.0444,1.1028,1.1584,1.2506,1.274,1.2922,1.1929,1.1886,1.1413,1.1025,1.0598,0.9912,0.9607,0.9602,0.9694,0.9864,1.0072,1.0289,1.0679,1.1241,1.1241,1.1499,1.1929,1.1929,1.21,1.2485,1.2491,1.2662,1.3009,1.3003,1.3094,1.3222,1.3307,1.3434,1.3506,1.3367,1.3254,1.3239,1.2837,1.2416,1.1979,1.1966,1.205,1.2181,1.2241,1.2324,1.2466,1.2168,1.1914,1.165,1.1413,1.1176,1.0942,1.058,1.0342,1.0195,0.9632,0.9122,0.8833,0.8425,0.7986,0.0,0.0,0.0,0.0,0.0,0.0,0.0,0.0,0.0,0.0,0.0,0.6872,0.6872,0.7215,0.7341,0.704,0.7377,0.7459,0.7116,0.6922,0.6833,0.6771,0.6601,0.6651,0.7004,0.7111,0.7289,0.7672,0.7829,0.7906,0.7851,0.7881,0.7837,0.7699,0.7649,0.7507,0.7136,0.7225,0.7269,0.7156,0.7193,0.7295,0.7441,0.7526,0.7597,0.7678,0.775,0.7776,0.7892,0.7864,0.808,0.8662,0.9034,0.9529,1.0534,1.1159,1.1769,1.2601,1.2976,1.321,1.2869,1.2833,1.2357,1.2186,1.2057,1.0857,1.0299,1.0164,1.0337,1.0554,1.0804,1.1241,1.1709,1.2143,1.2143,1.2406,1.279,1.279,1.2924,1.3179,1.3179,1.3264,1.3476,1.3483,1.3483,1.3483,1.3652,1.3779,1.373,1.3697,1.3554,1.326,1.2953,1.2697,1.2371,1.2318,1.2305,1.2305,1.2346,1.2518,1.2765,1.2138,1.1826,1.1737,1.1351,1.0991,1.0695,1.0509,1.0266,1.0014,0.9614,0.9303,0.9136,0.8756,0.8447,0.0,0.7927,0.0,0.0,0.0,0.0,0.0,0.0,0.0,0.0,0.7419,0.7695,0.7695,0.8062,0.8225,0.8025,0.8174,0.8234,0.8056,0.7547,0.7264,0.7348,0.7011,0.6874,0.72,0.7173,0.7207,0.7368,0.7352,0.7356,0.7408,0.7508,0.7573,0.7552,0.7547,0.7465,0.7207,0.7323,0.7358,0.7354,0.736,0.7421,0.759,0.7709,0.7818,0.7834,0.7891,0.7982,0.7985,0.7978,0.818,0.8676,0.8981,0.9476,1.0507,1.1126,1.1794,1.2576,1.3156,1.3588,1.3851,1.3808,1.3343,1.3137,1.3094,1.2443,1.1757,1.1068,1.1111,1.1327,1.1757,1.2057,1.2448,1.2881,1.2881,1.3045,1.3264,1.3264,1.3392,1.3568,1.3561,1.3737,1.3955,1.3955,1.3962,1.3955,1.4004,1.4039,1.4039,1.4028,1.3854,1.352,1.3267,1.2973,1.2703,0.0,0.0,0.0,1.2284,1.2269,1.2172,1.2045,1.1826,1.149,1.1397,0.0,1.0731,1.0449,1.0215,0.9924,0.9524,0.0,0.0,0.0,0.0,0.0,0.0,0.0,0.0,0.0,0.0,0.0,0.859,0.8478,0.7877,0.8314,0.8624,0.8635,0.907,0.9246,0.9042,0.9189,0.9181,0.8818,0.8519,0.8303,0.8197,0.7798,0.7648,0.7859,0.7599,0.7465,0.7705,0.7646,0.7521,0.7462,0.7483,0.7402,0.7229,0.7381,0.7409,0.7193,0.7166,0.7245,0.7346,0.7373,0.7461,0.7695,0.7787,0.7851,0.7901,0.7948,0.7985,0.7978,0.7988,0.8184,0.8673,0.8829,0.9225,1.0261,1.09,1.1585,1.257,1.3152,1.3588,1.4577,1.4356,1.4026,1.3899,0.0,1.3506,1.3118,1.2644,1.2186,1.2192,1.2577,1.279,1.3094,1.3392,1.3392,1.3525,1.3743,1.3737,1.3828,1.3913,1.3913,1.3955,1.4088,1.4088,1.4088,1.4088,1.4088,1.4088,1.4088,1.4088,1.3935,1.3606,1.346,1.3273,1.3012,1.271,1.2452,1.2305,1.2305,1.2261,1.215,1.204,1.1855,1.1552,1.1446,0.0,0.0,0.0,0.0,0.0,0.0,0.0,0.0,0.9242,0.0,0.906,0.9071,0.9041,0.8948,0.9159,0.9271,0.9299,0.9683,0.9672,0.8934,0.9242,0.9451,0.9359,0.9781,0.9953,0.9787,0.9823,0.9818,0.9601,0.9342,0.9092,0.8839,0.8528,0.8284,0.8176,0.7889,0.7716,0.7671,0.7642,0.7494,0.7305,0.7323,0.7279,0.7139,0.7231,0.7231,0.7095,0.7095,0.7149,0.7381,0.7373,0.7487,0.7648,0.7706,0.7736,0.7807,0.7821,0.7821,0.7828,0.783,0.8024,0.8427,0.8671,0.9072,0.9871,1.056,1.1247,1.2078,1.2905,1.3588,1.5184,1.4902,1.4629,1.4524,1.4482,1.4314,1.4223,1.4139,1.3258,0.0,0.0,1.3434,1.361,1.3815,1.3779,1.387,1.4088,1.4088,1.4088,1.4088,1.4088,1.4088,1.4088,1.4088,1.4088,1.4088,1.4088,1.4088,1.4088,1.4088,1.3941,1.3626,1.3606,1.3453,1.3213,1.2998,1.2717,1.2392,1.2325,1.2305,1.2305,1.215,1.1966,1.175,1.1595,1.118,1.0522,1.0469,1.0244,0.9782,0.9746,0.9752,0.9752,0.9642,0.9577,0.9583,0.9642,0.9653,0.9659,1.0035,1.0287,1.03,1.0615,1.0561,1.0032,1.0207,1.023,1.009,1.0468,1.0646,1.0471,1.0439,1.0436,1.0441,1.0119,0.9829,0.9562,0.9216,0.8907,0.8514,0.8262,0.7951,0.765,0.7544,0.7415,0.7187,0.7139,0.7095,0.7095,0.7139,0.7139,0.7095,0.7095,0.7149,0.7329,0.7373,0.748,0.7577,0.7607,0.7597,0.7597,0.7597,0.7597,0.7624,0.7716,0.7904,0.8174,0.8479,0.892,0.948,1.0216,1.09,1.1541,1.2565,1.3485,1.5755,1.5697,1.5204,1.5006,1.4957,1.4741,1.4608,1.4566,1.3857,1.3815,1.4188,1.3815,1.3899,1.4272,1.4117,1.4082,1.4088,1.4088,1.4088,1.4088,1.4088,1.4088,1.4088,1.4088,1.4088,1.4088,1.4088,1.4088,1.4088,1.4088,1.3935,1.364,1.3606,1.346,1.3233,1.3166,1.2993,1.273,1.2469,1.2305,1.2305,1.2268,1.215,1.1966,1.1929,1.1676,1.1177,1.1165,1.1019,1.0716,1.0697,1.0703,1.0697,1.0684,1.0697,1.0697,1.0666,1.0679,1.0685,1.0757,1.0883,1.1104,1.1165,1.107,1.0773,1.0997,1.1129,1.1106,1.1338,1.1538,1.1483,1.1342,1.1263,1.1293,1.1044,1.0745,1.0474,1.0094,0.9657,0.9197,0.8767,0.8337,0.7933,0.7635,0.7415,0.7187,0.7095,0.7095,0.7095,0.7095,0.7095,0.7095,0.7095,0.7162,0.7316,0.737,0.7417,0.7573,0.7577,0.7563,0.756,0.756,0.756,0.7587,0.7695,0.7887,0.8152,0.8332,0.8761,0.9426,1.0019,1.0708,1.1438,1.2462,1.3335,1.6228,1.587,1.5632,1.5416,1.5264,1.5131,1.5082,1.5041,1.4622,1.4489,1.4524,1.4314,1.4356,1.4566,1.4454,1.437,1.4237,1.4279,1.4208,1.4088,1.4088,1.4088,1.4088,1.4088,1.4088,1.4088,1.4088,1.4088,1.4088,1.4088,1.4021,1.3846,1.3881,1.3693,1.3467,1.3407,1.33,1.2999,1.273,1.2502,1.2311,1.2305,1.2194,1.2003,1.2003,1.1799,1.1306,1.1293,1.1166,1.0893,1.088,1.088,1.088,1.088,1.088,1.0886,1.1061,1.1102,1.1109,1.1349,1.1605,1.183,1.1843,1.1798,1.1667,1.1663,1.1631,1.1522,1.171,1.1895,1.1967,1.1769,1.1744,1.189,1.1699,1.1402,1.1059,1.0779,1.0323,0.9733,0.9283,0.8727,0.8113,0.7852,0.7547,0.7231,0.7095,0.7095,0.7095,0.7095,0.7095,0.7095,0.7095,0.7122,0.7238,0.7244,0.7278,0.7343,0.735,0.7307,0.7307,0.7353,0.7311,0.7321,0.7486,0.7726,0.79,0.8279,0.8746,0.9076,0.9867,1.0605,1.134,1.2506,1.3667,1.6579,1.6133,1.6052,1.5833,1.5491,1.5418,1.5389,1.5389,1.5215,1.5041,1.4866,1.4734,1.4734,1.4783,1.4734,1.4615,1.4482,1.4482,1.4398,1.425,1.4208,1.4208,1.4201,1.4208,1.4166,1.4208,1.4208,1.4166,1.4166,1.4124,1.4088,1.4088,1.4088,1.3968,1.3706,1.37,1.356,1.3313,1.3112,1.2811,1.2418,1.2405,1.2297,1.2083,1.204,1.1905,1.1546,1.1533,1.143,1.123,1.1211,1.1211,1.1211,1.1211,1.1246,1.123,1.141,1.1533,1.1546,1.1879,1.212,1.2268,1.2305,1.2305,1.2305,1.215,1.2009,1.1898,1.1966,1.2127,1.2279,1.2099,1.2081,1.2394,1.2252,1.1896,1.15,1.1182,1.0722,1.0125,0.9563,0.8995,0.8336,0.7984,0.7676,0.7231,0.7095,0.7095,0.7095,0.7095,0.7095,0.7095,0.7095,0.7098,0.7095,0.7102,0.7105,0.7095,0.7105,0.7125,0.7122,0.7109,0.7102,0.7149,0.7404,0.7627,0.7722,0.8222,0.8693,0.8977,0.9673,1.0511,1.1438,1.27,1.4004,1.6866,1.6771,1.6492,1.6148,1.584,1.5513,1.5403,1.5389,1.5347,1.5347,1.5298,1.4908,1.4866,1.4999,1.4824,1.4699,1.4692,1.4692,1.465,1.4608,1.444,1.4482,1.4615,1.444,1.4482,1.4573,1.4482,1.4356,1.4363,1.4208,1.4088,1.4088,1.4088,1.4068,1.4035,1.4035,1.3895,1.3573,1.3533,1.328,1.2784,1.2744,1.2616,1.2274,1.2268,1.2254,1.2171,1.2191,1.2215,1.2188,1.2131,1.2138,1.2138,1.2145,1.2181,1.2131,1.2171,1.2228,1.2184,1.2248,1.2268,1.2305,1.2305,1.2305,1.2305,1.2268,1.2268,1.2244,1.2274,1.2421,1.2681,1.2563,1.2555,1.2785,1.2535,1.2248,1.1858,1.1365,1.0722,1.0081,0.9563,0.8955,0.816,0.7896,0.7676,0.7187,0.7095,0.7095,0.7095,0.7095,0.7095,0.7095,0.7095,0.7095,0.7095,0.7095,0.7095,0.7095,0.7095,0.7095,0.7095,0.7095,0.7095,0.7125,0.7344,0.7627,0.7891,0.826,0.8619,0.908,0.9723,1.0507,1.1878,1.2942,1.3763,1.7026,1.6888,1.6756,1.6411,1.5928,1.5774,1.5564,1.5396,1.5389,1.5389,1.5389,1.5166,1.5166,1.5257,1.5173,1.5041,1.495,1.495,1.4824,1.4692,1.4608,1.4608,1.4699,1.4608,1.465,1.4685,1.4608,1.4573,1.4566,1.4363,1.4279,1.4243,1.4166,1.4088,1.4088,1.4088,1.4021,1.3915,1.3908,1.3701,1.332,1.3106,1.2918,1.2636,1.2603,1.2478,1.2325,1.2305,1.2305,1.2305,1.2305,1.2305,1.2305,1.2305,1.2305,1.2305,1.2305,1.2305,1.2305,1.2305,1.2305,1.2305,1.2305,1.2305,1.2305,1.2305,1.2365,1.2538,1.2596,1.2685,1.2837,1.2808,1.2798,1.2793,1.2559,1.2192,1.1634,1.1246,1.0771,1.0081,0.9563,0.8995,0.8245,0.7716,0.7363,0.7139,0.7095,0.7095,0.7095,0.7095,0.7095,0.7095,0.7095,0.7095,0.7095,0.7095,0.7095,0.7095,0.7095,0.7095,0.7095,0.7095,0.7095,0.7098,0.7404,0.7674,0.7922,0.8356,0.8779,0.9229,0.9969,1.085,1.1927,1.2657,1.3335,1.7194,1.7035,1.6939,1.6639,1.6162,1.5987,1.5739,1.552,1.5433,1.5389,1.5389,1.5389,1.5389,1.5389,1.5389,1.5298,1.5173,1.5173,1.5082,1.4866,1.4824,1.4824,1.4866,1.4824,1.4831,1.4866,1.4824,1.4776,1.4692,1.4566,1.4433,1.4391,1.4237,1.4166,1.4088,1.4088,1.4088,1.4082,1.4088,1.3975,1.372,1.3561,1.3306,1.2958,1.2911,1.2764,1.2476,1.2418,1.2385,1.2305,1.2305,1.2305,1.2305,1.2305,1.2305,1.2305,1.2305,1.2305,1.2305,1.2305,1.2305,1.2305,1.2365,1.2425,1.2438,1.2498,1.2645,1.2871,1.29,1.2988,1.3021,1.2945,1.2837,1.2699,1.2363,1.1886,1.1365,1.0982,1.0511,0.9951,0.9384,0.8819,0.8116,0.7496,0.7139,0.7095,0.7095,0.7095,0.7095,0.7095,0.7095,0.7095,0.7095,0.7095,0.7095,0.7095,0.7095,0.7095,0.7095,0.7095,0.7095,0.7095,0.7187,0.7241,0.7458,0.7755,0.8164,0.8564,0.8977,0.9476,1.0117,1.0904,1.159,1.2224,1.2905,1.7318,1.726,1.6974,1.6881,1.6807,1.6191,1.5921,1.587,1.5535,1.5396,1.5411,1.5389,1.5389,1.5389,1.5389,1.5389,1.5389,1.5389,1.534,1.5298,1.5131,1.5173,1.5347,1.5173,1.5173,1.5305,1.5131,1.4957,1.4734,1.4692,1.4608,1.4433,1.4398,1.4286,1.4166,1.413,1.4088,1.4124,1.4088,1.4075,1.4055,1.4035,1.3748,1.3273,1.3193,1.3039,1.279,1.2757,1.263,1.2318,1.2305,1.2305,1.2305,1.2305,1.2305,1.2305,1.2305,1.2305,1.2305,1.2325,1.2331,1.2351,1.2623,1.2764,1.2784,1.2946,1.3113,1.3193,1.3193,1.3228,1.3164,1.2874,1.2654,1.2535,1.1843,1.1413,1.1284,1.0511,0.9994,0.9559,0.899,0.838,0.768,0.7275,0.7139,0.7095,0.7095,0.7095,0.7095,0.7095,0.7095,0.7095,0.7095,0.7095,0.7095,0.7095,0.7095,0.7095,0.7095,0.7095,0.7095,0.7112,0.7227,0.7371,0.7531,0.7874,0.8357,0.8826,0.9235,0.9624,1.0019,1.0659,1.1292,1.1932,1.2559,1.7473,1.7271,1.7208,1.7047,1.6881,1.6653,1.6396,1.6184,1.5877,1.5738,1.5659,1.5484,1.5389,1.5389,1.5389,1.5389,1.5389,1.5389,1.5389,1.5389,1.5347,1.5347,1.5389,1.534,1.5298,1.5389,1.5298,1.5257,1.5166,1.5041,1.4915,1.4824,1.4699,1.4566,1.4496,1.4363,1.4279,1.4279,1.4166,1.4088,1.413,1.4088,1.3975,1.3781,1.3587,1.3253,1.2797,1.2784,1.2643,1.2318,1.2305,1.2305,1.2305,1.2305,1.2305,1.2305,1.2305,1.2305,1.2325,1.2478,1.2623,1.2643,1.2872,1.3085,1.306,1.3153,1.3207,1.3258,1.3276,1.3207,1.2956,1.2734,1.2427,1.1863,1.1413,1.0939,1.0511,1.0038,0.9559,0.899,0.8332,0.7812,0.7547,0.7279,0.7095,0.7095,0.7095,0.7095,0.7095,0.7095,0.7095,0.7095,0.7095,0.7095,0.7095,0.7095,0.7095,0.7095,0.7095,0.7095,0.7095,0.7112,0.7217,0.7415,0.7612,0.8004,0.8546,0.9059,0.9456,0.9723,1.0117,1.0462,1.1096,1.1634,1.2273,1.7527,1.7326,1.7286,1.7201,1.7049,1.6947,1.6778,1.6536,1.6199,1.6009,1.5884,1.5679,1.5533,1.5403,1.5389,1.5389,1.5389,1.5389,1.5389,1.5389,1.5389,1.5389,1.5389,1.5389,1.5389,1.5389,1.5389,1.5389,1.5389,1.5264,1.5166,1.509,1.4915,1.4783,1.4692,1.4566,1.4517,1.4482,1.437,1.4286,1.4292,1.4201,1.4201,1.4132,1.3888,1.3554,1.3099,1.3039,1.2884,1.2549,1.2445,1.2398,1.2318,1.2305,1.2305,1.2311,1.2398,1.2482,1.2485,1.2764,1.2938,1.2951,1.3166,1.3313,1.336,1.344,1.3472,1.3446,1.3284,1.304,1.265,1.2357,1.1972,1.137,1.0944,1.0511,1.0038,0.9602,0.9082,0.8464,0.7896,0.7547,0.737,0.7231,0.7139,0.7095,0.7095,0.7095,0.7095,0.7095,0.7095,0.7095,0.7095,0.7095,0.7095,0.7095,0.7095,0.7095,0.7095,0.7095,0.7112,0.7129,0.7261,0.746,0.7804,0.824,0.872,0.9245,0.9596,0.9817,1.0019,1.0261,1.0801,1.1292,1.1975,1.7527,1.7333,1.7286,1.7271,1.7252,1.7057,1.6917,1.6851,1.6558,1.6243,1.6052,1.5913,1.5681,1.5462,1.5411,1.5389,1.5389,1.5389,1.5389,1.5389,1.5389,1.5389,1.5389,1.5389,1.5389,1.5389,1.5389,1.5389,1.5389,1.5389,1.5305,1.5131,1.509,1.4999,1.4734,1.4734,1.4699,1.4692,1.4657,1.465,1.4692,1.4482,1.4363,1.4356,1.4181,1.3915,1.3586,1.356,1.3313,1.2871,1.279,1.265,1.2425,1.2385,1.2345,1.2425,1.2643,1.2777,1.2824,1.3033,1.3213,1.3247,1.344,1.3606,1.364,1.382,1.3882,1.3636,1.3269,1.2869,1.24,1.1757,1.1327,1.1192,1.0554,1.0038,0.982,0.9297,0.8644,0.8072,0.7632,0.7367,0.7187,0.7139,0.7095,0.7095,0.7095,0.7095,0.7095,0.7095,0.7095,0.7095,0.7095,0.7095,0.7095,0.7095,0.7095,0.7095,0.7095,0.7098,0.7177,0.7207,0.7353,0.7555,0.8039,0.8486,0.8999,0.9456,0.9509,0.9723,0.992,1.0064,1.0556,1.1096,1.1878,1.7675,1.7535,1.738,1.7286,1.7279,1.7223,1.7186,1.7143,1.6843,1.6697,1.6499,1.6104,1.5855,1.5731,1.5506,1.5389,1.5389,1.5389,1.5389,1.5389,1.5389,1.5389,1.5389,1.5389,1.5389,1.5389,1.5389,1.5389,1.5389,1.5389,1.5347,1.5298,1.5305,1.5257,1.5173,1.5048,1.4999,1.4957,1.4776,1.4692,1.4692,1.4524,1.4398,1.4398,1.4201,1.4035,1.3948,1.3713,1.3467,1.3086,1.3066,1.3019,1.2939,1.2926,1.2926,1.2939,1.3006,1.3066,1.31,1.3333,1.3467,1.3513,1.3781,1.3928,1.3906,1.3853,1.3743,1.3483,1.3094,1.2577,1.1929,1.1241,1.0809,1.0593,1.0077,0.9559,0.9257,0.8644,0.8164,0.7896,0.7499,0.7231,0.7139,0.7095,0.7095,0.7095,0.7095,0.7095,0.7095,0.7095,0.7095,0.7095,0.7095,0.7095,0.7095,0.7095,0.7095,0.7095,0.7095,0.7095,0.7177,0.7302,0.7448,0.7769,0.826,0.8724,0.9247,0.9525,0.9575,0.9624,0.9723,1.0019,1.0364,1.0998,1.1736,1.7869,1.7675,1.7527,1.738,1.7333,1.7286,1.7286,1.7257,1.7121,1.7013,1.6822,1.6448,1.6126,1.5913,1.5652,1.5498,1.5403,1.5389,1.5389,1.5389,1.5389,1.5389,1.5389,1.5389,1.5389,1.5389,1.5389,1.5389,1.5389,1.5389,1.5389,1.5389,1.5389,1.5389,1.5389,1.5305,1.5215,1.5173,1.5041,1.4957,1.4908,1.4783,1.4608,1.4482,1.4328,1.4166,1.411,1.3901,1.3674,1.3414,1.328,1.3213,1.3206,1.32,1.3206,1.3227,1.3267,1.3327,1.336,1.3641,1.3766,1.3806,1.3981,1.4075,1.4039,1.3864,1.361,1.3264,1.2753,1.2192,1.158,1.0852,1.0337,1.0077,0.9602,0.917,0.8688,0.8204,0.7856,0.772,0.7363,0.7183,0.7095,0.7095,0.7095,0.7095,0.7095,0.7095,0.7095,0.7095,0.7095,0.7095,0.7095,0.7095,0.7095,0.7095,0.7095,0.7095,0.7095,0.7095,0.7112,0.7366,0.7589,0.8089,0.8592,0.8864,0.9377,0.9525,0.9624,0.9624,0.9624,0.992,1.0314,1.0806,1.1541,1.8195,1.7768,1.7721,1.7535,1.738,1.7286,1.7286,1.7286,1.7311,1.715,1.6976,1.6851,1.6558,1.6074,1.5928,1.5688,1.5462,1.5389,1.5389,1.5389,1.5389,1.5389,1.5389,1.5389,1.5389,1.5389,1.5389,1.5389,1.5389,1.5389,1.5389,1.5389,1.5389,1.5389,1.5389,1.5389,1.5389,1.5389,1.5389,1.534,1.534,1.5124,1.4915,1.4699,1.4447,1.4286,1.4117,1.4048,1.3935,1.3633,1.3454,1.3347,1.3293,1.326,1.332,1.3353,1.35,1.36,1.3686,1.3881,1.4041,1.4041,1.4013,1.4088,1.3997,1.3695,1.3392,1.3045,1.24,1.1757,1.1198,1.0511,0.9907,0.9515,0.9126,0.8736,0.8288,0.8028,0.7812,0.7547,0.7279,0.7095,0.7095,0.7095,0.7095,0.7095,0.7095,0.7095,0.7095,0.7095,0.7095,0.7095,0.7095,0.7095,0.7095,0.7095,0.7095,0.7095,0.7098,0.7102,0.7142,0.74,0.7837,0.8348,0.8738,0.9065,0.9377,0.9525,0.9624,0.9624,0.9723,0.992,1.0314,1.085,1.159,1.8435,1.8249,1.7869,1.7628,1.7581,1.7372,1.7286,1.7286,1.7286,1.7282,1.7165,1.7005,1.6822,1.6609,1.6118,1.5862,1.5752,1.554,1.5389,1.5389,1.5389,1.5389,1.5389,1.5389,1.5389,1.5389,1.5389,1.5389,1.5389,1.5389,1.5389,1.5389,1.5389,1.5389,1.5389,1.5389,1.5389,1.5389,1.5389,1.5389,1.5347,1.4999,1.4776,1.4699,1.437,1.4166,1.4088,1.4088,1.4068,1.3981,1.3908,1.3854,1.3821,1.3821,1.3801,1.3828,1.3895,1.3961,1.3975,1.4035,1.4082,1.4082,1.3913,1.3786,1.3779,1.3307,1.296,1.2662,1.2015,1.1284,1.0809,1.012,0.9428,0.8723,0.8604,0.8516,0.8201,0.8028,0.7812,0.7547,0.7275,0.7139,0.7095,0.7095,0.7095,0.7095,0.7095,0.7095,0.7095,0.7095,0.7095,0.7095,0.7095,0.7095,0.7095,0.7095,0.7095,0.7095,0.7098,0.7109,0.7244,0.7414,0.797,0.8581,0.8791,0.9076,0.9377,0.9624,0.9624,0.9624,0.9772,1.0019,1.0408,1.0949,1.1736,1.8566,1.8481,1.8048,1.7815,1.7675,1.738,1.7286,1.7286,1.7286,1.7286,1.7235,1.7143,1.7027,1.6859,1.6477,1.6228,1.6074,1.5774,1.565,1.5606,1.5455,1.5396,1.5389,1.5389,1.5389,1.5389,1.5389,1.5389,1.5389,1.5389,1.5389,1.5389,1.5389,1.5389,1.5389,1.5389,1.5389,1.5389,1.5389,1.5347,1.5257,1.4999,1.4783,1.4608,1.4321,1.4201,1.4124,1.4088,1.4088,1.4082,1.4082,1.4088,1.4088,1.4088,1.4088,1.4088,1.4088,1.4082,1.3955,1.3913,1.3913,1.3822,1.3652,1.3568,1.3392,1.296,1.2656,1.2235,1.1585,1.0982,1.0337,0.9641,0.8942,0.8376,0.8252,0.8212,0.794,0.7768,0.7591,0.7367,0.7231,0.7095,0.7095,0.7095,0.7095,0.7095,0.7095,0.7095,0.7095,0.7095,0.7095,0.7095,0.7095,0.7095,0.7095,0.7095,0.7095,0.7095,0.7132,0.7132,0.7329,0.7525,0.8076,0.8559,0.878,0.9031,0.9377,0.9624,0.9624,0.9673,0.9871,1.0113,1.0507,1.1145,1.1927,1.8689,1.8527,1.8226,1.8001,1.7721,1.7473,1.7333,1.7286,1.7286,1.7286,1.7279,1.7279,1.7157,1.6947,1.6851,1.6719,1.6448,1.6104,1.5994,1.587,1.5694,1.5484,1.5484,1.5452,1.5396,1.5389,1.5389,1.5389,1.5389,1.5389,1.5389,1.5347,1.5347,1.5347,1.5264,1.5305,1.5298,1.5257,1.5257,1.5173,1.5041,1.4915,1.4741,1.4482,1.4363,1.4243,1.4124,1.4088,1.4088,1.4088,1.4088,1.4088,1.4088,1.4082,1.4046,1.3997,1.3997,1.387,1.3701,1.3652,1.3568,1.344,1.3355,1.3179,1.2918,1.2571,1.2186,1.1714,1.1198,1.0506,0.9811,0.903,0.8508,0.8116,0.7944,0.7768,0.7551,0.7507,0.7415,0.7143,0.7095,0.7095,0.7095,0.7095,0.7095,0.7095,0.7095,0.7095,0.7095,0.7095,0.7095,0.7095,0.7095,0.7095,0.7095,0.7095,0.7095,0.7102,0.7204,0.7261,0.7491,0.7788,0.8181,0.8578,0.8882,0.9179,0.9476,0.9624,0.9624,0.9727,0.992,1.0167,1.0511,1.134,1.2127,1.8789,1.8697,1.8473,1.8234,1.8001,1.7721,1.7481,1.7286,1.7286,1.7286,1.7286,1.7286,1.7235,1.7194,1.7035,1.6851,1.6763,1.6477,1.6316,1.6235,1.595,1.5826,1.5703,1.5542,1.5403,1.5396,1.5389,1.5389,1.5389,1.5389,1.5298,1.5173,1.5173,1.5048,1.4908,1.4908,1.4866,1.4866,1.4866,1.4866,1.4783,1.4657,1.4531,1.4398,1.4243,1.4166,1.413,1.4088,1.4088,1.4088,1.4088,1.4082,1.4039,1.3906,1.3822,1.3737,1.3652,1.3525,1.344,1.3313,1.3222,1.3094,1.2747,1.2491,1.2229,1.1843,1.1499,1.1068,1.0598,0.9898,0.9113,0.8548,0.8113,0.7812,0.7635,0.7503,0.7323,0.737,0.7323,0.7187,0.7095,0.7095,0.7095,0.7095,0.7095,0.7095,0.7095,0.7095,0.7095,0.7095,0.7095,0.7095,0.7095,0.7095,0.7095,0.7095,0.7095,0.7122,0.7227,0.7329,0.7562,0.7942,0.8313,0.8687,0.9011,0.9282,0.9579,0.9624,0.9624,0.9776,0.9974,1.0314,1.0801,1.1585,1.2316,1.8781,1.8789,1.8574,1.8334,1.8094,1.7807,1.7527,1.7333,1.7286,1.7286,1.7286,1.7286,1.7286,1.7271,1.7165,1.7084,1.7004,1.6793,1.6543,1.6374,1.6184,1.6133,1.606,1.5811,1.5599,1.5433,1.5389,1.5389,1.5389,1.5298,1.5173,1.509,1.4957,1.4873,1.4734,1.4692,1.4734,1.4734,1.4692,1.465,1.4524,1.4475,1.4321,1.4279,1.4166,1.4088,1.4088,1.4088,1.4088,1.4082,1.3997,1.3913,1.3913,1.3786,1.3603,1.3434,1.3349,1.3094,1.2966,1.2705,1.254,1.2448,1.2106,1.1806,1.1542,1.1198,1.0852,1.0511,1.0081,0.9467,0.8679,0.8113,0.7764,0.7591,0.737,0.7279,0.7187,0.7231,0.7279,0.7139,0.7095,0.7095,0.7095,0.7095,0.7095,0.7095,0.7095,0.7095,0.7095,0.7095,0.7095,0.7095,0.7095,0.7095,0.7095,0.7095,0.7095,0.7187,0.7261,0.7387,0.7553,0.8007,0.8412,0.8747,0.908,0.9331,0.9579,0.9579,0.9677,0.9875,1.0167,1.0511,1.1047,1.178,1.2506,1.8781,1.8781,1.8604,1.8381,1.8087,1.7854,1.7574,1.7333,1.7286,1.7286,1.7286,1.7286,1.7286,1.7279,1.7271,1.7279,1.7245,1.7084,1.6806,1.663,1.6499,1.6499,1.6411,1.6133,1.5877,1.5542,1.5425,1.5396,1.5347,1.5222,1.509,1.4999,1.4783,1.4615,1.4615,1.4615,1.458,1.4531,1.4531,1.4489,1.4363,1.4314,1.4243,1.4166,1.4124,1.4088,1.4088,1.4088,1.4088,1.4082,1.3822,1.3695,1.361,1.3561,1.3434,1.3058,1.2918,1.2625,1.232,1.2015,1.1757,1.1542,1.1284,1.1025,1.0809,1.0549,1.0294,0.9951,0.9559,0.9117,0.8508,0.794,0.7547,0.7415,0.7231,0.7139,0.7095,0.7095,0.7095,0.7095,0.7095,0.7095,0.7095,0.7095,0.7095,0.7095,0.7095,0.7095,0.7095,0.7095,0.7095,0.7095,0.7095,0.7095,0.7095,0.7112,0.7109,0.7251,0.7322,0.7472,0.7624,0.8055,0.8477,0.8841,0.913,0.943,0.9579,0.9628,0.9727,0.9974,1.0314,1.0708,1.1292,1.1927,1.27,1.8781,1.8781,1.8781,1.8504,1.8133,1.804,1.7761,1.7333,1.7286,1.7286,1.7286,1.7286,1.7286,1.7286,1.7286,1.7286,1.7304,1.7216,1.7172,1.7047,1.6894,1.6822,1.6756,1.6492,1.6301,1.6082,1.5774,1.5469,1.5384,1.5222,1.4957,1.4783,1.4566,1.4405,1.4286,1.4208,1.425,1.4292,1.425,1.4208,1.4208,1.4166,1.4166,1.4088,1.4088,1.4088,1.4088,1.4088,1.4088,1.4088,1.3864,1.3525,1.3222,1.3003,1.2833,1.2619,1.2272,1.1977,1.1714,1.1419,1.1068,1.0809,1.0598,1.0294,0.999,0.982,0.9646,0.9384,0.899,0.8464,0.7768,0.7547,0.7415,0.7234,0.7204,0.7122,0.7122,0.7132,0.7142,0.7162,0.7136,0.7095,0.7095,0.7095,0.7095,0.7095,0.7095,0.7095,0.7095,0.7095,0.7095,0.7095,0.7095,0.7095,0.7095,0.7119,0.7146,0.7333,0.7441,0.759,0.7791,0.8143,0.8499,0.8768,0.913,0.943,0.9579,0.9579,0.9826,1.0023,1.0462,1.0904,1.1585,1.2316,1.3039,1.8781,1.8781,1.8781,1.855,1.8125,1.8087,1.78,1.7333,1.7286,1.7286,1.7286,1.7286,1.7286,1.7286,1.7286,1.7286,1.7286,1.7286,1.7286,1.7282,1.7172,1.7099,1.7055,1.6762,1.6697,1.6543,1.6148,1.5718,1.5495,1.507,1.4811,1.4531,1.4363,1.4201,1.4124,1.413,1.4088,1.4088,1.4088,1.4088,1.4088,1.4088,1.4088,1.4088,1.4088,1.4088,1.4088,1.4088,1.4046,1.387,1.3695,1.3349,1.2918,1.2485,1.2143,1.1972,1.1671,1.1327,1.103,1.0641,1.0381,1.012,0.9907,0.9694,0.9476,0.9301,0.9078,0.8727,0.8336,0.7896,0.7551,0.7374,0.7269,0.7289,0.7261,0.7299,0.735,0.7318,0.7307,0.7322,0.7196,0.7142,0.7095,0.7095,0.7095,0.7095,0.7105,0.7115,0.7129,0.7139,0.7159,0.7152,0.7162,0.7162,0.7224,0.7258,0.725,0.7424,0.755,0.7699,0.7862,0.8146,0.8354,0.8524,0.8928,0.9331,0.9529,0.9579,0.9875,1.0122,1.056,1.1047,1.1873,1.2651,1.3426,1.8781,1.8781,1.8781,1.8504,1.8133,1.8087,1.78,1.738,1.7286,1.7286,1.7286,1.7286,1.7286,1.7286,1.7286,1.7286,1.7286,1.7286,1.7286,1.7279,1.7264,1.7271,1.7245,1.7121,1.6998,1.6894,1.6511,1.6176,1.5684,1.5142,1.4733,1.4501,1.4276,1.4088,1.4088,1.4088,1.4088,1.4088,1.4088,1.4088,1.4088,1.4088,1.4088,1.4088,1.4088,1.4088,1.4088,1.4088,1.3955,1.3737,1.3525,1.3179,1.2662,1.2063,1.1542,1.1192,1.1068,1.0722,1.0337,0.9994,0.9777,0.9515,0.9301,0.9218,0.9087,0.8863,0.86,0.8116,0.7812,0.7535,0.7474,0.7289,0.7316,0.7373,0.7424,0.7451,0.7522,0.7546,0.7533,0.7458,0.7326,0.7247,0.726,0.7305,0.7339,0.7339,0.735,0.7294,0.7301,0.7322,0.7322,0.7299,0.7292,0.725,0.7326,0.7394,0.7451,0.7553,0.7662,0.7787,0.7927,0.8118,0.8252,0.8432,0.8634,0.8985,0.9282,0.9583,0.9776,1.0117,1.0556,1.1243,1.2073,1.2894,1.3715,1.8781,1.8781,1.8781,1.8504,1.8133,1.8087,1.78,1.7333,1.7286,1.7286,1.7286,1.7286,1.7286,1.7286,1.7286,1.7286,1.7286,1.7286,1.7286,1.7286,1.7286,1.7286,1.7286,1.7304,1.7223,1.7125,1.6755,1.633,1.591,1.5416,1.5031,1.4788,1.437,1.4102,1.4148,1.4108,1.4088,1.4088,1.4088,1.4088,1.4088,1.4088,1.4088,1.4088,1.4088,1.4088,1.4088,1.4088,1.3955,1.3695,1.3519,1.3094,1.2497,1.1977,1.1246,1.0684,1.0255,1.0038,0.9689,0.9519,0.9305,0.9082,0.8955,0.8823,0.8692,0.8472,0.8164,0.7639,0.7514,0.7499,0.7455,0.7388,0.7428,0.7509,0.7573,0.7584,0.7631,0.7723,0.7709,0.7682,0.7577,0.7563,0.7563,0.7556,0.7553,0.755,0.7539,0.7526,0.7502,0.7461,0.7448,0.7428,0.7417,0.7417,0.7444,0.7509,0.7584,0.7682,0.778,0.7823,0.7936,0.805,0.8163,0.8336,0.8535,0.8684,0.8985,0.9331,0.9628,1.0117,1.0654,1.1389,1.2224,1.3093,1.4004,1.8781,1.8781,1.8781,1.8504,1.8125,1.8087,1.78,1.738,1.7286,1.7286,1.7286,1.7286,1.7286,1.7286,1.7286,1.7286,1.7286,1.7286,1.7286,1.7286,1.7286,1.7286,1.7286,1.7279,1.7286,1.7203,1.6937,1.6657,1.6207,1.5645,1.5174,1.495,1.4583,1.4342,1.4309,1.4168,1.4108,1.4088,1.4088,1.4088,1.4088,1.4088,1.4088,1.4088,1.4088,1.4088,1.4088,1.4088,1.3913,1.361,1.3434,1.3009,1.2289,1.1682,1.1068,1.0255,0.9781,0.9476,0.9257,0.9135,0.8964,0.8788,0.87,0.8604,0.8384,0.818,0.796,0.7628,0.75,0.7486,0.7508,0.7499,0.7587,0.7665,0.7719,0.7773,0.7801,0.7841,0.7879,0.7858,0.7834,0.7804,0.7753,0.7689,0.7655,0.7638,0.7628,0.7611,0.7587,0.7553,0.755,0.756,0.7556,0.756,0.759,0.7638,0.7699,0.7787,0.7837,0.7914,0.7948,0.8035,0.8137,0.8137,0.8187,0.8435,0.8733,0.908,0.9476,1.0117,1.0801,1.1585,1.237,1.3431,1.434,1.8781,1.8781,1.8781,1.855,1.8133,1.8087,1.7807,1.7333,1.7286,1.7286,1.7286,1.7286,1.7286,1.7286,1.7286,1.7286,1.7286,1.7286,1.7286,1.7286,1.7286,1.7286,1.7286,1.7286,1.7286,1.7239,1.6943,1.6673,1.628,1.5807,1.5359,1.5109,1.477,1.4649,1.4576,1.4469,1.4355,1.4229,1.4135,1.4088,1.4088,1.4088,1.4088,1.4088,1.4088,1.4088,1.4088,1.4088,1.387,1.3525,1.3349,1.2887,1.2123,1.1505,1.0909,1.0163,0.9716,0.9313,0.9099,0.8966,0.877,0.873,0.869,0.8657,0.8274,0.8068,0.787,0.7696,0.7562,0.7555,0.7611,0.7651,0.7733,0.7807,0.7872,0.7901,0.7948,0.7928,0.7921,0.7907,0.7901,0.7931,0.7864,0.7759,0.7753,0.7729,0.7712,0.7702,0.7695,0.7689,0.7716,0.775,0.7756,0.776,0.7777,0.7811,0.7855,0.783,0.7928,0.7975,0.7985,0.7988,0.8038,0.8038,0.7988,0.8287,0.8684,0.8981,0.9327,1.0019,1.0752,1.1634,1.2559,1.3673,1.4634,1.8781,1.8781,1.8781,1.8496,1.8087,1.8087,1.78,1.7333,1.7286,1.7286,1.7286,1.7286,1.7286,1.7286,1.7286,1.7286,1.7286,1.7286,1.7286,1.7286,1.7286,1.7286,1.7286,1.7286,1.72,1.7019,1.6831,1.6541,1.6251,1.5934,1.5591,1.5364,1.507,1.497,1.4897,1.4854,1.4656,1.4496,1.4322,1.4195,1.4182,1.4175,1.4175,1.4148,1.4122,1.4095,1.4095,1.4155,1.3943,1.351,1.3335,1.2874,1.2125,1.15,1.0872,1.0255,0.9755,0.9364,0.91,0.896,0.8812,0.8848,0.8868,0.8798,0.831,0.8273,0.8081,0.771,0.7627,0.7655,0.7746,0.7814,0.7823,0.7874,0.7914,0.7938,0.7975,0.7975,0.7971,0.7982,0.7988,0.7988,0.7988,0.7874,0.7843,0.7872,0.7879,0.7823,0.7853,0.7857,0.7887,0.7914,0.7924,0.7931,0.7938,0.7944,0.7911,0.7904,0.7958,0.7982,0.7988,0.7988,0.7988,0.7988,0.8038,0.8333,0.8581,0.8829,0.9225,0.992,1.0708,1.1683,1.2851,1.4064,1.4879,1.8781,1.8781,1.8651,1.8419,1.8087,1.7955,1.7667,1.7333,1.7286,1.7286,1.7286,1.7286,1.7286,1.7286,1.7286,1.7286,1.7286,1.7286,1.7286,1.7286,1.7286,1.7286,1.7286,1.7286,1.72,1.6972,1.6737,1.6447,1.6224,1.5927,1.5792,1.5591,1.5357,1.5271,1.5204,1.5122,1.4948,1.4823,1.4689,1.4666,1.4629,1.4623,1.4673,1.4673,1.4623,1.4509,1.4422,1.4549,1.4222,1.3828,1.3592,1.3007,1.2304,1.1681,1.098,1.0301,0.9861,0.9503,0.9185,0.9043,0.8995,0.8999,0.9009,0.8874,0.8425,0.8305,0.8124,0.7875,0.7733,0.7797,0.7867,0.7901,0.7931,0.7971,0.7988,0.7988,0.7988,0.7988,0.7988,0.7988,0.7988,0.7988,0.7988,0.7978,0.7971,0.7971,0.7982,0.7988,0.7988,0.7988,0.7988,0.7988,0.7988,0.7988,0.7988,0.7988,0.7988,0.7988,0.7988,0.7988,0.7988,0.7988,0.7988,0.7988,0.8038,0.8233,0.8482,0.8676,0.9171,0.9969,1.09,1.1873,1.3093,1.4406,1.507,1.8735,1.8697,1.8473,1.828,1.8087,1.7815,1.7527,1.7333,1.7286,1.7286,1.7286,1.7286,1.7286,1.7286,1.7286,1.7286,1.7286,1.7286,1.7286,1.7286,1.7286,1.7286,1.7286,1.7192,1.7059,1.6878,1.6595,1.6312,1.6028,1.5879,1.5812,1.5745,1.5645,1.5551,1.5458,1.5257,1.5135,1.5084,1.5042,1.5022,1.4988,1.4981,1.4975,1.4968,1.4948,1.4881,1.473,1.479,1.4574,1.4085,1.3676,1.3245,1.2535,1.1819,1.1159,1.0506,1.0023,0.9661,0.9372,0.9194,0.9206,0.9267,0.9275,0.8993,0.8629,0.8434,0.8338,0.7907,0.7837,0.7874,0.7988,0.7971,0.7968,0.7988,0.7988,0.7988,0.7988,0.7988,0.7988,0.7988,0.7988,0.7988,0.7988,0.7988,0.7988,0.7988,0.7988,0.7988,0.7988,0.7988,0.7988,0.7988,0.7988,0.7988,0.7988,0.7988,0.7988,0.7988,0.7988,0.7988,0.7988,0.7988,0.7988,0.7988,0.8088,0.8184,0.8482,0.8829,0.9422,1.0068,1.1145,1.2316,1.3377,1.4598,1.5118,1.8705,1.8481,1.8234,1.8133,1.804,1.7815,1.7527,1.7333,1.7286,1.7286,1.7286,1.7286,1.7286,1.7286,1.7286,1.7286,1.7286,1.7286,1.7286,1.7286,1.7286,1.7286,1.7192,1.7106,1.6878,1.6588,1.6353,1.6116,1.5879,1.5832,1.5825,1.5825,1.5772,1.5758,1.5772,1.5531,1.5398,1.5357,1.5182,1.5129,1.5129,1.5142,1.5156,1.5162,1.5169,1.509,1.5055,1.5025,1.4799,1.4275,1.382,1.3279,1.2537,1.178,1.1106,1.0439,1.0171,0.9917,0.9612,0.9482,0.9433,0.9466,0.9445,0.9172,0.8875,0.8689,0.8512,0.8026,0.7948,0.7961,0.7988,0.7988,0.7988,0.7988,0.7988,0.7988,0.7988,0.7988,0.7988,0.7988,0.7988,0.7988,0.7988,0.7988,0.7988,0.7988,0.7988,0.7988,0.7988,0.7988,0.7988,0.7988,0.7988,0.7988,0.7988,0.7988,0.7988,0.7988,0.7988,0.7988,0.7988,0.7988,0.7988,0.7988,0.8088,0.8184,0.8581,0.9027,0.9817,1.0703,1.1834,1.2953,1.3968,1.4736,1.5213,1.8697,1.8481,1.8226,1.7994,1.7815,1.7567,1.738,1.7286,1.7286,1.7286,1.7286,1.7286,1.7286,1.7286,1.7286,1.7286,1.7286,1.7286,1.7286,1.7286,1.7286,1.7192,1.7106,1.6972,1.6744,1.6407,1.617,1.6021,1.5825,1.5825,1.5825,1.5825,1.5825,1.5825,1.5764,1.5664,1.5638,1.5678,1.5591,1.5545,1.5531,1.5518,1.5511,1.5504,1.5491,1.5365,1.5232,1.5239,1.4968,1.4417,1.3957,1.3355,1.2658,1.1898,1.1139,1.0546,1.017,0.9902,0.9665,0.9559,0.9563,0.9562,0.943,0.9229,0.8829,0.863,0.8333,0.8137,0.7988,0.7988,0.7988,0.7988,0.7988,0.7988,0.7988,0.7988,0.7988,0.7988,0.7988,0.7988,0.7988,0.7988,0.7988,0.7988,0.7988,0.7988,0.7988,0.7988,0.7988,0.7988,0.7988,0.7988,0.7988,0.7988,0.7988,0.7988,0.7988,0.7988,0.7988,0.7988,0.7988,0.7988,0.7988,0.7988,0.8038,0.8187,0.8829,0.9571,1.0502,1.1438,1.2467,1.334,1.4256,1.4831,1.522,1.8604,1.8326,1.8179,1.79,1.7574,1.738,1.7286,1.7286,1.7286,1.7286,1.7286,1.7286,1.7286,1.7286,1.7286,1.7286,1.7286,1.7286,1.7286,1.7286,1.7192,1.7106,1.7019,1.6791,1.6508,1.6224,1.6076,1.5933,1.5825,1.5825,1.5825,1.5825,1.5825,1.5825,1.5771,1.5764,1.5758,1.5792,1.5752,1.5765,1.5772,1.5738,1.5704,1.565,1.563,1.5536,1.5376,1.5254,1.5089,1.4514,1.3981,1.3431,1.2662,1.1932,1.1149,1.056,1.0068,0.9821,0.9624,0.9624,0.9612,0.9624,0.9434,0.9183,0.8874,0.8676,0.8386,0.8137,0.8038,0.7988,0.7988,0.7988,0.7988,0.7988,0.7988,0.7988,0.7988,0.7988,0.7988,0.7988,0.7988,0.7988,0.7988,0.7988,0.7988,0.7988,0.7988,0.7988,0.7988,0.7988,0.7988,0.7988,0.7988,0.7988,0.7988,0.7988,0.7988,0.7988,0.7988,0.7988,0.7988,0.7988,0.7988,0.8038,0.8187,0.8482,0.9274,1.006,1.0998,1.1922,1.2845,1.3721,1.4544,1.4975,1.5315,1.8504,1.8133,1.8087,1.78,1.7333,1.7286,1.7286,1.7286,1.7286,1.7286,1.7286,1.7286,1.7286,1.7286,1.7286,1.7286,1.7286,1.7286,1.7286,1.7246,1.7113,1.7026,1.6791,1.6508,1.6265,1.6123,1.5981,1.5879,1.5825,1.5825,1.5825,1.5825,1.5825,1.5825,1.5825,1.5825,1.5825,1.5825,1.5825,1.5778,1.573,1.573,1.5642,1.5547,1.5439,1.5296,1.5168,1.5003,1.4717,1.4268,1.3757,1.3087,1.2414,1.1634,1.0998,1.0413,0.9821,0.9673,0.9624,0.9624,0.9624,0.9624,0.9579,0.9274,0.8973,0.8676,0.8382,0.8137,0.7988,0.7988,0.7988,0.7988,0.7988,0.7988,0.7988,0.7988,0.7988,0.7988,0.7988,0.7988,0.7988,0.7988,0.7988,0.7988,0.7988,0.7988,0.7988,0.7988,0.7988,0.7988,0.7988,0.7988,0.7988,0.7988,0.7988,0.7988,0.7988,0.7988,0.7988,0.7988,0.7988,0.7988,0.7988,0.8088,0.8287,0.8829,0.9669,1.0556,1.1536,1.2462,1.3335,1.401,1.4783,1.5166,1.5499,1.8427,1.8087,1.7908,1.7621,1.7326,1.7286,1.7286,1.7286,1.7286,1.7286,1.7286,1.7286,1.7286,1.7286,1.7286,1.7286,1.7286,1.7286,1.72,1.7113,1.6979,1.6744,1.6508,1.6265,1.6076,1.5974,1.5832,1.5825,1.5825,1.5825,1.5825,1.5825,1.5825,1.5825,1.5825,1.5825,1.5825,1.5778,1.5778,1.573,1.5635,1.5588,1.5404,1.5267,1.5172,1.5029,1.4783,1.4592,1.425,1.3763,1.3286,1.271,1.2127,1.134,1.0659,0.9924,0.9677,0.9624,0.9624,0.9624,0.9624,0.9624,0.9624,0.9274,0.8924,0.8627,0.8382,0.8137,0.7988,0.7988,0.7988,0.7988,0.7988,0.7988,0.7988,0.7988,0.7988,0.7988,0.7988,0.7988,0.7988,0.7988,0.7988,0.7988,0.7988,0.7988,0.7988,0.7988,0.7988,0.7988,0.7988,0.7988,0.7988,0.7988,0.7988,0.7988,0.7988,0.7988,0.7988,0.7988,0.7988,0.7988,0.7988,0.8237,0.8684,0.9327,1.0117,1.1051,1.198,1.2856,1.3727,1.4352,1.4933,1.5309,1.5594,1.8288,1.7955,1.7768,1.7527,1.7333,1.7286,1.7286,1.7286,1.7286,1.7286,1.7286,1.7286,1.7286,1.7286,1.7286,1.7286,1.7286,1.72,1.7113,1.7019,1.6791,1.6508,1.6272,1.6076,1.5981,1.5832,1.5825,1.5825,1.5825,1.5825,1.5825,1.5825,1.5825,1.5825,1.5825,1.5825,1.5825,1.5778,1.5737,1.5642,1.5499,1.535,1.5124,1.4831,1.479,1.4544,1.4256,1.3962,1.3619,1.3232,1.2759,1.2322,1.1785,1.1096,1.0413,0.9776,0.9628,0.9624,0.9624,0.9624,0.9624,0.9624,0.9575,0.9274,0.8973,0.8676,0.8382,0.8137,0.8038,0.7988,0.7988,0.7988,0.7988,0.7988,0.7988,0.7988,0.7988,0.7988,0.7988,0.7988,0.7988,0.7988,0.7988,0.7988,0.7988,0.7988,0.7988,0.7988,0.7988,0.7988,0.7988,0.7988,0.7988,0.7988,0.7988,0.7988,0.7988,0.7988,0.7988,0.7988,0.8038,0.8187,0.8336,0.8733,0.9179,0.992,1.0708,1.1492,1.237,1.3292,1.4064,1.464,1.5118,1.5452,1.5683,1.8148,1.7729,1.7675,1.7527,1.7333,1.7286,1.7286,1.7286,1.7286,1.7286,1.7286,1.7286,1.7286,1.7286,1.7286,1.7239,1.72,1.7113,1.6925,1.6932,1.6508,1.6224,1.6076,1.5927,1.5879,1.5825,1.5825,1.5825,1.5825,1.5825,1.5825,1.5825,1.5825,1.5825,1.5825,1.5825,1.5825,1.5784,1.5594,1.5404,1.5356,1.5172,1.479,1.4346,1.4154,1.3968,1.3491,1.3201,1.2905,1.2613,1.2224,1.1785,1.1243,1.0801,1.0117,0.9826,0.9628,0.9624,0.9624,0.9624,0.9624,0.9624,0.9575,0.9278,0.8977,0.8775,0.8482,0.8137,0.7988,0.7988,0.7988,0.7988,0.7988,0.7988,0.7988,0.7988,0.7988,0.7988,0.7988,0.7988,0.7988,0.7988,0.7988,0.7988,0.7988,0.7988,0.7988,0.7988,0.7988,0.7988,0.7988,0.7988,0.7988,0.7988,0.7988,0.7988,0.7988,0.7988,0.8038,0.8088,0.8137,0.8435,0.8783,0.9229,0.9772,1.0609,1.1394,1.217,1.2948,1.3673,1.4394,1.4873,1.5302,1.5588,1.573,1.7822,1.7675,1.7481,1.7326,1.7286,1.7286,1.7286,1.7286,1.7286,1.7286,1.7286,1.7286,1.7286,1.7286,1.7286,1.72,1.7073,1.6932,1.6744,1.6555,1.6224,1.6076,1.5933,1.5872,1.5825,1.5825,1.5825,1.5825,1.5825,1.5825,1.5825,1.5825,1.5825,1.5825,1.5825,1.5825,1.5778,1.5784,1.5458,1.522,1.5172,1.4688,1.4256,1.3823,1.3534,1.3141,1.2807,1.2565,1.2273,1.1932,1.1585,1.1047,1.0413,1.0216,0.9924,0.9677,0.9624,0.9624,0.9624,0.9624,0.9624,0.9575,0.9525,0.9229,0.8977,0.8878,0.8581,0.8237,0.7988,0.7988,0.7988,0.7988,0.7988,0.7988,0.7988,0.7988,0.7988,0.7988,0.7988,0.7988,0.7988,0.7988,0.7988,0.7988,0.7988,0.7988,0.7988,0.7988,0.7988,0.7988,0.7988,0.7988,0.7988,0.7988,0.7988,0.8038,0.8038,0.8088,0.8187,0.8237,0.8333,0.8832,0.9327,0.9871,1.0413,1.1292,1.217,1.299,1.3667,1.4244,1.4675,1.5207,1.5397,1.5642,1.573,1.7628,1.7527,1.738,1.7286,1.7286,1.7286,1.7286,1.7286,1.7286,1.7286,1.7286,1.7286,1.7286,1.7286,1.72,1.7106,1.6932,1.669,1.6508,1.6272,1.6076,1.5933,1.5832,1.5825,1.5825,1.5825,1.5825,1.5825,1.5825,1.5825,1.5825,1.5825,1.5825,1.5825,1.5825,1.5825,1.5825,1.5778,1.5315,1.5077,1.4885,1.431,1.3727,1.3249,1.2807,1.2419,1.2073,1.1878,1.1536,1.1243,1.0998,1.0654,1.0216,1.0068,0.9875,0.9677,0.9624,0.9624,0.9624,0.9624,0.9628,0.9575,0.9426,0.913,0.8874,0.8726,0.8432,0.8088,0.7988,0.7988,0.7988,0.7988,0.7988,0.7988,0.7988,0.7988,0.7988,0.7988,0.7988,0.7988,0.7988,0.7988,0.7988,0.7988,0.7988,0.7988,0.7988,0.7988,0.7988,0.7988,0.7988,0.7988,0.7988,0.7988,0.7988,0.8038,0.8084,0.8184,0.8333,0.863,0.8928,0.9426,0.9969,1.0556,1.1292,1.2068,1.2942,1.3667,1.4292,1.4867,1.5153,1.5493,1.5635,1.5689,1.5778,1.7527,1.7333,1.7286,1.7286,1.7286,1.7286,1.7286,1.7286,1.7286,1.7286,1.7286,1.7239,1.7239,1.72,1.7113,1.6972,1.6791,1.6461,1.6272,1.6076,1.5927,1.5832,1.5832,1.5825,1.5825,1.5825,1.5825,1.5825,1.5825,1.5825,1.5825,1.5825,1.5825,1.5825,1.5825,1.5784,1.5784,1.5642,1.5309,1.4927,1.4448,1.3877,1.3298,1.2764,1.2224,1.1785,1.1438,1.1096,1.0801,1.0654,1.0507,1.0216,1.0019,0.9871,0.9776,0.9628,0.9624,0.9624,0.9624,0.9624,0.9579,0.948,0.9282,0.908,0.8775,0.8528,0.8287,0.8137,0.8038,0.7988,0.7988,0.7988,0.7988,0.7988,0.7988,0.7988,0.7988,0.7988,0.7988,0.7988,0.7988,0.7988,0.7988,0.7988,0.7988,0.7988,0.7988,0.7988,0.7988,0.7988,0.7988,0.7988,0.7988,0.7988,0.7988,0.8088,0.8184,0.8382,0.8581,0.9027,0.9571,1.0261,1.09,1.1487,1.217,1.2894,1.3522,1.4196,1.4825,1.5302,1.5493,1.5635,1.5683,1.5778,1.5778,1.7333,1.7286,1.7286,1.7286,1.7286,1.7286,1.7286,1.7286,1.7286,1.7286,1.7239,1.7113,1.7073,1.7066,1.7026,1.6838,1.6461,1.6224,1.6028,1.5879,1.5832,1.5825,1.5825,1.5825,1.5825,1.5825,1.5825,1.5825,1.5825,1.5825,1.5825,1.5825,1.5825,1.5825,1.5825,1.5778,1.573,1.554,1.5261,1.4838,1.4106,1.3528,1.2953,1.237,1.1736,1.1292,1.0949,1.0654,1.0511,1.0413,1.0216,0.9974,0.9826,0.9727,0.9677,0.9628,0.9624,0.9624,0.9624,0.9579,0.948,0.9335,0.9133,0.8931,0.868,0.8428,0.8233,0.8038,0.7988,0.7988,0.7988,0.7988,0.7988,0.7988,0.7988,0.7988,0.7988,0.7988,0.7988,0.7988,0.7988,0.7988,0.7988,0.7988,0.7988,0.7988,0.7988,0.7988,0.7988,0.7988,0.7988,0.7988,0.8038,0.7988,0.7988,0.8237,0.8382,0.8581,0.9027,0.9768,1.0507,1.1243,1.1829,1.2365,1.299,1.3715,1.4292,1.4777,1.5064,1.5493,1.5635,1.5778,1.5778,1.5825,1.5825]}]]